[[{"header":{"parameterUnit":"m.s-1","parameterCategory":1,"la1":30.6,"la2":29.2853,"lo1":-89.7004,"lo2":-87.6739,"dy":0.0162,"dx":0.0183,"nx":112,"ny":82,"refTime":"2023-08-14T12:00:00:Z","depth":0,"parameterNumber":2,"parameterNumberName":"U-component_of_WINDS"},"data":[0.0,0.0,0.0,0.0,0.0,0.0,0.0,0.0,0.0,0.0,0.0,0.0,0.0,0.0,0.0,0.0,0.0,0.0,0.0,0.0,0.0,0.0,0.0,0.0,0.0,0.0,0.0,0.0,0.0,0.0,0.0,0.0,0.0,0.0,0.0,0.0,0.0,0.0,0.0,0.0,0.0,0.0,0.0,0.0,0.0,0.0,0.0,0.0,0.0,0.0,0.0,0.0,0.0,0.0,0.0,0.0,0.0,0.0,0.0,0.0,0.0,0.0,0.0,0.0,0.0,0.0,0.0,0.0,0.0,0.0,0.0,0.0,0.0,0.0,0.0,0.0,0.0,0.0,0.0,0.0,0.0,0.0,0.0,0.0,0.0,0.0,0.0,0.0,0.0,0.0,-0.0,-0.0,-0.0,-0.0,-0.0,-0.0,-0.0,-0.0,0.0,0.0,0.0,0.0,0.0,0.0,0.0,0.0,0.0,0.0,0.0,0.0,0.0,0.0,0.0,0.0,0.0,0.0,0.0,0.0,0.0,0.0,0.0,0.0,0.0,0.0,0.0,0.0,0.0,0.0,0.0,0.0,0.0,0.0,0.0,0.0,0.0,0.0,0.0,0.0,0.0,0.0,0.0,0.0,0.0,0.0,0.0,0.0,0.0,0.0,0.0,0.0,0.0,0.0,0.0,0.0,0.0,0.0,0.0,0.0,0.0,0.0,0.0,0.0,0.0,0.0,0.0,0.0,0.0,0.0,0.0,0.0,0.0,0.0,0.0,0.0,0.0,0.0,0.0,0.0,0.0,0.0,0.0,0.0,0.0,0.0,0.0,0.0,0.0,0.0,0.0,0.0,0.0,0.0,0.0,0.0,0.0,0.0,0.0,0.0,0.0,0.0,0.0,0.0,-0.0,-0.0,-0.0,-0.0,-0.0,-0.0,-0.0,-0.0,0.0,0.0,0.0,0.0,0.0,0.0,0.0,0.0,0.0,0.0,0.0,0.0,0.0,0.0,0.0,0.0,0.0,0.0,0.0,0.0,0.0,0.0,0.0,0.0,0.0,0.0,0.0,0.0,0.0,0.0,0.0,0.0,0.0,0.0,0.0,0.0,0.0,0.0,0.0,0.0,0.0,0.0,0.0,0.0,0.0,0.0,0.0,0.0,0.0,0.0,0.0,0.0,0.0,0.0,0.0,0.0,0.0,0.0,0.0,0.0,0.0,0.0,0.0,0.0,0.0,0.0,0.0,0.0,0.0,0.0,0.0,0.0,0.0,0.0,0.0,0.0,0.0,0.0,0.0,0.0,0.0,0.0,0.0,0.0,0.0,0.0,0.0,0.0,0.0,0.0,0.0,0.0,0.0,0.0,0.0,0.0,0.0,0.0,0.0,0.0,0.0,0.0,0.0,-0.0,-0.0,-0.0,-0.0,-0.0,-0.0,-0.0,-0.0,-0.0,-0.0,0.0,0.0,0.0,0.0,0.0,0.0,0.0,0.0,0.0,0.0,0.0,0.0,0.0,0.0,0.0,0.0,0.0,0.0,0.0,0.0,0.0,0.0,0.0,0.0,0.0,0.0,0.0,0.0,0.0,0.0,0.0,0.0,0.0,0.0,0.0,0.0,0.0,0.0,0.0,0.0,0.0,0.0,0.0,0.0,0.0,0.0,0.0,0.0,0.0,0.0,0.0,0.0,0.0,0.0,0.0,0.0,0.0,0.0,0.0,0.0,0.0,0.0,0.0,0.0,0.0,0.0,0.0,0.0,0.0,0.0,0.0,0.0,0.0,0.0,0.0,0.0,0.0,0.0,0.0,0.0,0.0,0.0,0.0,0.0,0.0,0.0,0.0,0.0,0.0,0.0,0.0,0.0,0.0,0.0,0.0,0.0,0.0,0.0,0.0,0.0,0.0,0.0,-0.0,-0.0,-0.0,-0.0,-0.0,-0.0,-0.0,-0.0,-0.0,-0.0,0.0,0.0,0.0,0.0,0.0,0.0,0.0,0.0,0.0,0.0,0.0,0.0,0.0,0.0,0.0,0.0,0.0,0.0,0.0,0.0,0.0,0.0,0.0,0.0,0.0,0.0,0.0,0.0,0.0,0.0,0.0,0.0,0.0,0.0,0.0,0.0,0.0,0.0,0.0,0.0,0.0,0.0,0.0,0.0,0.0,0.0,0.0,0.0,0.0,0.0,0.0,0.0,0.0,0.0,0.0,0.0,0.0,0.0,0.0,0.0,0.0,0.0,0.0,0.0,0.0,0.0,0.0,0.0,0.0,0.0,0.0,0.0,0.0,0.0,0.0,0.0,0.0,0.0,0.0,0.0,0.0,0.0,0.0,0.0,0.0,0.0,0.0,0.0,0.0,0.0,0.0,0.0,0.0,0.0,0.0,0.0,0.0,0.0,0.0,0.0,0.0,0.0,-0.0,-0.0,-0.0,-0.0,-0.0,-0.0,-0.0,-0.0,-0.0,-0.0,0.0,0.0,0.0,0.0,0.0,0.0,0.0,0.0,0.0,0.0,0.0,0.0,0.0,0.0,0.0,0.0,0.0,0.0,0.0,0.0,0.0,0.0,0.0,0.0,0.0,0.0,0.0,0.0,0.0,0.0,0.0,0.0,0.0,0.0,0.0,0.0,0.0,0.0,0.0,0.0,0.0,0.0,0.0,0.0,0.0,0.0,0.0,0.0,0.0,0.0,0.0,0.0,0.0,0.0,0.0,0.0,0.0,0.0,0.0,0.0,0.0,0.0,0.0,0.0,0.0,0.0,0.0,0.0,0.0,0.0,0.0,0.0,0.0,0.0,0.0,0.0,0.0,0.0,0.0,0.0,0.0,0.0,0.0,0.0,0.0,0.0,0.0,0.0,0.0,0.0,0.0,0.0,0.0,0.0,0.0,0.0,0.0,0.0,0.0,0.0,0.0,0.0,-0.0,-0.0,-0.0,-0.0,-0.0,-0.0,-0.0,-0.0,-0.0,0.0,0.0,0.0,0.0,0.0,0.0,0.0,0.0,0.0,0.0,0.0,0.0,0.0,0.0,0.0,0.0,0.0,0.0,0.0,0.0,0.0,0.0,0.0,0.0,0.0,0.0,0.0,0.0,0.0,0.0,0.0,0.0,0.0,0.0,0.0,0.0,0.0,0.0,0.0,0.0,0.0,0.0,0.0,0.0,0.0,0.0,0.0,0.0,0.0,0.0,0.0,0.0,0.0,0.0,0.0,0.0,0.0,0.0,0.0,0.0,0.0,0.0,0.0,0.0,0.0,0.0,0.0,0.0,0.0,0.0,0.0,0.0,0.0,0.0,0.0,0.0,0.0,0.0,0.0,0.0,0.0,0.0,0.0,0.0,0.0,0.0,0.0,0.0,0.0,0.0,0.0,0.0,0.0,0.0,0.0,0.0,0.0,0.0,0.0,0.0,0.0,0.0,-0.0,-0.0,-0.0,-0.0,-0.0,-0.0,-0.0,-0.0,-0.0,-0.0,0.0,0.0,0.0,0.0,0.0,0.0,0.0,0.0,0.0,0.0,0.0,0.0,0.0,0.0,0.0,0.0,0.0,0.0,0.0,0.0,0.0,0.0,0.0,0.0,0.0,0.0,0.0,0.0,0.0,0.0,0.0,0.0,0.0,0.0,0.0,0.0,0.0,0.0,0.0,0.0,0.0,0.0,0.0,0.0,0.0,0.0,0.0,0.0,0.0,0.0,0.0,0.0,0.0,0.0,0.0,0.0,0.0,0.0,0.0,0.0,0.0,0.0,0.0,0.0,0.0,0.0,0.0,0.0,0.0,0.0,0.0,0.0,0.0,0.0,0.0,0.0,0.0,0.0,0.0,0.0,0.0,0.0,0.0,0.0,0.0,0.0,0.0,0.0,0.0,0.0,0.0,0.0,0.0,0.0,0.0,0.0,0.0,0.0,0.0,0.0,0.0,0.0,-0.0,-0.0,-0.0,-0.0,-0.0,-0.0,-0.0,-0.0,-0.0,0.0,0.0,0.0,0.0,0.0,0.0,0.0,0.0,0.0,0.0,0.0,0.0,0.0,0.0,0.0,0.0,0.0,0.0,0.0,0.0,0.0,0.0,0.0,0.0,0.0,0.0,0.0,0.0,0.0,0.0,0.0,0.0,0.0,0.0,0.0,0.0,0.0,0.0,0.0,0.0,0.0,0.0,0.0,0.0,0.0,0.0,0.0,0.0,0.0,0.0,0.0,0.0,0.0,0.0,0.0,0.0,0.0,0.0,0.0,0.0,0.0,0.0,0.0,0.0,0.0,0.0,0.0,0.0,0.0,0.0,0.0,0.0,0.0,0.0,0.0,0.0,0.0,0.0,0.0,0.0,0.0,0.0,0.0,0.0,0.0,0.0,0.0,0.0,0.0,0.0,0.0,0.0,0.0,0.0,0.0,0.0,0.0,0.0,0.0,0.0,0.0,0.0,0.0,-0.0,-0.0,-0.0,-0.0,-0.0,-0.0,-0.0,-0.0,-0.0,-0.0,0.0,0.0,0.0,0.0,0.0,0.0,0.0,0.0,0.0,0.0,0.0,0.0,0.0,0.0,0.0,0.0,0.0,0.0,0.0,0.0,0.0,0.0,0.0,0.0,0.0,0.0,0.0,0.0,0.0,0.0,0.0,0.0,0.0,0.0,0.0,0.0,0.0,0.0,0.0,0.0,0.0,0.0,0.0,0.0,0.0,0.0,0.0,0.0,0.0,0.0,0.0,0.0,0.0,0.0,0.0,0.0,0.0,0.0,0.0,0.0,0.0,0.0,0.0,0.0,0.0,0.0,0.0,0.0,0.0,0.0,0.0,0.0,0.0,0.0,0.0,0.0,0.0,0.0,0.0,0.0,0.0,0.0,0.0,0.0,0.0,0.0,0.0,0.0,0.0,0.0,0.0,0.0,0.0,0.0,0.0,0.0,0.0,0.0,0.0,0.0,0.0,0.0,-0.0,-0.0,-0.0,-0.0,-0.0,-0.0,-0.0,-0.0,-0.0,-0.0,0.0,0.0,0.0,0.0,0.0,0.0,0.0,0.0,0.0,0.0,0.0,0.0,0.0,0.0,0.0,0.0,0.0,0.0,0.0,0.0,0.0,0.0,0.0,0.0,0.0,0.0,0.0,0.0,0.0,0.0,0.0,0.0,0.0,0.0,0.0,0.0,0.0,0.0,0.0,0.0,0.0,0.0,0.0,0.0,0.0,0.0,0.0,0.0,0.0,0.0,0.0,0.0,0.0,0.0,0.0,0.0,0.0,0.0,0.0,0.0,0.0,0.0,0.0,0.0,0.0,0.0,0.0,0.0,0.0,0.0,0.0,0.0,0.0,0.0,0.0,0.0,0.0,0.0,0.0,0.0,0.0,0.0,0.0,0.0,0.0,0.0,0.0,0.0,0.0,0.0,0.0,0.0,0.0,0.0,0.0,0.0,0.0,0.0,0.0,0.0,0.0,0.0,-0.0,-0.0,-0.0,-0.0,-0.0,-0.0,-0.0,-0.0,-0.0,-0.0,0.0,0.0,0.0,0.0,0.0,0.0,0.0,0.0,0.0,0.0,0.0,0.0,0.0,0.0,0.0,0.0,0.0,0.0,0.0,0.0,0.0,0.0,0.0,0.0,0.0,0.0,0.0,0.0,0.0,0.0,0.0,0.0,0.0,0.0,0.0,0.0,0.0,0.0,0.0,0.0,0.0,0.0,0.0,0.0,0.0,0.0,0.0,0.0,0.0,0.0,0.0,0.0,0.0,0.0,0.0,0.0,0.0,0.0,0.0,0.0,0.6607,0.0,0.0,0.0,0.0,0.0,0.0,0.0,0.0,0.0,0.0,0.0,0.0,0.0,0.0,0.0,0.0,0.0,0.0,0.0,0.0,0.0,0.0,0.0,0.0,0.0,0.0,0.0,0.0,0.0,0.0,0.0,0.0,0.0,0.0,0.0,0.0,0.0,0.0,0.0,0.0,0.0,-0.0,-0.0,-0.0,-0.0,-0.0,-0.0,-0.0,-0.0,-0.0,-0.0,-0.0,0.0,0.0,0.0,0.0,0.0,0.0,0.0,0.0,0.0,0.0,0.0,0.0,0.0,0.0,0.0,0.0,0.0,0.0,0.0,0.0,0.0,0.0,0.0,0.0,0.0,0.0,0.0,0.0,0.0,0.0,0.0,0.0,0.0,0.0,0.0,0.0,0.0,0.0,0.0,0.0,0.0,0.0,0.0,0.0,0.0,0.0,0.0,0.0,0.0,0.0,0.0,0.0,0.0,0.0,0.0,0.0,0.0,0.0,0.0,0.0,0.6624,0.0,0.0,0.0,0.0,0.0,0.0,0.0,0.0,0.0,0.0,0.0,0.0,0.0,0.0,0.0,0.0,0.0,0.0,0.0,0.0,0.0,0.0,0.0,0.0,0.0,0.0,0.0,0.0,0.0,0.0,0.0,0.0,0.0,0.0,0.0,0.0,0.0,0.0,0.0,0.0,-0.0,-0.0,-0.0,-0.0,-0.0,-0.0,-0.0,-0.0,-0.0,-0.0,-0.0,0.0,0.0,0.0,0.0,0.0,0.0,0.0,0.0,0.0,0.0,0.0,0.0,0.0,0.0,0.0,0.0,0.0,0.0,0.0,0.0,0.0,0.0,0.0,0.0,0.0,0.0,0.0,0.0,0.0,0.0,0.0,0.0,0.0,0.0,0.0,0.0,0.0,0.0,0.0,0.0,0.0,0.0,0.0,0.0,0.0,0.0,0.0,0.0,0.0,0.0,0.0,0.0,0.0,0.6766,0.6776,0.6776,0.6776,0.6848,0.6959,0.6831,0.6834,0.6909,0.6658,0.0,0.0,0.0,0.0,0.0,0.0,0.0,0.0,0.0,0.0,0.0,0.0,0.0,0.0,0.0,0.0,0.0,0.0,0.0,0.0,0.0,0.0,0.6776,0.6776,0.6875,0.6929,0.6803,0.0,0.0,0.0,0.0,0.0,0.0,0.0,0.0,0.0,0.0,0.0,-0.0,-0.0,-0.0,-0.0,-0.0,-0.0,-0.0,-0.0,0.0359,0.1168,0.1237,0.1048,0.0,0.0,0.0,0.0,0.0,0.0,0.0,0.0,0.0,0.0,0.0,0.0,0.0,0.0,0.0,0.0,0.0,0.0,0.0,0.0,0.0,0.0,0.0,0.0,0.0,0.0,0.0,0.0,0.0,0.0,0.0,0.0,0.9504,0.8453,0.0,0.0,0.0,0.0,0.0,0.0,0.0,0.0,0.0,0.0,0.0,0.0,0.0,0.6678,0.6702,0.6831,0.6898,0.6902,0.7024,0.7082,0.7082,0.7082,0.7092,0.7112,0.7092,0.0,0.6926,0.6885,0.0,0.0,0.0,0.0,0.0,0.0,0.0,0.0,0.0,0.0,0.0,0.0,0.0,0.0,0.0,0.0,0.0,0.0,0.0,0.0,0.0,0.0,0.7082,0.7082,0.7099,0.7105,0.7088,0.6892,0.6712,0.6354,0.4589,0.2483,0.0,0.0,0.0,0.0,0.0,0.0,-0.0,-0.0,-0.0,-0.0,-0.0,-0.0,-0.0,-0.0,0.1797,0.5858,0.6207,0.524,0.321,0.3111,0.0,0.0,0.0,0.0,0.0,0.0,0.0,0.0,0.0,0.0,0.0,0.0,0.0,0.0,0.0,0.0,0.0,0.0,0.0,0.0,0.0,0.0,0.0,0.0,0.0,0.0,0.0,0.0,0.0,0.9853,0.9204,0.8167,0.8885,0.894,0.0,0.0,0.0,0.0,0.0,0.0,0.0,0.0,0.0,0.6824,0.6827,0.6868,0.6946,0.7014,0.7048,0.7048,0.7109,0.7139,0.7139,0.7139,0.7139,0.7139,0.7139,0.7105,0.7041,0.6963,0.6851,0.6719,0.0,0.0,0.0,0.0,0.66,0.6624,0.6776,0.6827,0.6817,0.6753,0.0,0.0,0.0,0.0,0.0,0.0,0.0,0.6736,0.6888,0.6973,0.7041,0.7122,0.7139,0.7139,0.7139,0.7044,0.6936,0.6949,0.6182,0.525,0.4159,0.2867,0.0,0.0,0.0,-0.0,-0.0,0.2303,0.3957,0.3957,0.2778,0.2058,0.2058,0.2058,0.2953,0.502,0.6385,0.6627,0.5574,0.56,0.5059,0.0,0.0,0.0,0.0,0.0,0.0,0.0,0.0,0.0,0.0,0.0,0.0,0.0,0.0,0.0,0.0,0.0,0.0,0.0,0.0,0.0,0.0,0.0,0.0,0.0,0.0,0.0,0.0,0.8922,0.8569,0.7729,0.8319,0.8515,0.0,0.0,0.0,0.0,0.0,0.0,0.6756,0.6759,0.6827,0.6976,0.6983,0.7034,0.7139,0.7139,0.7139,0.7139,0.7139,0.7139,0.7139,0.7139,0.7139,0.7139,0.7139,0.7139,0.7132,0.7024,0.6963,0.6919,0.6803,0.6736,0.6705,0.6746,0.6759,0.678,0.6929,0.6983,0.6976,0.6943,0.6902,0.6858,0.678,0.0,0.0,0.0,0.0,0.6793,0.6946,0.6983,0.701,0.7115,0.7139,0.7139,0.7139,0.7112,0.7068,0.7097,0.7083,0.7133,0.7094,0.5366,0.0,0.6754,0.4083,0.1562,0.0959,0.3993,0.6394,0.7035,0.556,0.4469,0.4469,0.4469,0.4467,0.4467,0.6094,0.7094,0.7088,0.7082,0.708,0.7093,0.0,0.0,0.0,0.0,0.0,0.0,0.0,0.0,0.0,0.0,0.0,0.0,0.0,0.0,0.0,0.0,0.0,0.0,0.0,0.0,0.0,0.0,0.0,0.0,0.0,0.0,0.0,0.0,0.0,0.6788,0.6898,0.0,0.0,0.0,0.0,0.6688,0.6698,0.6763,0.6909,0.6915,0.6983,0.7126,0.7129,0.7132,0.7139,0.7139,0.7139,0.7139,0.7139,0.7139,0.7139,0.7139,0.7139,0.7139,0.7139,0.7139,0.7139,0.7132,0.7051,0.6929,0.6919,0.6827,0.6719,0.6865,0.6915,0.6939,0.7082,0.7129,0.7105,0.6973,0.6831,0.6736,0.6875,0.6817,0.0,0.0,0.6915,0.6949,0.7092,0.7129,0.7132,0.7139,0.7139,0.7139,0.7139,0.7034,0.6976,0.7105,0.7126,0.7082,0.7125,0.0,0.5271,0.687,0.6887,0.5959,0.3735,0.3657,0.465,0.6831,0.7009,0.692,0.692,0.692,0.6913,0.6903,0.6996,0.7078,0.7143,0.7136,0.7097,0.7083,0.6651,0.0,0.0,0.0,0.0,0.0,0.0,0.0,0.0,0.0,0.0,0.0,0.0,0.0,0.0,0.0,0.0,0.0,0.0,0.0,0.0,0.0,0.0,0.0,0.0,0.0,0.0,0.0,0.0,0.6719,0.6834,0.0,0.6715,0.679,0.6848,0.6848,0.6932,0.7007,0.7061,0.7065,0.7088,0.7139,0.7139,0.7139,0.7139,0.7139,0.7139,0.7139,0.7139,0.7139,0.7139,0.7139,0.7139,0.7139,0.7139,0.7139,0.7139,0.7139,0.7109,0.7065,0.7065,0.7031,0.699,0.7044,0.7065,0.7071,0.7122,0.7139,0.7132,0.7082,0.7027,0.6993,0.7048,0.7027,0.6993,0.7048,0.7065,0.7078,0.7129,0.7139,0.7139,0.7139,0.7139,0.7139,0.7139,0.7099,0.7082,0.7129,0.7065,0.6993,0.7046,0.6657,0.6508,0.7059,0.7131,0.6763,0.5991,0.5816,0.618,0.7002,0.7078,0.7071,0.7071,0.7071,0.7068,0.7064,0.7064,0.7061,0.7139,0.7139,0.7095,0.7083,0.693,0.6331,0.0,0.0,0.0,0.0,0.0,0.0,0.0,0.0,0.0,0.0,0.0,0.0,0.0,0.0,0.0,0.0,0.0,0.0,0.0,0.0,0.0,0.0,0.0,0.0,0.0,0.0,0.6871,0.6719,0.6878,0.6943,0.6793,0.6912,0.7,0.7,0.7088,0.7139,0.7139,0.7139,0.7139,0.7139,0.7139,0.7139,0.7139,0.7139,0.7139,0.7139,0.7139,0.7139,0.7139,0.7139,0.7139,0.7139,0.7139,0.7139,0.7139,0.7139,0.7139,0.7139,0.7139,0.7139,0.7139,0.7139,0.7139,0.7139,0.7139,0.7139,0.7139,0.7139,0.7139,0.7139,0.7139,0.7139,0.7139,0.7139,0.7139,0.7139,0.7139,0.7139,0.7139,0.7139,0.7139,0.7139,0.7139,0.7139,0.7139,0.7139,0.7065,0.7004,0.7101,0.7085,0.7095,0.7049,0.7068,0.7058,0.7011,0.7044,0.7074,0.7074,0.7061,0.7139,0.7139,0.7095,0.7088,0.7136,0.7095,0.7092,0.7139,0.7095,0.7068,0.7068,0.6783,0.6438,0.5886,0.0,0.0,0.0,0.0,0.0,0.0,0.0,0.0,0.0,0.0,0.0,0.0,0.0,0.0,0.0,0.0,0.0,0.0,0.0,0.0,0.0,0.0,0.0,0.6729,0.6841,0.6878,0.6732,0.6966,0.7085,0.6949,0.7058,0.7139,0.7139,0.7139,0.7139,0.7139,0.7139,0.7139,0.7139,0.7139,0.7139,0.7139,0.7139,0.7139,0.7139,0.7139,0.7139,0.7139,0.7139,0.7139,0.7139,0.7139,0.7139,0.7139,0.7139,0.7139,0.7139,0.7139,0.7139,0.7139,0.7139,0.7139,0.7139,0.7139,0.7139,0.7139,0.7139,0.7139,0.7139,0.7139,0.7139,0.7139,0.7139,0.7139,0.7139,0.7139,0.7139,0.7139,0.7139,0.7139,0.7139,0.7139,0.7139,0.7139,0.7139,0.7139,0.7139,0.7139,0.7139,0.7095,0.6956,0.7051,0.0,0.6953,0.7054,0.7139,0.7136,0.7132,0.7132,0.7132,0.7007,0.699,0.7132,0.701,0.6997,0.7136,0.7007,0.6932,0.6929,0.6627,0.5756,0.4292,0.0,0.0,0.0,0.0,0.0,0.0,0.0,0.0,0.0,0.0,0.0,0.0,0.0,0.0,0.0,0.0,0.0,0.0,0.0,0.0,0.0,0.0,0.6915,0.6871,0.699,0.7065,0.7024,0.7092,0.7126,0.7085,0.7115,0.7139,0.7139,0.7139,0.7139,0.7139,0.7139,0.7139,0.7139,0.7139,0.7139,0.7139,0.7139,0.7139,0.7139,0.7139,0.7139,0.7139,0.7139,0.7139,0.7139,0.7139,0.7139,0.7139,0.7139,0.7139,0.7139,0.7139,0.7139,0.7139,0.7139,0.7139,0.7139,0.7139,0.7139,0.7139,0.7139,0.7139,0.7139,0.7139,0.7139,0.7139,0.7139,0.7139,0.7139,0.7139,0.7139,0.7139,0.7139,0.7139,0.7139,0.7139,0.7139,0.7139,0.7139,0.7139,0.7139,0.7139,0.7139,0.7126,0.7088,0.7115,0.7126,0.7088,0.7115,0.7102,0.6997,0.6987,0.6987,0.6987,0.6953,0.699,0.7132,0.7102,0.7099,0.7139,0.7102,0.7034,0.6929,0.6805,0.6417,0.0,0.0,0.0,0.0,0.0,0.0,0.0,0.0,0.0,0.0,0.0,0.0,0.0,0.0,0.0,0.0,0.0,0.0,0.0,0.0,0.0,0.0,0.6919,0.7017,0.7017,0.7088,0.7139,0.7139,0.7139,0.7139,0.7139,0.7139,0.7139,0.7139,0.7139,0.7139,0.7139,0.7139,0.7139,0.7139,0.7139,0.7139,0.7139,0.7139,0.7139,0.7139,0.7139,0.7139,0.7139,0.7139,0.7139,0.7139,0.7139,0.7139,0.7139,0.7139,0.7139,0.7139,0.0,0.0,0.0,0.0,0.7139,0.7139,0.7139,0.7139,0.7139,0.7139,0.7139,0.7139,0.7139,0.7139,0.7139,0.7139,0.7139,0.7139,0.7139,0.7139,0.7139,0.7139,0.7139,0.7139,0.7139,0.7139,0.7139,0.7139,0.7139,0.0,0.7139,0.7139,0.7122,0.7061,0.7102,0.7119,0.7058,0.7102,0.7109,0.7024,0.7017,0.7017,0.7017,0.6963,0.0,0.0,0.0,0.7051,0.7051,0.7051,0.0,0.0,0.0,0.6638,0.6454,0.6329,0.0,0.0,0.082,-0.0,0.0,0.0,0.0,0.0,0.0,0.0,0.0,0.0,0.0,0.0,0.0,0.0,0.0,0.0,0.0,0.0,0.7048,0.7139,0.7139,0.7139,0.7139,0.7139,0.7139,0.7139,0.7139,0.7139,0.7139,0.7139,0.7139,0.7139,0.7139,0.0,0.0,0.0,0.0,0.7139,0.7139,0.7139,0.7139,0.7139,0.7139,0.7139,0.7139,0.7139,0.7139,0.7139,0.7139,0.7139,0.7139,0.7139,0.7139,0.7139,0.7139,0.7139,0.7139,0.7139,0.7139,0.7139,0.7139,0.0,0.0,0.7139,0.7139,0.7139,0.7139,0.7139,0.7139,0.7139,0.7139,0.7139,0.7139,0.7139,0.7139,0.7139,0.7139,0.7139,0.7139,0.7139,0.7139,0.7139,0.7139,0.7139,0.7139,0.7139,0.7099,0.697,0.7058,0.7095,0.697,0.7061,0.7136,0.7115,0.7115,0.0,0.7115,0.7,0.699,0.7132,0.7021,0.6953,0.6953,0.6953,0.6953,0.6953,0.6671,0.6583,0.6702,0.643,0.6291,0.6193,0.2242,0.0223,0.0,0.0,0.0,0.0,0.0,0.0,0.0,0.0,0.0,0.0,0.0,0.0,0.0,0.0,0.0,0.6922,0.7048,0.7139,0.7139,0.7139,0.7139,0.7139,0.7139,0.7139,0.7139,0.7139,0.7139,0.7139,0.7139,0.7139,0.7139,0.7139,0.7139,0.7139,0.7139,0.7139,0.7139,0.7139,0.7139,0.7139,0.7139,0.0,0.7139,0.7139,0.7139,0.7139,0.7139,0.7139,0.7139,0.7139,0.7139,0.7139,0.7139,0.7139,0.7139,0.7139,0.7139,0.7139,0.7139,0.7139,0.7139,0.7139,0.7139,0.7139,0.7139,0.7139,0.0,0.7139,0.7139,0.7139,0.7139,0.7139,0.7139,0.7139,0.7139,0.7139,0.7139,0.7139,0.7139,0.7139,0.7139,0.7139,0.7139,0.7139,0.7132,0.7102,0.7122,0.7129,0.7102,0.7122,0.7095,0.6983,0.697,0.697,0.697,0.6946,0.699,0.7132,0.7112,0.7099,0.7099,0.7099,0.7099,0.7099,0.6929,0.6793,0.6702,0.6522,0.638,0.6274,0.3716,0.1623,0.0,0.0,0.0,0.0,0.0,0.0,0.0,0.0,0.0,0.0,0.0,0.6722,0.0,0.0,0.6953,0.7024,0.7095,0.7139,0.7139,0.7139,0.7139,0.7139,0.7139,0.7139,0.7139,0.7139,0.7139,0.7139,0.7139,0.7139,0.7139,0.7139,0.7139,0.7139,0.7139,0.7139,0.7139,0.7139,0.7139,0.7139,0.7139,0.7139,0.7139,0.7139,0.7139,0.7139,0.7139,0.7139,0.7139,0.7139,0.7139,0.7139,0.7139,0.7139,0.7139,0.7139,0.7139,0.7139,0.7139,0.7139,0.7139,0.7139,0.7139,0.7139,0.7139,0.7139,0.7139,0.7139,0.7139,0.7139,0.7139,0.7139,0.7139,0.7139,0.7139,0.7139,0.7139,0.7139,0.7139,0.7139,0.7139,0.7139,0.7139,0.7139,0.7139,0.7139,0.7139,0.7139,0.7139,0.7139,0.7112,0.7041,0.7034,0.7034,0.7034,0.7034,0.7065,0.7136,0.7139,0.7139,0.7139,0.7139,0.7139,0.7139,0.7,0.6854,0.6702,0.6549,0.6403,0.6268,0.5237,0.4144,0.0,0.0,0.0,0.0,0.0,0.0,0.0,0.0,0.6603,0.6756,0.6787,0.6824,0.6946,0.697,0.7007,0.7122,0.7139,0.7139,0.7139,0.7139,0.7139,0.7139,0.7139,0.7139,0.7139,0.7139,0.7139,0.7139,0.7139,0.7139,0.7139,0.7139,0.7139,0.7139,0.7139,0.7139,0.7139,0.7139,0.7139,0.7139,0.7139,0.7139,0.7139,0.7139,0.7139,0.7139,0.7139,0.7139,0.7139,0.7139,0.7139,0.7139,0.7139,0.7139,0.7139,0.7139,0.7139,0.7139,0.7139,0.7139,0.7139,0.7139,0.7139,0.7139,0.7139,0.7139,0.7139,0.7139,0.7139,0.7139,0.7139,0.7139,0.7139,0.7139,0.7139,0.7139,0.7139,0.7139,0.7139,0.7139,0.7139,0.7139,0.7139,0.7139,0.7139,0.7139,0.7139,0.7139,0.7139,0.7139,0.7139,0.7139,0.7139,0.7139,0.7139,0.7139,0.7139,0.7139,0.7139,0.7139,0.7139,0.7139,0.7139,0.7139,0.7027,0.6895,0.6746,0.659,0.6441,0.6302,0.6352,0.6271,0.6958,0.6688,0.7002,0.8093,0.7484,0.7072,0.0,0.0,0.6919,0.7061,0.7092,0.7095,0.7112,0.7115,0.7122,0.7139,0.7139,0.7139,0.7139,0.7139,0.7139,0.7139,0.7139,0.7139,0.7139,0.7139,0.7139,0.7139,0.7139,0.7139,0.7139,0.7139,0.7139,0.7139,0.7139,0.7139,0.7139,0.7139,0.7139,0.7139,0.7139,0.7139,0.7139,0.7139,0.7139,0.7139,0.7139,0.7139,0.7139,0.7139,0.7139,0.7139,0.7139,0.7139,0.7139,0.7139,0.7139,0.7139,0.7139,0.7139,0.7139,0.7139,0.7139,0.7139,0.7139,0.7139,0.7139,0.7139,0.7139,0.7139,0.7139,0.7139,0.7139,0.7139,0.7139,0.7139,0.7139,0.7139,0.7139,0.7139,0.7139,0.7139,0.7139,0.7139,0.7139,0.7139,0.7139,0.7139,0.7139,0.7139,0.7139,0.7139,0.7139,0.7139,0.7139,0.7139,0.7139,0.7139,0.7139,0.7139,0.7139,0.7139,0.7139,0.7139,0.7126,0.7048,0.6902,0.6749,0.6597,0.6444,0.6318,0.6268,0.9883,0.9516,0.0,0.0,0.9639,0.9025,0.9535,0.8751,0.7815,0.7197,0.7139,0.7139,0.7139,0.7139,0.7139,0.0,0.7139,0.7139,0.7139,0.7139,0.7139,0.7139,0.7139,0.7139,0.7139,0.7139,0.7139,0.7139,0.7139,0.7139,0.7139,0.7139,0.7139,0.7139,0.7139,0.7139,0.7139,0.7139,0.7139,0.7139,0.7139,0.7139,0.7139,0.7139,0.7139,0.7139,0.7139,0.7489,0.8193,0.8193,0.8536,0.9139,0.9139,0.9139,0.8965,0.7573,0.7139,0.7139,0.7139,0.7139,0.7139,0.7139,0.7139,0.7139,0.7139,0.7139,0.7139,0.7139,0.7139,0.7139,0.7139,0.7139,0.7139,0.7139,0.7139,0.7139,0.7139,0.7139,0.7139,0.7139,0.7139,0.7139,0.7139,0.7139,0.7139,0.7139,0.7139,0.7139,0.7139,0.7139,0.7139,0.7139,0.7139,0.7139,0.7139,0.7139,0.7139,0.7139,0.7139,0.7139,0.7139,0.7139,0.7139,0.7139,0.7139,0.7068,0.6929,0.6776,0.662,0.6468,0.6325,0.6264,1.1427,0.0,0.0,1.1381,1.0993,1.0452,1.0373,0.9781,0.8974,0.8245,0.8097,0.8097,0.8097,0.7837,0.7577,0.7577,0.7577,0.7492,0.7139,0.7404,0.7492,0.7139,0.7139,0.7139,0.7139,0.7139,0.7139,0.7139,0.7139,0.7139,0.7139,0.7139,0.7139,0.7139,0.7139,0.7139,0.7139,0.7404,0.7577,0.7577,0.7577,0.7749,0.8097,0.8097,0.8097,0.8097,0.8097,0.8532,0.9405,0.9405,0.9836,1.0611,1.0611,1.0611,1.0351,0.8703,0.8097,0.8097,0.8097,0.8097,0.8097,0.8097,0.8097,0.8097,0.8097,0.8097,0.8009,0.7665,0.7577,0.7492,0.7228,0.7139,0.7139,0.7139,0.7139,0.7139,0.7139,0.7404,0.7489,0.7139,0.7404,0.7489,0.7139,0.7139,0.7139,0.7139,0.7139,0.7139,0.7139,0.7139,0.7139,0.7139,0.7139,0.7139,0.7139,0.7139,0.7139,0.7139,0.7139,0.7139,0.7139,0.7139,0.7139,0.7139,0.7139,0.7088,0.6987,0.6837,0.6685,0.6532,0.6386,0.6298,0.0,0.0,0.9994,1.0383,1.0524,1.06,1.06,1.06,1.0514,1.0524,1.0524,1.0524,1.0524,0.9579,0.8803,0.8803,0.8803,0.8452,0.7228,0.8105,0.8452,0.7228,0.7139,0.7139,0.0,0.7139,0.7139,0.7139,0.7139,0.7139,0.7139,0.7139,0.7139,0.7139,0.7139,0.7139,0.7139,0.8277,0.8803,0.8803,0.8803,0.9405,1.0524,1.0524,1.0524,1.0524,1.0524,1.0524,1.0524,1.0524,1.0611,1.0611,1.0611,1.0611,1.0611,1.0524,1.0524,1.0524,1.0524,1.0524,1.0524,1.0524,1.0524,1.0524,1.0524,1.0524,1.0265,0.9148,0.8803,0.854,0.7401,0.7139,0.7139,0.7139,0.7139,0.7139,0.7139,0.8017,0.854,0.7316,0.8017,0.8452,0.7316,0.7139,0.7139,0.7139,0.7139,0.7139,0.7139,0.7139,0.7139,0.7139,0.7139,0.7139,0.7139,0.7139,0.7139,0.7139,0.7139,0.7139,0.7139,0.7139,0.7139,0.7139,0.7139,0.7139,0.7132,0.699,0.6844,0.6692,0.6536,0.6393,0.0,0.0,1.2474,1.2745,1.2886,1.2693,1.1901,1.1724,1.1466,1.0783,1.0494,1.0309,1.0309,1.0059,0.9804,0.9804,0.9919,0.9923,0.9483,0.9749,0.9575,0.8452,0.8277,0.0,0.0,0.0,0.0,0.7139,0.7139,0.7139,0.7139,0.7139,0.7492,0.8277,0.8476,0.8978,0.9771,1.0353,1.06,1.06,1.0459,1.0568,1.0916,1.0676,1.0611,1.0611,1.0611,1.1037,1.1724,1.1724,1.2163,1.2954,1.2954,1.2954,1.2954,1.2954,1.2954,1.2693,1.1128,1.0611,1.0611,1.0611,1.0611,1.0611,1.0611,1.0611,1.0524,1.0183,0.9492,0.8803,0.8364,0.7665,0.7139,0.7139,0.7139,0.7139,0.7139,0.7404,0.7841,0.8189,0.8017,0.7841,0.8189,0.7665,0.7139,0.7139,0.7139,0.7139,0.7139,0.7139,0.7139,0.7139,0.7139,0.7139,0.7139,0.7139,0.7139,0.7139,0.7139,0.7139,0.7139,0.7139,0.7139,0.7139,0.7139,0.7139,0.7139,0.6997,0.6851,0.6698,0.6546,0.6396,1.3253,1.35,1.3714,1.4015,1.4088,1.3913,1.3118,1.2942,1.2772,1.1992,1.1629,1.1372,1.1372,1.1117,1.0757,1.0672,1.0852,1.0745,0.9895,1.0152,0.9924,0.8444,0.8277,0.7929,0.0,0.0,0.0,0.7139,0.7139,0.7316,0.7753,0.7753,0.8304,0.9684,0.9807,1.0357,1.124,1.1844,1.2102,1.2102,1.24,1.2238,1.1869,1.1981,1.1956,1.195,1.186,1.2254,1.2942,1.2942,1.3385,1.4088,1.4088,1.4088,1.4088,1.4088,1.4088,1.3913,1.2345,1.1826,1.1826,1.1826,1.1826,1.1826,1.1826,1.1826,1.1735,1.13,1.0697,0.9923,0.9148,0.8364,0.7665,0.7228,0.7139,0.7228,0.7665,0.8097,0.8619,0.9318,0.9226,0.9048,0.9405,0.8882,0.8185,0.7841,0.7753,0.7577,0.7139,0.7139,0.7139,0.7139,0.7139,0.7139,0.7139,0.7139,0.7139,0.7139,0.7139,0.7139,0.7139,0.7139,0.7139,0.7139,0.7139,0.7139,0.7139,0.7048,0.6926,0.6776,0.6624,0.6474,1.3487,1.3572,1.3734,1.4015,1.4088,1.4088,1.4088,1.4088,1.4082,1.4068,1.3828,1.3614,0.0,0.0,1.1846,1.1605,1.1793,1.1216,0.9043,0.9714,0.9616,0.0,0.0,0.0,0.0,0.0,0.0,0.7312,0.0,0.7753,0.889,0.8978,0.9671,1.1112,1.1222,1.1336,1.1747,1.278,1.3344,1.3344,1.4437,1.443,1.332,1.4134,1.4536,1.4502,1.4229,1.4102,1.4088,1.4088,1.4088,1.4088,1.4088,1.4088,1.4088,1.4088,1.4088,1.4088,1.4088,1.4088,1.4088,1.4088,1.4088,1.4088,1.4088,1.4088,1.3822,1.2681,1.2328,1.1809,0.9666,0.9065,0.8715,0.7577,0.7228,0.7492,0.8715,0.9753,1.0524,1.0697,1.1552,1.1901,1.0783,1.0611,1.0269,0.9148,0.8978,0.854,0.7228,0.7139,0.7139,0.7139,0.7139,0.7139,0.7139,0.7139,0.7139,0.7139,0.7139,0.7139,0.7139,0.7139,0.7139,0.7139,0.7139,0.7139,0.7139,0.7139,0.7068,0.6926,0.6773,0.6617,1.3601,1.3808,1.3988,1.4068,1.4088,1.4088,1.4088,1.4088,1.4021,1.3801,1.3527,1.3253,0.0,0.0,0.0,1.281,1.3212,0.0,1.2765,1.294,0.0,1.1112,0.0,1.06,0.9831,0.9744,0.0,0.0,0.8882,0.8973,1.0091,1.0183,1.0799,1.2352,1.2551,1.3235,1.4431,1.4926,1.513,1.513,1.5292,1.5101,1.4806,1.4887,1.473,1.4516,1.4442,1.4282,1.4088,1.4088,1.4088,1.4088,1.4088,1.4088,1.4088,1.4088,1.4088,1.4088,1.4088,1.4088,1.4088,1.4088,1.4088,1.4088,1.4088,1.4088,1.3997,1.373,1.3027,1.2157,1.1552,1.0783,1.0091,0.9744,0.9056,0.8798,0.9923,0.9753,0.9836,1.1552,1.2072,1.1901,1.0783,1.0611,1.0524,1.0178,1.0183,0.9401,0.7401,0.7139,0.7139,0.7139,0.7139,0.7139,0.7139,0.7139,0.7139,0.7139,0.7139,0.7139,0.7139,0.7139,0.7139,0.7139,0.7139,0.7139,0.7139,0.7139,0.7068,0.6926,0.6773,0.6617,1.3801,1.3961,1.4088,1.4088,1.4088,1.4055,1.3921,1.3895,1.3808,1.3514,1.3213,0.0,0.0,0.0,0.0,0.0,0.0,0.0,1.3201,1.3111,1.2728,0.0,1.1552,0.0,1.0697,1.0611,1.0783,0.0,1.0265,1.0178,1.1295,1.1381,1.2014,1.3517,1.3798,1.4513,1.5585,1.5745,1.5832,1.5825,1.5665,1.5585,1.5578,1.5284,1.4997,1.471,1.4576,1.4355,1.4088,1.4088,1.4088,1.4088,1.4088,1.4088,1.4088,1.4088,1.4088,1.4088,1.4088,1.4088,1.4088,1.4088,1.4088,1.4088,1.4088,1.4088,1.4088,1.4088,1.3646,1.2942,1.2413,1.1809,1.1209,1.0697,1.0091,0.9923,1.1123,1.0869,1.0956,1.2772,1.3112,1.2857,1.2254,1.2174,1.1992,1.1466,1.1381,1.0692,0.8877,0.8185,0.7929,0.7929,0.7404,0.7139,0.7139,0.7139,0.7139,0.7139,0.7139,0.7139,0.7139,0.7139,0.7139,0.7139,0.7139,0.7139,0.7139,0.7139,0.7099,0.7017,0.6868,0.6719,1.4015,1.4088,1.4088,1.4088,1.4088,1.4008,1.3707,1.3559,1.3547,1.322,0.0,1.2808,1.2768,1.2939,1.3073,1.2923,0.0,1.3231,1.233,1.2171,1.1914,1.1193,1.1042,1.1042,1.1042,1.1042,1.1472,1.2504,1.1643,1.1472,1.2504,1.2504,1.3151,1.4422,1.4843,1.5264,1.5765,1.5812,1.5832,1.5832,1.5832,1.5832,1.5818,1.5571,1.5277,1.495,1.4689,1.4389,1.4088,1.4088,1.4088,1.4088,1.4088,1.4088,1.4088,1.4088,1.4088,1.4088,1.4088,1.4088,1.4088,1.4088,1.4088,1.4088,1.4088,1.4088,1.4088,1.4088,1.4088,1.3822,1.2851,1.2504,1.2328,1.13,1.0956,1.1123,1.2328,1.2504,1.2851,1.3913,1.4088,1.4088,1.4088,1.4088,1.373,1.2674,1.2504,1.2157,1.1214,0.9923,0.9061,0.889,0.7929,0.7316,0.7139,0.7139,0.7139,0.7139,0.7139,0.7139,0.7139,0.7139,0.7139,0.7139,0.7139,0.7139,0.7139,0.7139,0.7139,0.7136,0.6993,0.6858,1.4075,1.4088,1.4088,1.4088,1.4088,1.4008,1.3707,1.3559,0.0,0.0,0.0,1.2748,1.2425,1.2625,0.0,1.3093,0.0,0.0,0.0,0.0,1.3678,0.0,0.0,0.0,0.0,0.0,0.0,0.0,1.3561,1.3561,1.3822,1.3822,1.4045,1.4509,1.5044,1.5371,1.5471,1.5712,1.5832,1.5832,1.5832,1.5832,1.5832,1.5778,1.5464,1.4963,1.491,1.4583,1.4088,1.4088,1.4088,1.4088,1.4088,1.4088,1.4088,1.4088,1.4088,1.4088,1.4088,1.4088,1.4088,1.4088,1.4088,1.4088,1.4088,1.4088,1.4088,1.4088,1.4088,1.4082,1.3822,1.3822,1.373,1.3561,1.2772,1.2334,1.3555,1.3822,1.3822,1.4088,1.4088,1.4088,1.4088,1.4088,1.4004,1.3822,1.3822,1.3737,1.3561,1.1649,0.9923,0.8978,0.8715,0.8189,0.7228,0.7139,0.7139,0.7139,0.7139,0.7139,0.7139,0.7139,0.7139,0.7139,0.7139,0.7139,0.7139,0.7139,0.7139,0.7136,0.6993,0.6915,1.4088,1.4088,1.4088,1.4088,1.4088,1.3968,1.352,0.0,0.0,0.0,1.2518,1.2472,1.2325,0.0,0.0,0.0,0.0,0.0,0.0,0.0,0.0,0.0,0.0,0.0,0.0,0.0,0.0,0.0,1.4088,1.4088,1.4088,1.4088,1.4222,1.4509,1.4943,1.5244,1.5398,1.5685,1.5832,1.5832,1.5832,1.5832,1.5825,1.5671,1.5371,1.4957,1.4803,1.4489,1.4088,1.4088,1.4088,1.4088,1.4088,1.4088,1.4088,1.4088,1.4088,1.4088,1.4088,1.4088,1.4088,1.4088,1.4088,1.4088,1.4088,1.4088,1.4088,1.4088,1.4088,1.4088,1.4088,1.4088,1.4088,1.4088,1.3646,1.3385,1.3997,1.4088,1.4088,1.4088,1.4088,1.4088,1.4088,1.4088,1.4088,1.4088,1.4088,1.4088,1.4088,1.3124,1.1997,1.0783,0.9579,0.8627,0.8101,0.7489,0.7139,0.7139,0.7139,0.7404,0.8017,0.8013,0.8273,0.8877,0.8965,0.8965,0.8877,0.836,0.8013,0.8013,0.733,0.7,1.4068,1.4088,1.4088,1.4088,1.4088,1.3935,1.3347,1.3213,0.0,0.0,1.2305,1.2305,1.2305,0.0,0.0,0.0,0.0,0.0,0.0,0.0,0.0,0.0,0.0,0.0,0.0,0.0,0.0,0.0,1.4088,1.4088,1.4088,1.4088,1.4195,1.4422,1.4776,1.507,1.5304,1.5651,1.5832,1.5832,1.5832,1.5832,1.5818,1.5531,1.5237,1.495,1.4649,1.4355,1.4088,1.4088,1.4088,1.4088,1.4088,1.4088,1.4088,1.4088,1.4088,1.4088,1.4088,1.4088,1.4088,1.4088,1.4088,1.4088,1.4088,1.4088,1.4088,1.4088,1.4088,1.4088,1.4088,1.4088,1.4088,1.4088,1.4088,1.4088,1.4088,1.4088,1.4088,1.4088,1.4088,1.4088,1.4088,1.4088,1.4088,1.4088,1.4088,1.4088,1.4088,1.4088,1.373,1.2766,1.0869,0.9492,0.9323,0.836,0.7837,0.7837,0.7837,0.8273,0.9235,0.9235,0.9666,1.0611,1.0611,1.0611,1.0611,0.9662,0.9235,0.9235,0.8273,0.777,1.4015,1.4088,1.4088,1.4088,1.4088,1.3935,1.3347,0.0,0.0,1.2432,1.2305,1.2305,1.2305,1.2325,0.0,0.0,0.0,0.0,0.0,0.0,0.0,0.0,0.0,0.0,0.0,0.0,0.0,0.0,1.4088,1.4088,1.4088,1.4088,1.4095,1.4128,1.4669,1.4977,1.5003,1.5551,1.5832,1.5832,1.5832,1.5832,1.5818,1.5531,1.5237,1.495,1.4649,1.4355,1.4088,1.4088,1.4088,1.4088,1.4088,1.4088,1.4088,1.4088,1.4088,1.4088,1.4088,1.4088,1.4088,1.4088,1.4088,1.4088,1.4088,1.4088,1.4088,1.4088,1.4088,1.4088,1.4088,1.4088,1.4088,1.4088,1.4088,1.4088,1.4088,1.4088,1.4088,1.4088,1.4088,1.4088,1.4088,1.4088,1.4088,1.4088,1.4088,1.4088,1.4088,1.4088,1.4088,1.3913,1.2772,1.1558,1.0524,1.0351,1.0265,1.0265,1.0265,1.0351,1.0438,1.0438,1.0524,1.0611,1.0611,1.0611,1.0611,1.0524,1.0438,1.0438,1.0351,1.0255,1.4008,1.4088,1.4088,1.4088,1.3955,1.3714,1.3307,0.0,0.0,1.2392,1.2305,1.2305,1.2305,1.2305,1.2338,0.0,0.0,0.0,0.0,0.0,0.0,0.0,0.0,0.0,0.0,0.0,0.0,1.4088,1.4088,1.4088,1.4088,1.4088,1.4088,1.4088,1.4482,1.4783,1.4963,1.5364,1.5658,1.5832,1.5832,1.5738,1.5558,1.5264,1.4977,1.4676,1.4389,1.4195,1.4088,1.4088,1.4088,1.4088,1.4088,1.4088,1.4088,1.4088,1.4088,1.4088,1.4088,1.4088,1.4088,1.4088,1.4088,1.4088,1.4088,1.4088,1.4088,1.4088,1.4088,1.4088,1.4088,1.4088,1.4088,1.4088,1.4088,1.4088,1.4088,1.4088,1.4088,1.4088,1.4088,1.4088,1.4088,1.4088,1.4088,1.4088,1.4088,1.4088,1.4088,1.4088,1.4088,1.4088,1.3027,1.2151,1.1638,1.095,1.0611,1.0611,1.0611,1.0869,1.1552,1.1638,1.1986,1.2693,1.2693,1.2693,1.2693,1.1992,1.1638,1.1638,1.0956,1.0611,1.3874,1.4021,1.4088,1.4088,1.3868,1.3567,0.0,0.0,0.0,1.2365,1.2305,1.2305,1.2305,1.2305,1.2305,0.0,0.0,1.2721,0.0,0.0,0.0,0.0,0.0,0.0,0.0,0.0,0.0,1.4088,1.4088,1.4088,1.4088,1.4088,1.4088,1.4088,1.4369,1.4623,1.483,1.5211,1.5498,1.5705,1.5705,1.5591,1.5384,1.5003,1.4716,1.4502,1.4215,1.4088,1.4088,1.4088,1.4088,1.4088,1.4088,1.4088,1.4088,1.4088,1.4088,1.4088,1.4088,1.4088,1.4088,1.4088,1.4088,1.4088,1.4088,1.4088,1.4088,1.4088,1.4088,1.4088,1.4088,1.4088,1.4088,1.4088,1.4088,1.4088,1.4088,1.4088,1.4088,1.4088,1.4088,1.4088,1.4088,1.4088,1.4088,1.4088,1.4088,1.4088,1.4088,1.4088,1.4088,1.4088,1.3379,1.2851,1.2851,1.2077,1.1649,1.1649,1.1649,1.1992,1.2766,1.2851,1.3203,1.4088,1.4088,1.4088,1.4088,1.3294,1.2851,1.2851,1.1992,1.1649,1.3567,1.3861,1.4088,1.4088,1.3868,1.3567,0.0,0.0,1.2735,1.2365,1.2305,1.2305,1.2305,1.2305,1.2305,1.2305,1.2305,1.2412,1.2782,0.0,0.0,0.0,0.0,0.0,0.0,0.0,0.0,1.4088,1.4088,0.0,1.4088,1.4088,1.4088,1.4088,1.4369,1.4522,1.4522,1.5104,1.5398,1.5398,1.5398,1.5398,1.5378,1.479,1.4522,1.4502,1.4215,1.4088,1.4088,1.4088,1.4088,1.4088,1.4088,1.4088,1.4088,1.4088,1.4088,1.4088,1.4088,1.4088,1.4088,1.4088,1.4088,1.4088,1.4088,1.4088,1.4088,1.4088,1.4088,1.4088,1.4088,1.4088,1.4088,1.4088,1.4088,1.4088,1.4088,1.4088,1.4088,1.4088,1.4088,1.4088,1.4088,1.4088,1.4088,1.4088,1.4088,1.4088,1.4088,1.4088,1.4088,1.4088,1.4088,1.4088,1.4088,1.4088,1.4088,1.4088,1.4088,1.4088,1.4088,1.4088,1.4088,1.4088,1.4088,1.4088,1.4088,1.4088,1.4088,1.4088,1.4088,1.4088,1.3267,1.342,1.3487,1.3487,1.326,1.3006,1.2913,0.0,1.2418,1.2318,1.2305,1.2305,1.2305,1.2305,1.2305,1.2305,1.2305,1.2338,1.2425,0.0,0.0,0.0,0.0,0.0,0.0,0.0,1.4088,1.4088,1.4088,1.4088,1.4088,1.4088,1.4088,1.4088,1.4175,1.4315,1.4516,1.4703,1.4903,1.5104,1.5104,1.4997,1.479,1.4603,1.4409,1.4222,1.4128,1.4088,1.4088,1.4088,1.4088,1.4088,1.4088,1.4088,1.4088,1.4088,1.4088,1.4088,1.4088,1.4088,1.4088,1.4088,1.4088,1.4088,1.4088,1.4088,1.4088,1.4088,1.4088,1.4088,1.4088,1.4088,1.4088,1.4088,1.4088,1.4088,1.4088,1.4088,1.4088,1.4088,1.4088,1.4088,1.4088,1.4088,1.4088,1.4088,1.4088,1.4088,1.4088,1.4088,1.4088,1.4088,1.4088,1.4088,1.4088,1.4088,1.4088,1.4088,1.4088,1.4088,1.4088,1.4088,1.4088,1.4088,1.4088,1.4088,1.4088,1.4088,1.4088,1.4088,1.4088,1.4088,0.0,1.312,1.3213,1.3213,1.2973,0.0,0.0,0.0,1.2305,1.2305,1.2305,1.2305,1.2305,1.2305,1.2305,1.2305,1.2305,1.2345,1.2452,0.0,0.0,0.0,0.0,0.0,0.0,0.0,1.4088,1.4088,1.4088,1.4088,1.4088,1.4088,1.4088,1.4088,1.4088,1.4175,1.4355,1.4469,1.4609,1.4796,1.4796,1.4696,1.4516,1.4409,1.4255,1.4088,1.4088,1.4088,0.0,1.4088,1.4088,1.4088,1.4088,1.4088,1.4088,1.4088,1.4088,1.4088,1.4088,1.4088,1.4088,1.4088,1.4088,1.4088,1.4088,1.4088,1.4088,1.4088,1.4088,1.4088,1.4088,1.4088,1.4088,1.4088,1.4088,1.4088,1.4088,1.4088,1.4088,1.4088,1.4088,1.4088,1.4088,1.4088,1.4088,1.4088,1.4088,1.4088,1.4088,1.4088,1.4088,1.4088,1.4088,1.4088,1.4088,1.4088,1.4088,1.4088,1.4088,1.4088,1.4088,1.4088,1.4088,1.4088,1.4088,1.4088,1.4088,1.4088,1.4088,1.4088,1.4088,1.4088,0.0,0.0,0.0,0.0,0.0,0.0,0.0,0.0,0.0,1.2305,1.2305,1.2305,1.2305,1.2305,1.2305,1.2305,1.2305,1.2405,1.2782,0.0,0.0,0.0,0.0,0.0,0.0,1.3915,1.4088,1.4088,1.4088,1.4088,1.4088,1.4088,1.4088,1.4088,1.4088,1.4088,1.4088,1.4355,1.4489,1.4489,1.4489,1.4489,1.4482,1.4208,1.4088,1.4088,1.4088,1.4088,1.4088,1.4088,1.4088,1.4088,1.4088,1.4088,1.4088,1.4088,1.4088,1.4088,1.4088,1.4088,1.4088,1.4088,1.4088,1.4088,1.4088,1.4088,1.4088,1.4088,1.4088,1.4088,1.4088,1.4088,1.4088,1.4088,1.4088,1.4088,1.4088,1.4088,1.4088,1.4088,1.4088,1.4088,1.4088,1.4088,1.4088,1.4088,1.4088,1.4088,1.4088,1.4088,1.4088,1.4088,1.4088,1.4088,1.4088,1.4088,1.4088,1.4088,1.4088,1.4088,1.4088,1.4088,1.4088,1.4088,1.4088,1.4088,1.4088,1.4088,1.4088,1.4088,1.4088,1.4088,1.2385,0.0,1.2518,1.2518,1.2458,0.0,0.0,0.0,0.0,0.0,0.0,0.0,0.0,1.2305,1.2305,1.2305,1.2305,1.2405,1.2782,0.0,0.0,0.0,0.0,0.0,0.0,1.3915,1.4088,1.4088,1.4088,1.4088,1.4088,1.4088,1.4088,1.4088,1.4088,1.4088,1.4088,1.4155,1.4188,1.4188,1.4188,1.4188,1.4188,1.4122,1.4088,1.4088,1.4088,1.4088,1.4088,1.4088,1.4088,1.4088,1.4088,1.4088,1.4088,1.4088,1.4088,1.4088,1.4088,1.4088,1.4088,1.4088,1.4088,1.4088,1.4088,1.4088,1.4088,1.4088,1.4088,1.4088,1.4088,1.4088,1.4088,1.4088,1.4088,1.4088,1.4088,1.4088,1.4088,1.4088,1.4088,1.4088,1.4088,1.4088,1.4088,1.4088,1.4088,1.4088,1.4088,1.4088,1.4088,1.4088,1.4088,1.4088,1.4088,1.4088,1.4088,1.4088,1.4088,1.4088,1.4088,1.4088,1.4088,1.4088,1.4088,1.4088,1.4088,1.4088,1.4088,1.4088,1.4088,1.4088,1.2305,1.2305,1.2305,1.2305,1.2305,1.2305,0.0,0.0,0.0,0.0,0.0,0.0,0.0,0.0,0.0,1.2325,1.2538,1.2779,0.0,0.0,0.0,0.0,0.0,0.0,0.0,1.3988,1.4088,1.4088,1.4088,1.4088,1.4088,1.4088,1.4088,1.4088,1.4088,1.4088,1.4088,1.4088,1.4088,1.4088,1.4088,1.4088,1.4088,1.4088,1.4088,1.4088,1.4088,1.4088,1.4088,1.4088,1.4088,1.4088,1.4088,1.4088,1.4088,1.4088,1.4088,1.4088,1.4088,1.4088,1.4088,1.4088,1.4088,1.4088,1.4088,1.4088,1.4088,1.4088,1.4088,1.4088,1.4088,1.4088,1.4088,1.4088,1.4088,1.4088,1.4088,1.4088,1.4088,1.4088,1.4088,1.4088,1.4088,1.4088,1.4088,1.4088,1.4088,1.4088,1.4088,1.4088,1.4088,1.4088,1.4088,1.4088,1.4088,1.4088,1.4088,1.4088,1.4088,1.4088,1.4088,1.4088,1.4088,1.4088,1.4088,1.4088,1.4088,1.4088,1.4088,1.4088,1.4088,1.4088,1.2305,1.2338,1.2358,1.2311,1.2305,1.2305,0.0,0.0,0.0,0.0,0.0,0.0,0.0,0.0,0.0,0.0,0.0,0.0,0.0,0.0,0.0,0.0,0.0,0.0,1.4001,1.4062,1.4088,1.4088,1.4088,1.4088,1.4088,1.4088,1.4088,1.4088,1.4088,1.4088,1.4088,1.4088,1.4088,1.4088,1.4088,1.4088,1.4088,1.4088,1.4088,1.4088,1.4088,1.4088,1.4088,1.4088,1.4088,1.4088,1.4088,1.4088,1.4088,1.4088,1.4088,1.4088,1.4088,1.4088,1.4088,1.4088,1.4088,1.4088,1.4088,1.4088,1.4088,1.4088,1.4088,1.4088,1.4088,1.4088,1.4088,1.4088,1.4088,1.4088,1.4088,1.4088,1.4088,1.4088,1.4088,1.4088,1.4088,1.4088,1.4088,1.4088,1.4088,1.4088,1.4088,1.4088,1.4088,1.4088,1.4088,1.4088,1.4088,1.4088,1.4088,1.4088,1.4088,1.4088,1.4088,1.4088,1.4088,1.4088,1.4088,1.4088,1.4088,1.4088,1.4088,1.4088,1.4088,1.4088,1.2305,1.2485,1.2694,1.2365,1.2305,1.2305,0.0,0.0,0.0,0.0,0.0,0.0,0.0,0.0,0.0,0.0,0.0,0.0,0.0,0.0,0.0,0.0,0.0,1.3941,1.3734,1.3941,1.4088,1.4088,1.4088,1.4088,1.4088,1.4088,1.4088,1.4088,1.4088,1.4088,1.4088,1.4088,1.4088,1.4088,1.4088,1.4088,1.4088,1.4088,1.4088,1.4088,1.4088,1.4088,1.4088,1.4088,1.4088,1.4088,1.4088,1.4088,1.4088,1.4088,1.4088,1.4088,1.4088,1.4088,1.4088,1.4088,1.4088,1.4088,1.4088,1.4088,1.4088,1.4088,1.4088,1.4088,1.4088,1.4088,1.4088,1.4088,1.4088,1.4088,1.4088,1.4088,1.4088,1.4088,1.4088,1.4088,1.4088,1.4088,1.4088,1.4088,1.4088,1.4088,1.4088,1.4088,1.4088,1.4088,1.4088,1.4088,1.4088,1.4088,1.4088,1.4088,1.4088,1.4088,1.4088,1.4088,1.4088,1.4088,1.4088,1.4088,1.4088,1.4088,1.4088,1.4088,1.4088,1.4088,1.2305,1.2405,1.2662,1.3273,1.3113,1.2792,0.0,0.0,0.0,0.0,0.0,0.0,0.0,0.0,0.0,0.0,0.0,0.0,0.0,0.0,0.0,0.0,0.0,1.3854,1.3881,1.4008,1.4088,1.4088,1.4088,1.4088,1.4088,1.4088,1.4088,1.4088,1.4088,1.4088,1.4088,1.4088,1.4088,1.4088,1.4088,1.4088,1.4088,1.4088,1.4088,1.4088,1.4088,1.4088,1.4088,1.4088,1.4088,1.4088,1.4088,1.4088,1.4088,1.4088,1.4088,1.4088,1.4088,1.4088,1.4088,1.4088,1.4088,1.4088,1.4088,1.4088,1.4088,1.4088,1.4088,1.4088,1.4088,1.4088,1.4088,1.4088,1.4088,1.4088,1.4088,1.4088,1.4088,1.4088,1.4088,1.4088,1.4088,1.4088,1.4088,1.4088,1.4088,1.4088,1.4088,1.4088,1.4088,1.4088,1.4088,1.4088,1.4088,1.4088,1.4088,1.4088,1.4088,1.4088,1.4088,1.4088,1.4088,1.4088,1.4088,1.4088,1.4088,1.4088,1.4088,1.4088,1.4088,1.4088,1.2666,1.2721,1.2973,0.0,0.0,0.0,0.0,0.0,0.0,0.0,0.0,0.0,0.0,0.0,0.0,0.0,0.0,0.0,0.0,0.0,1.35,1.3721,1.3748,1.3834,1.4068,1.4088,1.4088,1.4088,1.4088,1.4088,1.4088,1.4088,1.4088,1.4088,1.4088,1.4088,1.4088,1.4088,1.4088,1.4088,1.4088,1.4088,1.4088,1.4088,1.4088,1.4088,1.4088,1.4088,1.4088,1.4088,1.4088,1.4088,1.4088,1.4088,1.4088,1.4088,1.4088,1.4088,1.4088,1.4088,1.4088,1.4088,1.4088,1.4088,1.4088,1.4088,1.4088,1.4088,1.4088,1.4088,1.4088,1.4088,1.4088,1.4088,1.4088,1.4088,1.4088,1.4088,1.4088,1.4088,1.4088,1.4088,1.4088,1.4088,1.4088,1.4088,1.4088,1.4088,1.4088,1.4088,1.4088,1.4088,1.4088,1.4088,1.4088,1.4088,1.4088,1.4088,1.4088,1.4088,1.4088,1.4088,1.4088,1.4088,1.4088,1.4088,1.4088,1.4088,1.4088,1.4088,1.4088,1.425,1.36,1.3822,1.3916,1.3113,0.0,0.0,0.0,0.0,0.0,0.0,0.0,0.0,0.0,0.0,0.0,0.0,0.0,0.0,0.0,0.0,1.4035,1.4055,1.4055,1.4062,1.4082,1.4088,1.4088,1.4088,1.4088,1.4088,1.4088,1.4088,1.4088,1.4088,1.4088,1.4088,1.4088,1.4088,1.4088,1.4088,1.4088,1.4088,1.4088,1.4088,1.4088,1.4088,1.4088,1.4088,1.4088,1.4088,1.4088,1.4088,1.4088,1.4088,1.4088,1.4088,1.4088,1.4088,1.4088,1.4088,1.4088,1.4088,1.4088,1.4088,1.4088,1.4088,1.4088,1.4088,1.4088,1.4088,1.4088,1.4088,1.4088,1.4088,1.4088,1.4088,1.4088,1.4088,1.4088,1.4088,1.4088,1.4088,1.4088,1.4088,1.4088,1.4088,1.4088,1.4088,1.4088,1.4088,1.4088,1.4088,1.4088,1.4088,1.4088,1.4088,1.4088,1.4088,1.4088,1.4088,1.4088,1.4088,1.4088,1.4088,1.4088,1.4088,1.4088,1.4088,1.4088,1.4088,1.4088,1.465,1.4665,1.492,0.0,0.0,0.0,0.0,0.0,0.0,0.0,0.0,0.0,0.0,0.0,0.0,0.0,0.0,0.0,0.0,0.0,1.4088,1.4088,1.4088,1.4088,1.4088,1.4088,1.4088,1.4088,1.4088,1.4088,1.4088,1.4088,1.4088,1.4088,1.4088,1.4088,1.4088,1.4088,1.4088,1.4088,1.4088,1.4088,1.4088,1.4088,1.4088,1.4088,1.4088,1.4088,1.4088,1.4088,1.4088,1.4088,1.4088,1.4088,1.4088,1.4088,1.4088,1.4088,1.4088,1.4088,1.4088,1.4088,1.4088,1.4088,1.4088,1.4088,1.4088,1.4088,1.4088,1.4088,1.4088,1.4088,1.4088,1.4088,1.4088,1.4088,1.4088,1.4088,1.4088,1.4088,1.4088,1.4088,1.4088,1.4088,1.4088,1.4088,1.4088,1.4088,1.4088,1.4088,1.4088,1.4088,1.4088,1.4734,1.5387,1.6041,1.6124,1.6124,1.6124,1.4817,1.4088,1.4088,1.4088,1.4088,1.4088,1.4088,1.4088,1.4088,1.4088,1.4088,1.4088,1.4817,1.5296,1.5837,1.6024,0.0,0.0,0.0,0.0,0.0,0.0,0.0,0.0,0.0,0.0,0.0,0.0,0.0,0.0,0.0,0.0,1.4173,1.4088,1.4088,1.4088,1.4088,1.4088,1.4088,1.4088,1.4088,1.4088,1.4088,1.4088,1.4088,1.4088,1.4088,1.4088,1.4088,1.4088,1.4088,1.4088,1.4088,1.4088,1.4088,1.4088,1.4088,1.4088,1.4088,1.4088,1.4088,1.4088,1.4088,1.4088,1.4088,1.4088,1.4088,1.4088,1.4088,1.4088,1.4088,1.4088,1.4088,1.4088,1.4166,1.4489,1.4573,1.4573,1.4573,1.4573,1.4489,1.4166,1.4088,1.4088,1.4088,1.4088,1.4088,1.4088,1.4088,1.4088,1.4088,1.4088,1.4088,1.4088,1.4088,1.4088,1.4088,1.4088,1.4088,1.4088,1.4088,1.425,1.4573,1.4573,1.4734,1.5061,1.5794,1.6519,1.7261,1.7342,1.7342,1.7342,1.5876,1.5151,1.5151,1.5151,1.5151,1.5151,1.5151,1.5151,1.5151,1.5151,1.5151,1.5151,1.5869,1.6437,1.718,1.718,0.0,0.0,0.0,0.0,0.0,0.0,0.0,0.0,0.0,0.0,0.0,0.0,0.0,0.0,1.4771,1.5296,1.425,1.4088,1.4088,1.4088,1.4088,1.4088,1.4088,1.4088,1.4088,1.4088,1.4088,1.4088,1.4088,1.4088,1.4088,1.4088,1.4088,1.4088,1.4088,1.4088,1.4088,1.4173,1.4173,1.4088,1.4088,1.4088,1.4088,1.4088,1.4088,1.4088,1.4088,1.4088,1.4088,1.4088,1.4173,1.4173,1.4173,1.4173,1.4173,1.4173,1.4173,1.4173,1.4334,1.5379,1.5696,1.5696,1.5696,1.5696,1.5455,1.4412,1.4088,1.4088,1.4088,1.4088,1.4088,1.4088,1.4088,1.4088,1.4088,1.4088,1.4088,1.4088,1.4088,1.4088,1.4088,1.4088,1.4088,1.4088,1.4088,1.4489,1.5621,1.5696,1.6108,1.7172,1.7334,1.7334,1.7342,1.7334,1.7334,1.7334,1.7334,1.7334,1.7342,1.7342,1.7342,1.7342,1.7342,1.7342,1.7342,1.7342,1.7342,1.7342,1.7334,1.7908,1.777,0.0,0.0,0.0,0.0,0.0,0.0,0.0,0.0,0.0,0.0,0.0,0.0,0.0,0.0,1.6031,1.5805,1.5621,1.5296,1.4573,1.4088,1.4088,1.4088,1.4088,1.4088,1.4088,1.4088,1.4088,1.4817,1.4894,1.4173,1.5553,1.5636,1.4173,1.481,1.522,1.522,1.522,1.5628,1.6363,1.6363,1.5553,1.4088,1.4088,1.4088,1.4173,1.4894,1.4817,1.4166,1.4894,1.522,1.5296,1.6034,1.6363,1.6363,1.6363,1.6363,1.6363,1.6363,1.6363,1.6363,1.6683,1.6846,1.6846,1.6846,1.6846,1.6764,1.6445,1.5794,1.522,1.522,1.4657,1.4088,1.4088,1.4088,1.4088,1.4088,1.4088,1.4088,1.4088,1.4088,1.4088,1.4088,1.4088,1.4088,1.4088,1.4734,1.5621,1.6683,1.6846,1.7253,1.839,1.8479,1.8789,1.9599,1.959,1.959,1.959,1.959,1.8948,1.7334,1.7342,1.7342,1.7342,1.7342,1.7342,1.7342,1.7342,1.7342,1.7334,1.8149,1.8718,1.8672,0.0,0.0,0.0,0.0,0.0,0.0,0.0,0.0,0.0,0.0,0.0,0.0,0.0,0.0,1.7196,1.7024,1.6838,1.6437,1.5794,1.5387,1.5387,1.5387,1.5387,1.5387,1.5387,1.5387,1.5387,1.5951,1.6034,1.5394,1.6609,1.669,1.5387,1.6034,1.6355,1.6355,1.6355,1.6683,1.7342,1.7342,1.6609,1.5387,1.5387,1.5387,1.5394,1.6034,1.5951,1.5387,1.6034,1.6355,1.6437,1.7009,1.7342,1.7342,1.7342,1.7342,1.7342,1.7342,1.7342,1.7334,1.7827,1.7989,1.7989,1.7989,1.7989,1.7908,1.7423,1.6846,1.6355,1.6355,1.5876,1.5144,1.4334,1.4412,1.4734,1.4734,1.5061,1.5387,1.5387,1.5387,1.5387,1.5387,1.5387,1.5387,1.5387,1.6281,1.7245,1.7908,1.839,1.8868,1.952,1.9599,1.9923,2.0566,2.0566,2.0566,2.0566,2.0566,2.0001,1.8709,1.8621,1.8621,1.8621,1.8621,1.8621,1.8621,1.8621,1.8621,1.863,1.9353,1.9599,0.0,0.0,0.0,0.0,0.0,0.0,0.0,0.0,0.0,0.0,0.0,0.0,0.0,0.0,1.8798,1.7747,1.839,1.8638,1.7585,1.7342,1.7342,1.7342,1.7342,1.7342,1.7342,1.7342,1.7342,1.7342,1.7415,1.7423,1.7342,1.7496,1.7496,1.7342,1.7415,1.7423,1.7423,1.7423,1.7496,1.7577,1.7577,1.7577,1.7577,1.7423,1.7334,1.7423,1.7342,1.7334,1.7423,1.7423,1.7423,1.7496,1.7577,1.7577,1.7577,1.7577,1.7577,1.7577,1.7577,1.7577,1.7738,1.8798,1.9125,1.9125,1.9125,1.9125,1.8957,1.7908,1.7496,1.7423,1.7423,1.7415,1.6772,1.4824,1.5137,1.5869,1.5869,1.6601,1.7342,1.7342,1.7342,1.7342,1.7342,1.7342,1.7334,1.7415,1.831,1.9036,1.9116,2.0001,2.0566,2.0566,2.0566,2.0566,2.0566,2.0566,2.0566,2.0566,2.0566,2.0566,2.0566,2.0566,2.0566,2.0566,2.0566,2.0566,2.0566,2.0566,2.0566,2.0566,2.0566,2.0566,0.0,0.0,0.0,0.0,0.0,0.0,0.0,0.0,0.0,0.0,0.0,0.0,0.0,2.0079,2.0167,1.9923,1.9362,1.8877,1.8638,1.7819,1.7342,1.7342,1.7342,1.7342,1.7342,1.7342,1.7342,1.7342,1.8149,1.823,1.7342,1.8948,1.9107,1.7334,1.8149,1.863,1.863,1.863,1.9036,1.9913,1.9913,1.9913,1.9835,1.806,1.7827,1.8559,1.7666,1.7827,1.863,1.863,1.863,1.8718,1.9599,1.9913,1.9913,1.9913,1.9913,1.9913,1.9913,1.9913,1.9923,2.0167,2.0245,2.0245,2.0245,2.0245,2.0167,2.0001,1.9274,1.863,1.863,1.798,1.7172,1.669,1.6764,1.6927,1.6927,1.7172,1.7342,1.7342,1.7342,1.7342,1.7342,1.7342,1.7585,1.8479,1.8877,1.9283,2.0167,2.0479,2.0566,2.0566,2.0566,2.0566,2.0566,2.0566,2.0566,2.0566,2.0566,2.0566,2.0566,2.0566,2.0566,2.0566,2.0566,2.0566,2.0566,2.0566,2.0566,2.0566,2.0566,2.0566,0.0,0.0,0.0,0.0,0.0,0.0,0.0,0.0,0.0,0.0,0.0,0.0,0.0,2.0566,2.0566,2.0566,2.0157,1.9766,1.9766,1.9274,1.8868,1.8868,1.8868,1.8868,1.8868,1.8868,1.8868,1.8868,1.9432,1.952,1.8948,1.9991,2.0079,1.8948,1.9432,1.9766,1.9766,1.9766,2.0079,2.0566,2.0566,2.0566,2.0566,1.9432,1.9195,1.9756,1.9116,1.9195,1.9766,1.9766,1.9766,1.9844,2.0401,2.0566,2.0566,2.0566,2.0566,2.0566,2.0566,2.0566,2.0566,2.0566,2.0566,2.0566,2.0566,2.0566,2.0566,2.0566,2.0167,1.9766,1.9766,1.9353,1.8868,1.8868,1.847,1.8149,1.8149,1.855,1.8868,1.8868,1.8868,1.8868,1.8868,1.8868,1.9107,1.9678,1.9766,2.0001,2.0566,2.0566,2.0566,2.0566,2.0566,2.0566,2.0566,2.0566,2.0566,2.0566,2.0566,2.0566,2.0566,2.0566,2.0566,2.0566,2.0566,2.0566,2.0566,2.0566,2.0566,2.0566,2.0566,2.0566,0.0,0.0,0.0,0.0,0.0,0.0,0.0,0.0,0.0,0.0,0.0,0.0,2.0566,2.0566,2.0566,2.0566,2.0566,2.0566,2.0566,2.0566,2.0566,2.0566,2.0566,2.0566,2.0566,2.0566,2.0566,2.0566,2.0566,2.0566,2.0566,2.0566,2.0566,2.0566,2.0566,2.0566,2.0566,2.0566,2.0566,2.0566,2.0566,2.0566,2.0566,2.0566,2.0566,2.0566,2.0566,2.0566,2.0566,2.0566,2.0566,2.0566,2.0566,2.0566,2.0566,2.0566,2.0566,2.0566,2.0566,2.0566,2.0566,2.0566,2.0566,2.0566,2.0566,2.0566,2.0566,2.0566,2.0566,2.0566,2.0566,2.0566,2.0566,2.0566,1.9923,1.9283,1.9283,2.0001,2.0566,2.0566,2.0566,2.0566,2.0566,2.0566,2.0566,2.0566,2.0566,2.0566,2.0566,2.0566,2.0566,2.0566,2.0566,2.0566,2.0566,2.0566,2.0566,2.0566,2.0566,2.0566,2.0566,2.0566,2.0566,2.0566,2.0566,2.0566,2.0566,2.0566,2.0566,2.0566,2.0566,2.0566,0.0,0.0,0.0,0.0,0.0,0.0,0.0,0.0,0.0,0.0,0.0,0.0,2.0566,2.0566,2.0566,2.0566,2.0566,2.0566,2.0566,2.0566,2.0566,2.0566,2.0566,2.0566,2.0566,2.0566,2.0566,2.0566,2.0566,2.0566,2.0566,2.0566,2.0566,2.0566,2.0566,2.0566,2.0566,2.0566,2.0566,2.0566,2.0566,2.0566,2.0566,2.0566,2.0566,2.0566,2.0566,2.0566,2.0566,2.0566,2.0566,2.0566,2.0566,2.0566,2.0566,2.0566,2.0566,2.0566,2.0566,2.0566,2.0566,2.0566,2.0566,2.0566,2.0566,2.0566,2.0566,2.0566,2.0566,2.0566,2.0566,2.0566,2.0566,2.0566,2.0479,2.0401,2.0401,2.0489,2.0566,2.0566,2.0566,2.0566,2.0566,2.0566,2.0566,2.0566,2.0566,2.0566,2.0566,2.0566,2.0566,2.0566,2.0566,2.0566,2.0566,2.0566,2.0566,2.0566,2.0566,2.0566,2.0566,2.0566,2.0566,2.0566,2.0566,2.0566,2.0566,2.0566,2.0566,2.0566,2.0566,2.0566,0.0,0.0,0.0,0.0,0.0,0.0,0.0,0.0,0.0,0.0,0.0,2.0566,2.0566,2.0566,2.0566,2.0566,2.0566,2.0566,2.0566,2.0566,2.0566,2.0566,2.0566,2.0566,2.0566,2.0566,2.0566,2.0566,2.0566,2.0566,2.0566,2.0566,2.0566,2.0566,2.0566,2.0566,2.0566,2.0566,2.0566,2.0566,2.0566,2.0566,2.0566,2.0566,2.0566,2.0566,2.0566,2.0566,2.0566,2.0566,2.0566,2.0566,2.0566,2.0566,2.0566,2.0566,2.0566,2.0566,2.0566,2.0566,2.0566,2.0566,2.0566,2.0566,2.0566,2.0566,2.0566,2.0566,2.0566,2.0566,2.0566,2.0566,2.0566,2.0566,2.0566,2.0566,2.0566,2.0566,2.0566,2.0566,2.0566,2.0566,2.0566,2.0566,2.0566,2.0566,2.0566,2.0566,2.0566,2.0566,2.0566,2.0566,2.0566,2.0566,2.0566,2.0566,2.0566,2.0566,2.0566,2.0566,2.0566,2.0566,2.0566,2.0566,2.0566,2.0566,2.0566,2.0566,2.0566,2.0566,2.0566,2.0566,0.0,0.0,0.0,0.0,0.0,0.0,0.0,0.0,0.0,0.0,0.0,2.0566,2.0566,2.0566,2.0566,2.0566,2.0566,2.0566,2.0566,2.0566,2.0566,2.0566,2.0566,2.0566,2.0566,2.0566,2.0566,2.0566,2.0566,2.0566,2.0566,2.0566,2.0566,2.0566,2.0566,2.0566,2.0566,2.0566,2.0566,2.0566,2.0566,2.0566,2.0566,2.0566,2.0566,2.0566,2.0566,2.0566,2.0566,2.0566,2.0566,2.0566,2.0566,2.0566,2.0566,2.0566,2.0566,2.0566,2.0566,2.0566,2.0566,2.0566,2.0566,2.0566,2.0566,2.0566,2.0566,2.0566,2.0566,2.0566,2.0566,2.0566,2.0566,2.0566,2.0566,2.0566,2.0566,2.0566,2.0566,2.0566,2.0566,2.0566,2.0566,2.0566,2.0566,2.0566,2.0566,2.0566,2.0566,2.0566,2.0566,2.0566,2.0566,2.0566,2.0566,2.0566,2.0566,2.0566,2.0566,2.0566,2.0566,2.0566,2.0566,2.0566,2.0566,2.0566,2.0566,2.0566,2.0566,2.0566,2.0566,2.0566,0.0,0.0,0.0,0.0,0.0,0.0,0.0,0.0,0.0,0.0,2.0566,2.0566,2.0566,2.0566,2.0566,2.0566,2.0566,2.0566,2.0566,2.0566,2.0566,2.0566,2.0566,2.0566,2.0566,2.0566,2.0566,2.0566,2.0566,2.0566,2.0566,2.0566,2.0566,2.0566,2.0566,2.0566,2.0566,2.0566,2.0566,2.0566,2.0566,2.0566,2.0566,2.0566,2.0566,2.0566,2.0566,2.0566,2.0566,2.0566,2.0566,2.0566,2.0566,2.0566,2.0566,2.0566,2.0566,2.0566,2.0566,2.0566,2.0566,2.0566,2.0566,2.0566,2.0566,2.0566,2.0566,2.0566,2.0566,2.0566,2.0566,2.0566,2.0566,2.0566,2.0566,2.0566,2.0566,2.0566,2.0566,2.0566,2.0566,2.0566,2.0566,2.0566,2.0566,2.0566,2.0566,2.0566,2.0566,2.0566,2.0566,2.0566,2.0566,2.0566,2.0566,2.0566,2.0566,2.0566,2.0566,2.0566,2.0566,2.0566,2.0566,2.0566,2.0566,2.0566,2.0566,2.0566,2.0566,2.0566,2.0566,2.0566,0.0,0.0,0.0,0.0,0.0,0.0,0.0,0.0,0.0,0.0,2.0566,2.0566,2.0566,2.0566,2.0566,2.0566,2.0566,2.0566,2.0566,2.0566,2.0566,2.0566,2.0566,2.0566,2.0566,2.0566,2.0566,2.0566,2.0566,2.0566,2.0566,2.0566,2.0566,2.0566,2.0566,2.0566,2.0566,2.0566,2.0566,2.0566,2.0566,2.0566,2.0566,2.0566,2.0566,2.0566,2.0566,2.0566,2.0566,2.0566,2.0566,2.0566,2.0566,2.0566,2.0566,2.0566,2.0566,2.0566,2.0566,2.0566,2.0566,2.0566,2.0566,2.0566,2.0566,2.0566,2.0566,2.0566,2.0566,2.0566,2.0566,2.0566,2.0566,2.0566,2.0566,2.0566,2.0566,2.0566,2.0566,2.0566,2.0566,2.0566,2.0566,2.0566,2.0566,2.0566,2.0566,2.0566,2.0566,2.0566,2.0566,2.0566,2.0566,2.0566,2.0566,2.0566,2.0566,2.0566,2.0566,2.0566,2.0566,2.0566,2.0566,2.0566,2.0566,2.0566,2.0566,2.0566,2.0566,2.0566,2.0566,2.0566,1.835,0.0,0.0,0.0,0.0,0.0,0.0,0.0,0.0,0.0,2.0566,2.0566,2.0566,2.0566,2.0566,2.0566,2.0566,2.0566,2.0566,2.0566,2.0566,2.0566,2.0566,2.0566,2.0566,2.0566,2.0566,2.0566,2.0566,2.0566,2.0566,2.0566,2.0566,2.0566,2.0566,2.0566,2.0566,2.0566,2.0566,2.0566,2.0566,2.0566,2.0566,2.0566,2.0566,2.0566,2.0566,2.0566,2.0566,2.0566,2.0566,2.0566,2.0566,2.0566,2.0566,2.0566,2.0566,2.0566,2.0566,2.0566,2.0566,2.0566,2.0566,2.0566,2.0566,2.0566,2.0566,2.0566,2.0566,2.0566,2.0566,2.0566,2.0566,2.0566,2.0566,2.0566,2.0566,2.0566,2.0566,2.0566,2.0566,2.0566,2.0566,2.0566,2.0566,2.0566,2.0566,2.0566,2.0566,2.0566,2.0566,2.0566,2.0566,2.0566,2.0566,2.0566,2.0566,2.0566,2.0566,2.0566,2.0566,2.0566,2.0566,2.0566,2.0566,2.0566,2.0566,2.0566,2.0566,2.0566,2.0566,2.0566,0.0,0.0,0.0,0.0,0.0,0.0,0.0,0.0,0.0,0.0,2.0557,2.0566,2.0566,2.0566,2.0566,2.0566,2.0566,2.0566,2.0566,2.0566,2.0566,2.0566,2.0566,2.0566,2.0566,2.0566,2.0566,2.0566,2.0566,2.0566,2.0566,2.0566,2.0566,2.0566,2.0566,2.0566,2.0566,2.0566,2.0566,2.0566,2.0566,2.0566,2.0566,2.0566,2.0566,2.0566,2.0566,2.0566,2.0566,2.0566,2.0566,2.0566,2.0566,2.0566,2.0566,2.0566,2.0566,2.0566,2.0566,2.0566,2.0566,2.0566,2.0566,2.0566,2.0566,2.0566,2.0566,2.0566,2.0566,2.0566,2.0566,2.0566,2.0566,2.0566,2.0566,2.0566,2.0566,2.0566,2.0566,2.0566,2.0566,2.0566,2.0566,2.0566,2.0566,2.0566,2.0566,2.0566,2.0566,2.0566,2.0566,2.0566,2.0566,2.0566,2.0566,2.0566,2.0566,2.0566,2.0566,2.0566,2.0566,2.0566,2.0566,2.0566,2.0566,2.0566,2.0566,2.0566,2.0566,2.0566,2.0566,2.0566,1.8008,0.0,0.0,0.0,0.0,0.0,0.0,0.0,0.0,2.0068,2.0342,2.0566,2.0566,2.0566,2.0566,2.0566,2.0566,2.0566,2.0566,2.0566,2.0566,2.0566,2.0566,2.0566,2.0566,2.0566,2.0566,0.0,2.0566,2.0566,2.0566,2.0566,2.0566,2.0566,2.0566,2.0566,2.0566,2.0566,2.0566,2.0566,2.0566,2.0566,2.0566,2.0566,2.0566,2.0566,2.0566,2.0566,2.0566,2.0566,2.0566,2.0566,2.0566,2.0566,2.0566,2.0566,2.0566,2.0566,2.0566,2.0566,2.0566,2.0566,2.0566,2.0566,2.0566,2.0566,2.0566,2.0566,2.0566,2.0566,2.0566,2.0566,2.0566,2.0566,2.0566,2.0566,2.0566,2.0566,2.0566,2.0566,2.0566,2.0566,2.0566,2.0566,2.0566,2.0566,2.0566,2.0566,2.0566,2.0566,2.0566,2.0566,2.0566,2.0566,2.0566,2.0566,2.0566,2.0566,2.0566,2.0566,2.0566,2.0566,2.0566,2.0566,2.0566,2.0566,2.0566,2.0566,2.0566,2.0566,2.0566,2.0566,0.0,0.0,0.0,0.0,0.0,0.0,1.8828,1.9297,1.9756,0.0,2.0391,2.0566,2.0566,2.0566,2.0566,2.0566,2.0566,2.0566,2.0566,2.0566,2.0566,2.0566,2.0566,2.0566,2.0566,2.0566,2.0566,2.0566,2.0566,2.0566,2.0566,2.0566,2.0566,2.0566,2.0566,2.0566,2.0566,2.0566,2.0566,2.0566,2.0566,2.0566,2.0566,2.0566,2.0566,2.0566,2.0566,2.0566,2.0566,2.0566,2.0566,2.0566,2.0566,2.0566,2.0566,2.0566,2.0566,2.0566,2.0566,2.0566,2.0566,2.0566,2.0566,2.0566,2.0566,2.0566,2.0566,2.0566,2.0566,2.0566,2.0566,2.0566,2.0566,2.0566,2.0566,2.0566,2.0566,2.0566,2.0566,2.0566,2.0566,2.0566,2.0566,2.0566,2.0566,2.0566,2.0566,2.0566,2.0566,2.0566,2.0566,2.0566,2.0566,2.0566,2.0566,2.0566,2.0566,2.0566,2.0566,2.0566,2.0566,2.0566,2.0566,2.0566,2.0566,2.0566,2.0566,2.0566,2.0566,2.0566,2.0566,2.0566,0.0,0.0,0.0,0.0,1.8008,0.0,1.8975,1.918,1.9434,2.0195,2.0391,2.043,2.043,2.043,2.043,2.043,2.0459,2.0508,2.0557,2.0566,2.0566,2.0566,2.0566,2.0566,2.0566,2.0566,2.0566,2.0566,2.0566,2.0566,2.0566,2.0566,2.0566,2.0566,2.0566,2.0566,2.0566,2.0566,2.0566,2.0566,2.0566,2.0566,2.0566,2.0566,2.0566,2.0566,2.0566,2.0566,2.0566,2.0566,2.0566,2.0566,2.0566,2.0566,2.0566,2.0566,2.0566,2.0566,2.0566,2.0566,2.0566,2.0566,2.0566,2.0566,2.0566,2.0566,2.0566,2.0566,2.0566,2.0566,2.0566,2.0566,2.0566,2.0566,2.0566,2.0566,2.0566,2.0566,2.0566,2.0566,2.0566,2.0566,2.0566,2.0566,2.0566,2.0566,2.0566,2.0566,2.0566,2.0566,2.0566,2.0566,2.0566,2.0644,2.0712,2.0789,2.0789,2.0789,2.0867,2.0857,2.0789,2.0789,2.0789,2.0789,2.0634,2.0566,2.0566,2.0566,2.0566,2.0566,2.0566,2.0566,0.0,0.0,0.0,1.8008,1.8008,0.0,1.8223,1.8516,1.8809,0.0,1.9297,1.9541,1.9541,1.9541,1.9541,1.9541,1.9824,2.0166,2.0518,2.0566,2.0566,2.0566,2.0566,2.0566,2.0566,2.0566,2.0566,2.0566,2.0566,2.0566,2.0566,2.0566,2.0566,2.0566,2.0566,2.0566,2.0566,2.0566,2.0566,2.0566,2.0566,2.0566,2.0566,2.0566,2.0566,2.0566,2.0566,2.0566,2.0566,2.0566,2.0566,2.0566,2.0566,2.0566,2.0566,2.0566,2.0566,2.0566,2.0566,2.0566,2.0566,2.0566,2.0566,2.0566,2.0566,2.0566,2.0566,2.0566,2.0566,2.0566,2.0566,2.0566,2.0566,2.0566,2.0566,2.0566,2.0566,2.0566,2.0566,2.0566,2.0566,2.0566,2.0566,2.0566,2.0566,2.0566,2.0566,2.0566,2.0566,2.0566,2.0566,2.0566,2.0566,2.0934,2.1659,2.1745,2.1745,2.1745,2.2489,2.2553,2.1735,2.1745,2.1745,2.1745,2.1011,2.0566,2.0566,2.0566,2.0566,2.0566,2.0566,2.0566,1.8125,1.8008,1.8008,1.8008,1.8008,0.0,0.0,1.8486,1.8701,1.8916,1.9131,1.9287,1.9287,1.9287,1.9287,1.9287,1.9639,1.9912,1.9922,2.0303,2.0566,2.0566,2.0566,2.0566,2.0566,2.0566,2.0566,2.0566,2.0566,2.0566,2.0566,2.0566,2.0566,2.0566,2.0566,2.0566,2.0566,2.0566,2.0857,2.1298,2.0779,2.1088,2.2048,2.1011,2.0867,2.1298,2.0779,2.0566,2.0566,2.0566,2.0566,2.0566,2.0566,2.0566,2.0566,2.0566,2.0566,2.0566,2.0566,2.0566,2.0566,2.0566,2.0566,2.0566,2.0566,2.0566,2.0566,2.0566,2.0566,2.0566,2.0566,2.0566,2.0566,2.0566,2.0566,2.0566,2.0566,2.0566,2.0566,2.0566,2.0566,2.0566,2.0566,2.0566,2.0566,2.0566,2.0566,2.0566,2.0566,2.0566,2.0566,2.0566,2.0566,2.0789,2.1221,2.1735,2.1811,2.1298,2.2702,2.3073,2.2027,2.2478,2.2478,2.2027,2.1078,2.0566,2.0566,2.0566,2.0566,2.0566,2.0566,2.0566,1.8144,1.8008,1.8008,1.8008,1.8008,1.8105,0.0,0.0,0.0,1.8965,0.0,0.0,0.0,0.0,0.0,0.0,0.0,0.0,0.0,1.9834,0.0,2.0322,2.0469,2.0605,2.0748,2.0738,2.0767,2.0857,2.0787,2.0777,2.0857,2.0857,2.0934,2.1155,2.0789,2.0789,2.1155,2.0934,2.1375,2.2253,2.1527,2.1973,2.3441,2.1669,2.1298,2.1962,2.1011,2.0566,2.0566,2.0566,2.0566,2.0566,2.0566,2.0566,2.0566,2.0566,2.0566,2.0566,2.0566,2.0566,2.0566,2.0566,2.0566,2.0566,2.0566,2.0566,2.0566,2.0566,2.0566,2.0566,2.0566,2.0566,2.0566,2.0566,2.0566,2.0566,2.0566,2.0566,2.0566,2.0566,2.0566,2.0566,2.0566,2.0566,2.0566,2.0566,2.0566,2.0566,2.0566,2.0566,2.0566,2.0566,2.0566,2.0712,2.1165,2.1811,2.2038,2.1461,2.3073,2.3661,2.2627,2.3368,2.322,2.2027,2.1221,2.0789,2.0566,2.0566,2.0566,2.0566,2.0566,2.0566,1.8232,1.8008,1.8008,1.8008,1.8008,1.8018,1.8076,0.0,1.8096,1.8144,0.0,1.8154,0.0,0.0,0.0,0.0,0.0,0.0,1.8721,1.9121,1.9434,1.9434,2.0098,2.0785,2.126,2.1292,2.1459,2.178,2.1522,2.1459,2.179,2.1811,2.2253,2.3147,2.1527,2.1461,2.3147,2.2264,2.2328,2.3294,2.322,2.3305,2.3441,2.2328,2.1886,2.1962,2.1011,2.0566,2.0566,2.0566,2.0566,2.0566,2.0566,2.0566,2.0566,2.0566,2.0566,2.0566,2.0566,2.0566,2.0566,2.0566,2.0566,2.0566,2.0566,2.0566,2.0566,2.0566,2.0566,2.0566,2.0566,2.0566,2.0566,2.0566,2.0566,2.0566,2.0566,2.0566,2.0566,2.0566,2.0566,2.0566,2.0566,2.0566,2.0566,2.0566,2.0566,2.0566,2.0566,2.0566,2.0566,2.0566,2.0566,2.1308,2.2999,2.3294,2.3661,2.442,2.5569,2.5721,2.4707,2.4779,2.3963,2.2038,2.1886,2.1451,2.0566,2.0566,2.0566,2.0566,2.0566,2.0566,1.8174,1.8184,1.832,1.8076,1.8193,1.8311,1.8066,1.8008,1.8008,1.8008,0.0,0.0,0.0,0.0,0.0,0.0,1.8359,1.8555,0.0,0.0,1.9287,1.9287,0.0,0.0,2.0491,2.0807,2.1247,2.1941,2.1849,2.2052,2.284,2.285,2.3073,2.3514,2.2713,2.2638,2.3514,2.3073,2.3368,2.4337,2.3818,2.4108,2.5205,2.3588,2.322,2.3672,2.2113,2.1451,2.1375,2.0779,2.0934,2.1451,2.1451,2.1078,2.0566,2.0566,2.0566,2.0566,2.0566,2.0566,2.0722,2.1231,2.1821,2.2188,2.1593,2.1821,2.2048,2.0934,2.1375,2.2113,2.1593,2.1451,2.1451,2.1451,2.1011,2.0566,2.0566,2.0566,2.0566,2.0566,2.0566,2.0566,2.0566,2.0566,2.0566,2.0566,2.0566,2.0566,2.0566,2.0566,2.0566,2.0566,2.0566,2.0934,2.1756,2.2861,2.3441,2.3294,2.4767,2.5734,2.5873,2.53,2.4337,2.2925,2.2328,2.1517,2.0566,2.0566,2.0566,2.0566,2.0566,2.0566,1.833,1.8408,1.8535,1.8115,1.8242,1.8389,1.8076,1.8008,1.8008,1.8008,1.8008,0.0,0.0,0.0,1.8008,0.0,0.0,1.8359,0.0,1.8545,0.0,0.0,0.0,0.0,0.0,2.0462,2.1069,2.2137,2.2211,2.2709,2.3879,2.3891,2.4036,2.4325,2.3818,2.3734,2.4325,2.4036,2.4409,2.537,2.4696,2.5063,2.6452,2.4696,2.4337,2.4862,2.285,2.2027,2.1962,2.1011,2.1155,2.2027,2.2027,2.1745,2.1375,2.1375,2.1375,2.1375,2.1375,2.1375,2.1527,2.2178,2.2925,2.3368,2.2627,2.2925,2.322,2.1821,2.2414,2.3294,2.2627,2.2403,2.2328,2.2027,2.1441,2.1011,2.1011,2.0789,2.0644,2.0934,2.0789,2.0566,2.0566,2.0566,2.0566,2.0566,2.0566,2.0566,2.0566,2.0566,2.0566,2.0566,2.0867,2.1078,2.1385,2.2936,2.3745,2.3283,2.4624,2.5734,2.6452,2.5804,2.4779,2.3514,2.2776,2.1821,2.0566,2.0566,2.0566,2.0566,2.0566,2.0566,1.8848,1.8623,1.8535,1.8115,1.8018,1.8027,1.8018,1.8008,1.8008,1.8008,1.8008,1.8008,1.8008,1.8008,1.8008,1.8008,1.8018,0.0,0.0,0.0,0.0,0.0,0.0,0.0,0.0,2.0797,2.1332,2.2786,2.2902,2.3473,2.4909,2.4933,2.537,2.6383,2.4541,2.4397,2.6383,2.5441,2.5441,2.6465,2.6383,2.6452,2.6452,2.5441,2.4933,2.4862,2.285,2.2027,2.1962,2.1011,2.1155,2.2027,2.2027,2.2553,2.3441,2.3441,2.3441,2.3441,2.3441,2.3441,2.3441,2.3441,2.3441,2.3514,2.3441,2.3441,2.3514,2.3441,2.3441,2.3514,2.3441,2.3441,2.322,2.2253,2.1962,2.1952,2.1952,2.1221,2.0857,2.1811,2.1231,2.0566,2.0566,2.0566,2.0566,2.0566,2.0566,2.0566,2.0566,2.0566,2.0566,2.0566,2.1451,2.2328,2.3294,2.4337,2.537,2.6314,2.6383,2.6452,2.6533,2.6452,2.5499,2.3514,2.3441,2.2489,2.0566,2.0566,2.0566,2.0566,2.0566,2.0566,1.9141,1.9268,1.9307,1.8603,1.8643,1.8711,1.8135,1.8008,1.8008,1.8008,1.8008,1.8008,1.8008,1.8008,1.8008,1.8008,1.8008,1.8008,0.0,1.8008,1.8008,1.8008,1.8646,0.0,0.0,1.9865,2.0698,2.1854,2.28,2.3792,2.4921,2.5664,2.6164,2.6465,2.5861,2.5791,2.6452,2.6164,2.6164,2.6533,2.6533,2.6533,2.6465,2.6164,2.6025,2.5943,2.4552,2.3963,2.3891,2.2925,2.3073,2.3963,2.3963,2.4624,2.5346,2.3963,2.3514,2.3514,2.3514,2.3963,2.4492,2.4492,2.4921,2.5358,2.4707,2.4992,2.5205,2.3879,2.4469,2.5346,2.4707,2.4492,2.442,2.4036,2.3452,2.2999,2.2999,2.2702,2.2638,2.2925,2.2702,2.2339,2.1669,2.1517,2.1298,2.0712,2.0566,2.0566,2.0566,2.0566,2.0566,2.0566,2.1441,2.2103,2.2478,2.4036,2.5441,2.6465,2.6533,2.6533,2.6533,2.6533,2.5873,2.4492,2.3818,2.285,2.1517,2.0934,2.0566,2.0566,2.0566,2.0566,1.9551,1.9707,1.9746,1.9043,1.9082,1.9102,1.8398,1.8232,1.8232,1.8232,1.8115,1.8105,1.8408,1.8213,1.8057,1.8213,1.8105,1.8008,0.0,1.8008,1.8008,1.8008,1.8252,1.8467,0.0,1.9141,2.0012,2.1335,2.2582,2.3781,2.4921,2.5943,2.6533,2.6533,2.6533,2.6533,2.6533,2.6533,2.6533,2.6533,2.6533,2.6533,2.6533,2.6533,2.6533,2.6452,2.5441,2.5004,2.4933,2.3891,2.4108,2.5004,2.5004,2.5581,2.6314,2.5052,2.4541,2.4541,2.4541,2.4992,2.5511,2.5511,2.5955,2.6383,2.5734,2.6025,2.6233,2.4909,2.5499,2.6383,2.5734,2.5511,2.5441,2.5087,2.448,2.4036,2.4036,2.3745,2.3599,2.3963,2.3745,2.3147,2.2178,2.2027,2.1669,2.0712,2.0566,2.0566,2.0566,2.0566,2.0712,2.1078,2.1962,2.284,2.3576,2.4767,2.5804,2.6452,2.6533,2.6533,2.6533,2.6533,2.6025,2.5016,2.4036,2.2999,2.2027,2.1364,2.0934,2.0644,2.1308,2.1451]},{"header":{"parameterUnit":"m.s-1","parameterCategory":1,"la1":30.6,"la2":29.2853,"lo1":-89.7004,"lo2":-87.6739,"dy":0.0162,"dx":0.0183,"nx":112,"ny":82,"refTime":"2023-08-14T12:00:00:Z","depth":0,"parameterNumber":3,"parameterNumberName":"V-component_of_WINDS"},"data":[0.0,0.0,0.0,0.0,0.0,0.0,0.0,0.0,0.0,0.0,0.0,0.0,0.0,0.0,0.0,0.0,0.0,0.0,0.0,0.0,0.0,0.0,0.0,0.0,0.0,0.0,0.0,0.0,0.0,0.0,0.0,0.0,0.0,0.0,0.0,0.0,0.0,0.0,0.0,0.0,0.0,0.0,0.0,0.0,0.0,0.0,0.0,0.0,0.0,0.0,0.0,0.0,0.0,0.0,0.0,0.0,0.0,0.0,0.0,0.0,0.0,0.0,0.0,0.0,0.0,0.0,0.0,0.0,0.0,0.0,0.0,0.0,0.0,0.0,0.0,0.0,0.0,0.0,0.0,0.0,0.0,0.0,0.0,0.0,0.0,0.0,0.0,0.0,0.0,0.0,-3.3652,-3.3789,-3.5117,-3.5996,-3.5996,-3.5996,-3.5254,-3.3516,0.0,0.0,0.0,0.0,0.0,0.0,0.0,0.0,0.0,0.0,0.0,0.0,0.0,0.0,0.0,0.0,0.0,0.0,0.0,0.0,0.0,0.0,0.0,0.0,0.0,0.0,0.0,0.0,0.0,0.0,0.0,0.0,0.0,0.0,0.0,0.0,0.0,0.0,0.0,0.0,0.0,0.0,0.0,0.0,0.0,0.0,0.0,0.0,0.0,0.0,0.0,0.0,0.0,0.0,0.0,0.0,0.0,0.0,0.0,0.0,0.0,0.0,0.0,0.0,0.0,0.0,0.0,0.0,0.0,0.0,0.0,0.0,0.0,0.0,0.0,0.0,0.0,0.0,0.0,0.0,0.0,0.0,0.0,0.0,0.0,0.0,0.0,0.0,0.0,0.0,0.0,0.0,0.0,0.0,0.0,0.0,0.0,0.0,0.0,0.0,0.0,0.0,0.0,0.0,-3.4785,-3.5527,-3.584,-3.5996,-3.5996,-3.5996,-3.5254,-3.3516,0.0,0.0,0.0,0.0,0.0,0.0,0.0,0.0,0.0,0.0,0.0,0.0,0.0,0.0,0.0,0.0,0.0,0.0,0.0,0.0,0.0,0.0,0.0,0.0,0.0,0.0,0.0,0.0,0.0,0.0,0.0,0.0,0.0,0.0,0.0,0.0,0.0,0.0,0.0,0.0,0.0,0.0,0.0,0.0,0.0,0.0,0.0,0.0,0.0,0.0,0.0,0.0,0.0,0.0,0.0,0.0,0.0,0.0,0.0,0.0,0.0,0.0,0.0,0.0,0.0,0.0,0.0,0.0,0.0,0.0,0.0,0.0,0.0,0.0,0.0,0.0,0.0,0.0,0.0,0.0,0.0,0.0,0.0,0.0,0.0,0.0,0.0,0.0,0.0,0.0,0.0,0.0,0.0,0.0,0.0,0.0,0.0,0.0,0.0,0.0,0.0,0.0,0.0,-3.5156,-3.5742,-3.6601,-3.6699,-3.6504,-3.6035,-3.5996,-3.5469,-3.418,-3.4101,0.0,0.0,0.0,0.0,0.0,0.0,0.0,0.0,0.0,0.0,0.0,0.0,0.0,0.0,0.0,0.0,0.0,0.0,0.0,0.0,0.0,0.0,0.0,0.0,0.0,0.0,0.0,0.0,0.0,0.0,0.0,0.0,0.0,0.0,0.0,0.0,0.0,0.0,0.0,0.0,0.0,0.0,0.0,0.0,0.0,0.0,0.0,0.0,0.0,0.0,0.0,0.0,0.0,0.0,0.0,0.0,0.0,0.0,0.0,0.0,0.0,0.0,0.0,0.0,0.0,0.0,0.0,0.0,0.0,0.0,0.0,0.0,0.0,0.0,0.0,0.0,0.0,0.0,0.0,0.0,0.0,0.0,0.0,0.0,0.0,0.0,0.0,0.0,0.0,0.0,0.0,0.0,0.0,0.0,0.0,0.0,0.0,0.0,0.0,0.0,0.0,0.0,-3.6484,-3.6875,-3.7539,-3.7617,-3.7344,-3.668,-3.6426,-3.5937,-3.5059,-3.4805,0.0,0.0,0.0,0.0,0.0,0.0,0.0,0.0,0.0,0.0,0.0,0.0,0.0,0.0,0.0,0.0,0.0,0.0,0.0,0.0,0.0,0.0,0.0,0.0,0.0,0.0,0.0,0.0,0.0,0.0,0.0,0.0,0.0,0.0,0.0,0.0,0.0,0.0,0.0,0.0,0.0,0.0,0.0,0.0,0.0,0.0,0.0,0.0,0.0,0.0,0.0,0.0,0.0,0.0,0.0,0.0,0.0,0.0,0.0,0.0,0.0,0.0,0.0,0.0,0.0,0.0,0.0,0.0,0.0,0.0,0.0,0.0,0.0,0.0,0.0,0.0,0.0,0.0,0.0,0.0,0.0,0.0,0.0,0.0,0.0,0.0,0.0,0.0,0.0,0.0,0.0,0.0,0.0,0.0,0.0,0.0,0.0,0.0,0.0,0.0,0.0,0.0,-3.793,-3.8437,-3.8496,-3.8516,-3.8476,-3.8418,-3.7676,-3.6836,-3.5957,-3.5156,0.0,0.0,0.0,0.0,0.0,0.0,0.0,0.0,0.0,0.0,0.0,0.0,0.0,0.0,0.0,0.0,0.0,0.0,0.0,0.0,0.0,0.0,0.0,0.0,0.0,0.0,0.0,0.0,0.0,0.0,0.0,0.0,0.0,0.0,0.0,0.0,0.0,0.0,0.0,0.0,0.0,0.0,0.0,0.0,0.0,0.0,0.0,0.0,0.0,0.0,0.0,0.0,0.0,0.0,0.0,0.0,0.0,0.0,0.0,0.0,0.0,0.0,0.0,0.0,0.0,0.0,0.0,0.0,0.0,0.0,0.0,0.0,0.0,0.0,0.0,0.0,0.0,0.0,0.0,0.0,0.0,0.0,0.0,0.0,0.0,0.0,0.0,0.0,0.0,0.0,0.0,0.0,0.0,0.0,0.0,0.0,0.0,0.0,0.0,0.0,0.0,0.0,-3.8867,-3.9414,-3.9414,-3.9414,-3.9199,-3.8652,-3.8301,-3.7734,-3.6875,0.0,0.0,0.0,0.0,0.0,0.0,0.0,0.0,0.0,0.0,0.0,0.0,0.0,0.0,0.0,0.0,0.0,0.0,0.0,0.0,0.0,0.0,0.0,0.0,0.0,0.0,0.0,0.0,0.0,0.0,0.0,0.0,0.0,0.0,0.0,0.0,0.0,0.0,0.0,0.0,0.0,0.0,0.0,0.0,0.0,0.0,0.0,0.0,0.0,0.0,0.0,0.0,0.0,0.0,0.0,0.0,0.0,0.0,0.0,0.0,0.0,0.0,0.0,0.0,0.0,0.0,0.0,0.0,0.0,0.0,0.0,0.0,0.0,0.0,0.0,0.0,0.0,0.0,0.0,0.0,0.0,0.0,0.0,0.0,0.0,0.0,0.0,0.0,0.0,0.0,0.0,0.0,0.0,0.0,0.0,0.0,0.0,0.0,0.0,0.0,0.0,0.0,-3.8516,-3.9609,-4.0312,-4.0312,-4.0312,-4.0078,-3.9473,-3.918,-3.8633,-3.7773,0.0,0.0,0.0,0.0,0.0,0.0,0.0,0.0,0.0,0.0,0.0,0.0,0.0,0.0,0.0,0.0,0.0,0.0,0.0,0.0,0.0,0.0,0.0,0.0,0.0,0.0,0.0,0.0,0.0,0.0,0.0,0.0,0.0,0.0,0.0,0.0,0.0,0.0,0.0,0.0,0.0,0.0,0.0,0.0,0.0,0.0,0.0,0.0,0.0,0.0,0.0,0.0,0.0,0.0,0.0,0.0,0.0,0.0,0.0,0.0,0.0,0.0,0.0,0.0,0.0,0.0,0.0,0.0,0.0,0.0,0.0,0.0,0.0,0.0,0.0,0.0,0.0,0.0,0.0,0.0,0.0,0.0,0.0,0.0,0.0,0.0,0.0,0.0,0.0,0.0,0.0,0.0,0.0,0.0,0.0,0.0,0.0,0.0,0.0,0.0,0.0,0.0,-3.8594,-4.0117,-4.1191,-4.1191,-4.1191,-4.1191,-4.1191,-4.041,-3.9531,0.0,0.0,0.0,0.0,0.0,0.0,0.0,0.0,0.0,0.0,0.0,0.0,0.0,0.0,0.0,0.0,0.0,0.0,0.0,0.0,0.0,0.0,0.0,0.0,0.0,0.0,0.0,0.0,0.0,0.0,0.0,0.0,0.0,0.0,0.0,0.0,0.0,0.0,0.0,0.0,0.0,0.0,0.0,0.0,0.0,0.0,0.0,0.0,0.0,0.0,0.0,0.0,0.0,0.0,0.0,0.0,0.0,0.0,0.0,0.0,0.0,0.0,0.0,0.0,0.0,0.0,0.0,0.0,0.0,0.0,0.0,0.0,0.0,0.0,0.0,0.0,0.0,0.0,0.0,0.0,0.0,0.0,0.0,0.0,0.0,0.0,0.0,0.0,0.0,0.0,0.0,0.0,0.0,0.0,0.0,0.0,0.0,0.0,0.0,0.0,0.0,0.0,0.0,-3.8594,-4.0117,-4.1191,-4.1191,-4.1191,-4.1191,-4.1191,-4.0957,-4.0176,-3.8691,0.0,0.0,0.0,0.0,0.0,0.0,0.0,0.0,0.0,0.0,0.0,0.0,0.0,0.0,0.0,0.0,0.0,0.0,0.0,0.0,0.0,0.0,0.0,0.0,0.0,0.0,0.0,0.0,0.0,0.0,0.0,0.0,0.0,0.0,0.0,0.0,0.0,0.0,0.0,0.0,0.0,0.0,0.0,0.0,0.0,0.0,0.0,0.0,0.0,0.0,0.0,0.0,0.0,0.0,0.0,0.0,0.0,0.0,0.0,0.0,0.0,0.0,0.0,0.0,0.0,0.0,0.0,0.0,0.0,0.0,0.0,0.0,0.0,0.0,0.0,0.0,0.0,0.0,0.0,0.0,0.0,0.0,0.0,0.0,0.0,0.0,0.0,0.0,0.0,0.0,0.0,0.0,0.0,0.0,0.0,0.0,0.0,0.0,0.0,0.0,0.0,0.0,-3.8594,-4.0117,-4.1191,-4.1191,-4.1191,-4.1191,-4.1191,-4.1191,-4.0605,-3.9219,0.0,0.0,0.0,0.0,0.0,0.0,0.0,0.0,0.0,0.0,0.0,0.0,0.0,0.0,0.0,0.0,0.0,0.0,0.0,0.0,0.0,0.0,0.0,0.0,0.0,0.0,0.0,0.0,0.0,0.0,0.0,0.0,0.0,0.0,0.0,0.0,0.0,0.0,0.0,0.0,0.0,0.0,0.0,0.0,0.0,0.0,0.0,0.0,0.0,0.0,0.0,0.0,0.0,0.0,0.0,0.0,0.0,0.0,0.0,0.0,0.0,0.0,0.0,0.0,0.0,0.0,0.0,0.0,0.0,0.0,0.0,0.0,0.0,0.0,0.0,0.0,0.0,0.0,0.0,0.0,0.0,0.0,0.0,0.0,0.0,0.0,0.0,0.0,0.0,0.0,0.0,0.0,0.0,0.0,0.0,0.0,0.0,0.0,0.0,0.0,0.0,0.0,-3.8594,-4.0117,-4.1191,-4.1191,-4.1191,-4.1191,-4.1191,-4.1191,-4.082,-3.9961,0.0,0.0,0.0,0.0,0.0,0.0,0.0,0.0,0.0,0.0,0.0,0.0,0.0,0.0,0.0,0.0,0.0,0.0,0.0,0.0,0.0,0.0,0.0,0.0,0.0,0.0,0.0,0.0,0.0,0.0,0.0,0.0,0.0,0.0,0.0,0.0,0.0,0.0,0.0,0.0,0.0,0.0,0.0,0.0,0.0,0.0,0.0,0.0,0.0,0.0,0.0,0.0,0.0,0.0,0.0,0.0,0.0,0.0,0.0,0.0,-3.7469,0.0,0.0,0.0,0.0,0.0,0.0,0.0,0.0,0.0,0.0,0.0,0.0,0.0,0.0,0.0,0.0,0.0,0.0,0.0,0.0,0.0,0.0,0.0,0.0,0.0,0.0,0.0,0.0,0.0,0.0,0.0,0.0,0.0,0.0,0.0,0.0,0.0,0.0,0.0,0.0,0.0,-3.8594,-4.0117,-4.1191,-4.1191,-4.1191,-4.1191,-4.1191,-4.1191,-4.082,-3.9961,-3.9726,0.0,0.0,0.0,0.0,0.0,0.0,0.0,0.0,0.0,0.0,0.0,0.0,0.0,0.0,0.0,0.0,0.0,0.0,0.0,0.0,0.0,0.0,0.0,0.0,0.0,0.0,0.0,0.0,0.0,0.0,0.0,0.0,0.0,0.0,0.0,0.0,0.0,0.0,0.0,0.0,0.0,0.0,0.0,0.0,0.0,0.0,0.0,0.0,0.0,0.0,0.0,0.0,0.0,0.0,0.0,0.0,0.0,0.0,0.0,0.0,-3.7565,0.0,0.0,0.0,0.0,0.0,0.0,0.0,0.0,0.0,0.0,0.0,0.0,0.0,0.0,0.0,0.0,0.0,0.0,0.0,0.0,0.0,0.0,0.0,0.0,0.0,0.0,0.0,0.0,0.0,0.0,0.0,0.0,0.0,0.0,0.0,0.0,0.0,0.0,0.0,0.0,-3.8594,-4.0117,-4.1191,-4.1191,-4.1191,-4.1191,-4.1191,-4.1191,-4.1016,-4.0547,-4.0137,0.0,0.0,0.0,0.0,0.0,0.0,0.0,0.0,0.0,0.0,0.0,0.0,0.0,0.0,0.0,0.0,0.0,0.0,0.0,0.0,0.0,0.0,0.0,0.0,0.0,0.0,0.0,0.0,0.0,0.0,0.0,0.0,0.0,0.0,0.0,0.0,0.0,0.0,0.0,0.0,0.0,0.0,0.0,0.0,0.0,0.0,0.0,0.0,0.0,0.0,0.0,0.0,0.0,-3.8373,-3.843,-3.843,-3.843,-3.8834,-3.9469,-3.8738,-3.8757,-3.9181,-3.7757,0.0,0.0,0.0,0.0,0.0,0.0,0.0,0.0,0.0,0.0,0.0,0.0,0.0,0.0,0.0,0.0,0.0,0.0,0.0,0.0,0.0,0.0,-3.843,-3.843,-3.8988,-3.9296,-3.8584,0.0,0.0,0.0,0.0,0.0,0.0,0.0,0.0,0.0,0.0,0.0,-3.8809,-4.0215,-4.1191,-4.1191,-4.1191,-4.1191,-4.1191,-4.1191,-4.119,-4.1175,-4.0489,-4.0025,0.0,0.0,0.0,0.0,0.0,0.0,0.0,0.0,0.0,0.0,0.0,0.0,0.0,0.0,0.0,0.0,0.0,0.0,0.0,0.0,0.0,0.0,0.0,0.0,0.0,0.0,0.0,0.0,0.0,0.0,0.0,0.0,-3.7083,-3.7356,0.0,0.0,0.0,0.0,0.0,0.0,0.0,0.0,0.0,0.0,0.0,0.0,0.0,-3.7873,-3.8007,-3.8738,-3.9123,-3.9142,-3.9835,-4.0162,-4.0162,-4.0162,-4.0219,-4.0335,-4.0219,0.0,-3.9277,-3.9046,0.0,0.0,0.0,0.0,0.0,0.0,0.0,0.0,0.0,0.0,0.0,0.0,0.0,0.0,0.0,0.0,0.0,0.0,0.0,0.0,0.0,0.0,-4.0162,-4.0162,-4.0258,-4.0296,-4.02,-3.9084,-3.8065,-3.7968,-3.8064,-3.7887,0.0,0.0,0.0,0.0,0.0,0.0,-3.9629,-4.0586,-4.1191,-4.1191,-4.1191,-4.1191,-4.1191,-4.1191,-4.1152,-4.1029,-4.0919,-4.0483,-3.9675,-3.9526,0.0,0.0,0.0,0.0,0.0,0.0,0.0,0.0,0.0,0.0,0.0,0.0,0.0,0.0,0.0,0.0,0.0,0.0,0.0,0.0,0.0,0.0,0.0,0.0,0.0,0.0,0.0,0.0,0.0,-3.6142,-3.6574,-3.684,-3.6311,-3.5855,0.0,0.0,0.0,0.0,0.0,0.0,0.0,0.0,0.0,-3.87,-3.8719,-3.895,-3.9392,-3.9777,-3.9969,-3.9969,-4.0315,-4.0489,-4.0489,-4.0489,-4.0489,-4.0489,-4.0489,-4.0296,-3.9931,-3.9488,-3.8854,-3.8104,0.0,0.0,0.0,0.0,-3.743,-3.7565,-3.843,-3.8719,-3.8661,-3.8296,0.0,0.0,0.0,0.0,0.0,0.0,0.0,-3.82,-3.9065,-3.9546,-3.9931,-4.0392,-4.0489,-4.0489,-4.0489,-3.995,-3.9335,-3.8916,-3.8491,-3.7959,-3.7229,-3.7469,0.0,0.0,0.0,-3.9355,-3.9746,-4.056,-4.1099,-4.1099,-4.1019,-4.0983,-4.0983,-4.0983,-4.0948,-4.0884,-4.0891,-4.0694,-4.03,-3.9843,-3.9088,0.0,0.0,0.0,0.0,0.0,0.0,0.0,0.0,0.0,0.0,0.0,0.0,0.0,0.0,0.0,0.0,0.0,0.0,0.0,0.0,0.0,0.0,0.0,0.0,0.0,0.0,0.0,0.0,-3.6463,-3.6749,-3.6755,-3.6766,-3.652,0.0,0.0,0.0,0.0,0.0,0.0,-3.8315,-3.8334,-3.8719,-3.9565,-3.9604,-3.9892,-4.0489,-4.0489,-4.0489,-4.0489,-4.0489,-4.0489,-4.0489,-4.0489,-4.0489,-4.0489,-4.0489,-4.0489,-4.045,-3.9835,-3.9488,-3.9238,-3.8584,-3.82,-3.8027,-3.8257,-3.8334,-3.845,-3.9296,-3.9604,-3.9565,-3.9373,-3.9142,-3.8892,-3.845,0.0,0.0,0.0,0.0,-3.8527,-3.9392,-3.9604,-3.9758,-4.0354,-4.0489,-4.0489,-4.0489,-4.0335,-4.0085,-3.9742,-3.9169,-3.8485,-3.7817,-3.8179,0.0,-3.782,-3.8848,-3.9754,-3.9949,-4.0546,-4.0949,-4.0943,-4.0854,-4.0811,-4.0811,-4.0811,-4.0791,-4.0791,-4.0777,-4.0754,-4.0716,-4.0162,-3.9646,-3.9227,0.0,0.0,0.0,0.0,0.0,0.0,0.0,0.0,0.0,0.0,0.0,0.0,0.0,0.0,0.0,0.0,0.0,0.0,0.0,0.0,0.0,0.0,0.0,0.0,0.0,0.0,0.0,0.0,0.0,-3.8012,-3.8627,0.0,0.0,0.0,0.0,-3.793,-3.7988,-3.8354,-3.9181,-3.9219,-3.9604,-4.0412,-4.0431,-4.045,-4.0489,-4.0489,-4.0489,-4.0489,-4.0489,-4.0489,-4.0489,-4.0489,-4.0489,-4.0489,-4.0489,-4.0489,-4.0489,-4.045,-3.9988,-3.9296,-3.9238,-3.8719,-3.8104,-3.8931,-3.9219,-3.9354,-4.0162,-4.0431,-4.0296,-3.9546,-3.8738,-3.82,-3.8988,-3.8661,0.0,0.0,-3.9219,-3.9411,-4.0219,-4.0431,-4.045,-4.0489,-4.0489,-4.0489,-4.0489,-3.9892,-3.9565,-4.0296,-4.0412,-4.0162,-3.94,0.0,-3.9375,-3.9465,-3.9561,-3.987,-4.0649,-4.0774,-4.081,-4.0819,-4.0789,-4.0804,-4.0804,-4.0804,-4.0766,-4.0708,-4.0712,-4.0658,-4.0508,-4.0469,-3.9742,-3.8216,-3.7243,0.0,0.0,0.0,0.0,0.0,0.0,0.0,0.0,0.0,0.0,0.0,0.0,0.0,0.0,0.0,0.0,0.0,0.0,0.0,0.0,0.0,0.0,0.0,0.0,0.0,0.0,0.0,0.0,-3.8104,-3.8757,0.0,-3.8084,-3.8507,-3.8834,-3.8834,-3.9315,-3.9738,-4.0046,-4.0065,-4.02,-4.0489,-4.0489,-4.0489,-4.0489,-4.0489,-4.0489,-4.0489,-4.0489,-4.0489,-4.0489,-4.0489,-4.0489,-4.0489,-4.0489,-4.0489,-4.0489,-4.0489,-4.0315,-4.0065,-4.0065,-3.9873,-3.9642,-3.995,-4.0065,-4.0104,-4.0392,-4.0489,-4.045,-4.0162,-3.9854,-3.9662,-3.9969,-3.9854,-3.9662,-3.9969,-4.0065,-4.0142,-4.0431,-4.0489,-4.0489,-4.0489,-4.0489,-4.0489,-4.0489,-4.0258,-4.0162,-4.0431,-4.0065,-3.9662,-3.9454,-3.9779,-3.9962,-3.9531,-3.9935,-4.0414,-4.0694,-4.0739,-4.0745,-4.075,-4.0658,-4.062,-4.062,-4.062,-4.06,-4.0581,-4.0581,-4.0562,-4.0489,-4.0489,-4.0239,-3.9665,-3.8324,-3.6843,0.0,0.0,0.0,0.0,0.0,0.0,0.0,0.0,0.0,0.0,0.0,0.0,0.0,0.0,0.0,0.0,0.0,0.0,0.0,0.0,0.0,0.0,0.0,0.0,0.0,0.0,-3.8969,-3.8104,-3.9008,-3.9373,-3.8527,-3.92,-3.97,-3.97,-4.02,-4.0489,-4.0489,-4.0489,-4.0489,-4.0489,-4.0489,-4.0489,-4.0489,-4.0489,-4.0489,-4.0489,-4.0489,-4.0489,-4.0489,-4.0489,-4.0489,-4.0489,-4.0489,-4.0489,-4.0489,-4.0489,-4.0489,-4.0489,-4.0489,-4.0489,-4.0489,-4.0489,-4.0489,-4.0489,-4.0489,-4.0489,-4.0489,-4.0489,-4.0489,-4.0489,-4.0489,-4.0489,-4.0489,-4.0489,-4.0489,-4.0489,-4.0489,-4.0489,-4.0489,-4.0489,-4.0489,-4.0489,-4.0489,-4.0489,-4.0489,-4.0489,-4.0065,-3.9719,-3.9762,-4.0181,-4.0239,-3.9473,-4.0085,-4.0543,-4.0273,-4.0466,-4.0639,-4.0639,-4.0562,-4.0489,-4.0489,-4.0239,-4.02,-4.0469,-4.0239,-4.0219,-4.0489,-4.0239,-4.0085,-4.0085,-3.8469,-3.6983,-3.565,0.0,0.0,0.0,0.0,0.0,0.0,0.0,0.0,0.0,0.0,0.0,0.0,0.0,0.0,0.0,0.0,0.0,0.0,0.0,0.0,0.0,0.0,0.0,-3.8161,-3.8796,-3.9008,-3.818,-3.9508,-4.0181,-3.9411,-4.0027,-4.0489,-4.0489,-4.0489,-4.0489,-4.0489,-4.0489,-4.0489,-4.0489,-4.0489,-4.0489,-4.0489,-4.0489,-4.0489,-4.0489,-4.0489,-4.0489,-4.0489,-4.0489,-4.0489,-4.0489,-4.0489,-4.0489,-4.0489,-4.0489,-4.0489,-4.0489,-4.0489,-4.0489,-4.0489,-4.0489,-4.0489,-4.0489,-4.0489,-4.0489,-4.0489,-4.0489,-4.0489,-4.0489,-4.0489,-4.0489,-4.0489,-4.0489,-4.0489,-4.0489,-4.0489,-4.0489,-4.0489,-4.0489,-4.0489,-4.0489,-4.0489,-4.0489,-4.0489,-4.0489,-4.0489,-4.0489,-4.0489,-4.0489,-4.0239,-3.945,-3.9988,0.0,-3.9431,-4.0008,-4.0489,-4.0469,-4.045,-4.045,-4.045,-3.9738,-3.9642,-4.045,-3.9758,-3.9681,-4.0469,-3.9738,-3.9315,-3.9296,-3.7584,-3.6344,-3.5601,0.0,0.0,0.0,0.0,0.0,0.0,0.0,0.0,0.0,0.0,0.0,0.0,0.0,0.0,0.0,0.0,0.0,0.0,0.0,0.0,0.0,0.0,-3.9219,-3.8969,-3.9642,-4.0065,-3.9835,-4.0219,-4.0412,-4.0181,-4.0354,-4.0489,-4.0489,-4.0489,-4.0489,-4.0489,-4.0489,-4.0489,-4.0489,-4.0489,-4.0489,-4.0489,-4.0489,-4.0489,-4.0489,-4.0489,-4.0489,-4.0489,-4.0489,-4.0489,-4.0489,-4.0489,-4.0489,-4.0489,-4.0489,-4.0489,-4.0489,-4.0489,-4.0489,-4.0489,-4.0489,-4.0489,-4.0489,-4.0489,-4.0489,-4.0489,-4.0489,-4.0489,-4.0489,-4.0489,-4.0489,-4.0489,-4.0489,-4.0489,-4.0489,-4.0489,-4.0489,-4.0489,-4.0489,-4.0489,-4.0489,-4.0489,-4.0489,-4.0489,-4.0489,-4.0489,-4.0489,-4.0489,-4.0489,-4.0412,-4.02,-4.0354,-4.0412,-4.02,-4.0354,-4.0277,-3.9681,-3.9623,-3.9623,-3.9623,-3.9431,-3.9642,-4.045,-4.0277,-4.0258,-4.0489,-4.0277,-3.9892,-3.9296,-3.7632,-3.6392,0.0,0.0,0.0,0.0,0.0,0.0,0.0,0.0,0.0,0.0,0.0,0.0,0.0,0.0,0.0,0.0,0.0,0.0,0.0,0.0,0.0,0.0,-3.9238,-3.9796,-3.9796,-4.02,-4.0489,-4.0489,-4.0489,-4.0489,-4.0489,-4.0489,-4.0489,-4.0489,-4.0489,-4.0489,-4.0489,-4.0489,-4.0489,-4.0489,-4.0489,-4.0489,-4.0489,-4.0489,-4.0489,-4.0489,-4.0489,-4.0489,-4.0489,-4.0489,-4.0489,-4.0489,-4.0489,-4.0489,-4.0489,-4.0489,-4.0489,-4.0489,0.0,0.0,0.0,0.0,-4.0489,-4.0489,-4.0489,-4.0489,-4.0489,-4.0489,-4.0489,-4.0489,-4.0489,-4.0489,-4.0489,-4.0489,-4.0489,-4.0489,-4.0489,-4.0489,-4.0489,-4.0489,-4.0489,-4.0489,-4.0489,-4.0489,-4.0489,-4.0489,-4.0489,0.0,-4.0489,-4.0489,-4.0392,-4.0046,-4.0277,-4.0373,-4.0027,-4.0277,-4.0315,-3.9835,-3.9796,-3.9796,-3.9796,-3.9488,0.0,0.0,0.0,-3.9988,-3.9988,-3.9988,0.0,0.0,0.0,-3.6709,-3.6603,-3.4999,0.0,0.0,-3.417,-3.4043,0.0,0.0,0.0,0.0,0.0,0.0,0.0,0.0,0.0,0.0,0.0,0.0,0.0,0.0,0.0,0.0,-3.9969,-4.0489,-4.0489,-4.0489,-4.0489,-4.0489,-4.0489,-4.0489,-4.0489,-4.0489,-4.0489,-4.0489,-4.0489,-4.0489,-4.0489,0.0,0.0,0.0,0.0,-4.0489,-4.0489,-4.0489,-4.0489,-4.0489,-4.0489,-4.0489,-4.0489,-4.0489,-4.0489,-4.0489,-4.0489,-4.0489,-4.0489,-4.0489,-4.0489,-4.0489,-4.0489,-4.0489,-4.0489,-4.0489,-4.0489,-4.0489,-4.0489,0.0,0.0,-4.0489,-4.0489,-4.0489,-4.0489,-4.0489,-4.0489,-4.0489,-4.0489,-4.0489,-4.0489,-4.0489,-4.0489,-4.0489,-4.0489,-4.0489,-4.0489,-4.0489,-4.0489,-4.0489,-4.0489,-4.0489,-4.0489,-4.0489,-4.0258,-3.9527,-4.0027,-4.0239,-3.9527,-4.0046,-4.0469,-4.0354,-4.0354,0.0,-4.0354,-3.97,-3.9642,-4.045,-3.9815,-3.9431,-3.9431,-3.9431,-3.9431,-3.9431,-3.7834,-3.7334,-3.8007,-3.6469,-3.568,-3.5578,-3.4204,-3.4023,0.0,0.0,0.0,0.0,0.0,0.0,0.0,0.0,0.0,0.0,0.0,0.0,0.0,0.0,0.0,-3.9258,-3.9969,-4.0489,-4.0489,-4.0489,-4.0489,-4.0489,-4.0489,-4.0489,-4.0489,-4.0489,-4.0489,-4.0489,-4.0489,-4.0489,-4.0489,-4.0489,-4.0489,-4.0489,-4.0489,-4.0489,-4.0489,-4.0489,-4.0489,-4.0489,-4.0489,0.0,-4.0489,-4.0489,-4.0489,-4.0489,-4.0489,-4.0489,-4.0489,-4.0489,-4.0489,-4.0489,-4.0489,-4.0489,-4.0489,-4.0489,-4.0489,-4.0489,-4.0489,-4.0489,-4.0489,-4.0489,-4.0489,-4.0489,-4.0489,-4.0489,0.0,-4.0489,-4.0489,-4.0489,-4.0489,-4.0489,-4.0489,-4.0489,-4.0489,-4.0489,-4.0489,-4.0489,-4.0489,-4.0489,-4.0489,-4.0489,-4.0489,-4.0489,-4.045,-4.0277,-4.0392,-4.0431,-4.0277,-4.0392,-4.0239,-3.9604,-3.9527,-3.9527,-3.9527,-3.9392,-3.9642,-4.045,-4.0335,-4.0258,-4.0258,-4.0258,-4.0258,-4.0258,-3.9296,-3.8527,-3.8007,-3.6988,-3.618,-3.5584,-3.5352,-3.5392,0.0,0.0,0.0,0.0,0.0,0.0,0.0,0.0,0.0,0.0,0.0,-3.8123,0.0,0.0,-3.9431,-3.9835,-4.0239,-4.0489,-4.0489,-4.0489,-4.0489,-4.0489,-4.0489,-4.0489,-4.0489,-4.0489,-4.0489,-4.0489,-4.0489,-4.0489,-4.0489,-4.0489,-4.0489,-4.0489,-4.0489,-4.0489,-4.0489,-4.0489,-4.0489,-4.0489,-4.0489,-4.0489,-4.0489,-4.0489,-4.0489,-4.0489,-4.0489,-4.0489,-4.0489,-4.0489,-4.0489,-4.0489,-4.0489,-4.0489,-4.0489,-4.0489,-4.0489,-4.0489,-4.0489,-4.0489,-4.0489,-4.0489,-4.0489,-4.0489,-4.0489,-4.0489,-4.0489,-4.0489,-4.0489,-4.0489,-4.0489,-4.0489,-4.0489,-4.0489,-4.0489,-4.0489,-4.0489,-4.0489,-4.0489,-4.0489,-4.0489,-4.0489,-4.0489,-4.0489,-4.0489,-4.0489,-4.0489,-4.0489,-4.0489,-4.0489,-4.0335,-3.9931,-3.9892,-3.9892,-3.9892,-3.9892,-4.0065,-4.0469,-4.0489,-4.0489,-4.0489,-4.0489,-4.0489,-4.0489,-3.97,-3.8873,-3.8007,-3.7142,-3.6315,-3.5545,-3.5574,-3.5678,0.0,0.0,0.0,0.0,0.0,0.0,0.0,0.0,-3.745,-3.8315,-3.8488,-3.87,-3.9392,-3.9527,-3.9738,-4.0392,-4.0489,-4.0489,-4.0489,-4.0489,-4.0489,-4.0489,-4.0489,-4.0489,-4.0489,-4.0489,-4.0489,-4.0489,-4.0489,-4.0489,-4.0489,-4.0489,-4.0489,-4.0489,-4.0489,-4.0489,-4.0489,-4.0489,-4.0489,-4.0489,-4.0489,-4.0489,-4.0489,-4.0489,-4.0489,-4.0489,-4.0489,-4.0489,-4.0489,-4.0489,-4.0489,-4.0489,-4.0489,-4.0489,-4.0489,-4.0489,-4.0489,-4.0489,-4.0489,-4.0489,-4.0489,-4.0489,-4.0489,-4.0489,-4.0489,-4.0489,-4.0489,-4.0489,-4.0489,-4.0489,-4.0489,-4.0489,-4.0489,-4.0489,-4.0489,-4.0489,-4.0489,-4.0489,-4.0489,-4.0489,-4.0489,-4.0489,-4.0489,-4.0489,-4.0489,-4.0489,-4.0489,-4.0489,-4.0489,-4.0489,-4.0489,-4.0489,-4.0489,-4.0489,-4.0489,-4.0489,-4.0489,-4.0489,-4.0489,-4.0489,-4.0489,-4.0489,-4.0489,-4.0489,-3.9854,-3.9104,-3.8257,-3.7373,-3.6526,-3.5738,-3.557,-3.5565,-3.5795,-3.6085,-3.688,-3.7276,-3.7622,-3.8159,0.0,0.0,-3.9238,-4.0046,-4.0219,-4.0239,-4.0335,-4.0354,-4.0392,-4.0489,-4.0489,-4.0489,-4.0489,-4.0489,-4.0489,-4.0489,-4.0489,-4.0489,-4.0489,-4.0489,-4.0489,-4.0489,-4.0489,-4.0489,-4.0489,-4.0489,-4.0489,-4.0489,-4.0489,-4.0489,-4.0489,-4.0489,-4.0489,-4.0489,-4.0489,-4.0489,-4.0489,-4.0489,-4.0489,-4.0489,-4.0489,-4.0489,-4.0489,-4.0489,-4.0489,-4.0489,-4.0489,-4.0489,-4.0489,-4.0489,-4.0489,-4.0489,-4.0489,-4.0489,-4.0489,-4.0489,-4.0489,-4.0489,-4.0489,-4.0489,-4.0489,-4.0489,-4.0489,-4.0489,-4.0489,-4.0489,-4.0489,-4.0489,-4.0489,-4.0489,-4.0489,-4.0489,-4.0489,-4.0489,-4.0489,-4.0489,-4.0489,-4.0489,-4.0489,-4.0489,-4.0489,-4.0489,-4.0489,-4.0489,-4.0489,-4.0489,-4.0489,-4.0489,-4.0489,-4.0489,-4.0489,-4.0489,-4.0489,-4.0489,-4.0489,-4.0489,-4.0489,-4.0489,-4.0412,-3.9969,-3.9142,-3.8277,-3.7411,-3.6546,-3.5834,-3.5545,-3.6882,-3.6797,0.0,0.0,-3.7955,-3.8327,-3.8967,-3.9071,-3.9289,-4.03,-4.0489,-4.0489,-4.0489,-4.0489,-4.0489,0.0,-4.0489,-4.0489,-4.0489,-4.0489,-4.0489,-4.0489,-4.0489,-4.0489,-4.0489,-4.0489,-4.0489,-4.0489,-4.0489,-4.0489,-4.0489,-4.0489,-4.0489,-4.0489,-4.0489,-4.0489,-4.0489,-4.0489,-4.0489,-4.0489,-4.0489,-4.0489,-4.0489,-4.0489,-4.0489,-4.0489,-4.0489,-4.0406,-4.0269,-4.0269,-4.0157,-3.9984,-3.9984,-3.9984,-4.0024,-4.037,-4.0489,-4.0489,-4.0489,-4.0489,-4.0489,-4.0489,-4.0489,-4.0489,-4.0489,-4.0489,-4.0489,-4.0489,-4.0489,-4.0489,-4.0489,-4.0489,-4.0489,-4.0489,-4.0489,-4.0489,-4.0489,-4.0489,-4.0489,-4.0489,-4.0489,-4.0489,-4.0489,-4.0489,-4.0489,-4.0489,-4.0489,-4.0489,-4.0489,-4.0489,-4.0489,-4.0489,-4.0489,-4.0489,-4.0489,-4.0489,-4.0489,-4.0489,-4.0489,-4.0489,-4.0489,-4.0489,-4.0489,-4.0489,-4.0489,-4.0085,-3.9296,-3.843,-3.7546,-3.668,-3.5872,-3.5526,-3.7088,0.0,0.0,-3.7817,-3.8338,-3.8671,-3.8712,-3.8866,-3.9261,-4.0079,-4.0248,-4.0248,-4.0248,-4.0319,-4.0389,-4.0389,-4.0389,-4.0425,-4.0489,-4.0441,-4.0425,-4.0489,-4.0489,-4.0489,-4.0489,-4.0489,-4.0489,-4.0489,-4.0489,-4.0489,-4.0489,-4.0489,-4.0489,-4.0489,-4.0489,-4.0489,-4.0489,-4.0441,-4.0389,-4.0389,-4.0389,-4.0336,-4.0248,-4.0248,-4.0248,-4.0248,-4.0248,-4.0138,-3.9943,-3.9943,-3.9819,-3.9599,-3.9599,-3.9599,-3.9668,-4.0082,-4.0248,-4.0248,-4.0248,-4.0248,-4.0248,-4.0248,-4.0248,-4.0248,-4.0248,-4.0248,-4.0266,-4.0372,-4.0389,-4.0425,-4.0473,-4.0489,-4.0489,-4.0489,-4.0489,-4.0489,-4.0489,-4.0441,-4.0406,-4.0489,-4.0441,-4.0406,-4.0489,-4.0489,-4.0489,-4.0489,-4.0489,-4.0489,-4.0489,-4.0489,-4.0489,-4.0489,-4.0489,-4.0489,-4.0489,-4.0489,-4.0489,-4.0489,-4.0489,-4.0489,-4.0489,-4.0489,-4.0489,-4.0489,-4.0489,-4.02,-3.9623,-3.8777,-3.7911,-3.7046,-3.6219,-3.5718,0.0,0.0,-3.7297,-3.8083,-3.8935,-3.9561,-3.9561,-3.9561,-3.9584,-3.9622,-3.9622,-3.9622,-3.9622,-3.9901,-4.012,-4.012,-4.012,-4.0195,-4.0473,-4.0286,-4.0195,-4.0473,-4.0489,-4.0489,0.0,-4.0489,-4.0489,-4.0489,-4.0489,-4.0489,-4.0489,-4.0489,-4.0489,-4.0489,-4.0489,-4.0489,-4.0489,-4.0232,-4.012,-4.012,-4.012,-3.9943,-3.9622,-3.9622,-3.9622,-3.9622,-3.9622,-3.9622,-3.9622,-3.9622,-3.9599,-3.9599,-3.9599,-3.9599,-3.9599,-3.9622,-3.9622,-3.9622,-3.9622,-3.9622,-3.9622,-3.9622,-3.9622,-3.9622,-3.9622,-3.9622,-3.969,-4.0022,-4.012,-4.0177,-4.0422,-4.0489,-4.0489,-4.0489,-4.0489,-4.0489,-4.0489,-4.0304,-4.0177,-4.0457,-4.0304,-4.0195,-4.0457,-4.0489,-4.0489,-4.0489,-4.0489,-4.0489,-4.0489,-4.0489,-4.0489,-4.0489,-4.0489,-4.0489,-4.0489,-4.0489,-4.0489,-4.0489,-4.0489,-4.0489,-4.0489,-4.0489,-4.0489,-4.0489,-4.0489,-4.0489,-4.045,-3.9642,-3.8815,-3.795,-3.7065,-3.6257,0.0,0.0,-3.7553,-3.8368,-3.8795,-3.9064,-3.9231,-3.9264,-3.9339,-3.9552,-3.9165,-3.881,-3.881,-3.8896,-3.8961,-3.8961,-3.9416,-3.9797,-3.9884,-3.984,-3.9882,-4.0195,-4.0232,0.0,0.0,0.0,0.0,-4.0489,-4.0489,-4.0489,-4.0489,-4.0489,-4.0425,-4.0232,-4.0749,-4.0921,-4.0699,-4.1139,-4.1358,-4.1358,-4.081,-4.0499,-4.0387,-3.9844,-3.9599,-3.9599,-3.9599,-3.9462,-3.9264,-3.9264,-3.9171,-3.8998,-3.8998,-3.8998,-3.8998,-3.8998,-3.8998,-3.9064,-3.9457,-3.9599,-3.9599,-3.9599,-3.9599,-3.9599,-3.9599,-3.9599,-3.9622,-3.9731,-3.9922,-4.012,-4.0213,-4.0372,-4.0489,-4.0489,-4.0489,-4.0489,-4.0489,-4.0441,-4.0339,-4.025,-4.0304,-4.0339,-4.025,-4.0372,-4.0489,-4.0489,-4.0489,-4.0489,-4.0489,-4.0489,-4.0489,-4.0489,-4.0489,-4.0489,-4.0489,-4.0489,-4.0489,-4.0489,-4.0489,-4.0489,-4.0489,-4.0489,-4.0489,-4.0489,-4.0489,-4.0489,-4.0489,-3.9681,-3.8854,-3.7988,-3.7123,-3.6276,-3.6413,-3.7092,-3.7679,-3.8505,-3.8707,-3.875,-3.8923,-3.8961,-3.9017,-3.9223,-3.8639,-3.8085,-3.8085,-3.8139,-3.8141,-3.784,-3.8479,-3.9077,-3.9321,-3.9255,-3.9435,-4.0157,-4.0232,-4.0321,0.0,0.0,0.0,-4.0489,-4.0489,-4.0457,-4.0356,-4.0356,-4.0366,-4.0338,-4.0851,-4.1158,-4.1229,-4.1649,-4.186,-4.186,-4.1202,-4.0985,-4.1053,-4.0124,-3.9724,-3.9705,-3.9406,-3.9163,-3.8961,-3.8961,-3.8873,-3.8707,-3.8707,-3.8707,-3.8707,-3.8707,-3.8707,-3.875,-3.9154,-3.9294,-3.9294,-3.9294,-3.9294,-3.9294,-3.9294,-3.9294,-3.9301,-3.9408,-3.9576,-3.9797,-4.0022,-4.0213,-4.0372,-4.0473,-4.0489,-4.0473,-4.0372,-4.0248,-4.012,-3.9963,-3.9964,-3.9985,-3.9943,-4.0062,-4.023,-4.0339,-4.0356,-4.0389,-4.0489,-4.0489,-4.0489,-4.0489,-4.0489,-4.0489,-4.0489,-4.0489,-4.0489,-4.0489,-4.0489,-4.0489,-4.0489,-4.0489,-4.0489,-4.0489,-4.0489,-4.0489,-4.0489,-3.9969,-3.9277,-3.843,-3.7565,-3.6719,-3.7055,-3.7544,-3.7734,-3.8505,-3.8707,-3.8707,-3.8707,-3.8707,-3.8689,-3.8652,-3.7991,-3.7404,0.0,0.0,-3.7571,-3.6807,-3.7403,-3.8171,-3.8784,-3.8601,-3.8928,0.0,0.0,0.0,0.0,0.0,0.0,-4.0438,0.0,-4.0356,-4.0101,-4.0081,-4.0281,-4.0758,-4.0809,-4.1224,-4.2001,-4.1801,-4.1686,-4.1686,-4.1341,-4.1322,-4.1611,-4.0474,-3.9937,-3.9845,-3.9093,-3.8744,-3.8707,-3.8707,-3.8707,-3.8707,-3.8707,-3.8707,-3.8707,-3.8707,-3.8707,-3.8707,-3.8707,-3.8707,-3.8707,-3.8707,-3.8707,-3.8707,-3.8707,-3.8707,-3.8762,-3.9027,-3.9099,-3.9238,-3.988,-4.0061,-4.0139,-4.0389,-4.0473,-4.0425,-4.0139,-3.9859,-3.9622,-3.9576,-3.9314,-3.9231,-3.9552,-3.9599,-3.9709,-4.0022,-4.0081,-4.0177,-4.0473,-4.0489,-4.0489,-4.0489,-4.0489,-4.0489,-4.0489,-4.0489,-4.0489,-4.0489,-4.0489,-4.0489,-4.0489,-4.0489,-4.0489,-4.0489,-4.0489,-4.0489,-4.0489,-4.0489,-4.0085,-3.9277,-3.8411,-3.7526,-3.7367,-3.7936,-3.8432,-3.8652,-3.8707,-3.8707,-3.8707,-3.8707,-3.8524,-3.7918,-3.7165,-3.6413,0.0,0.0,0.0,-3.6426,-3.7569,0.0,-3.8711,-3.8674,0.0,-3.94,0.0,-3.9561,-3.98,-3.9821,0.0,0.0,-4.0062,-4.0062,-3.9735,-3.9731,-3.9953,-4.04,-4.1054,-4.1659,-4.221,-4.2742,-4.3023,-4.3023,-4.2301,-4.2059,-4.2101,-4.1181,-4.0469,-3.9882,-3.968,-3.9239,-3.8707,-3.8707,-3.8707,-3.8707,-3.8707,-3.8707,-3.8707,-3.8707,-3.8707,-3.8707,-3.8707,-3.8707,-3.8707,-3.8707,-3.8707,-3.8707,-3.8707,-3.8707,-3.8719,-3.8773,-3.8933,-3.9152,-3.9314,-3.9552,-3.9735,-3.9821,-4.0023,-4.0101,-3.9797,-3.9859,-3.9819,-3.9314,-3.9178,-3.9231,-3.9552,-3.9599,-3.9622,-3.9712,-3.9731,-3.9924,-4.0422,-4.0489,-4.0489,-4.0489,-4.0489,-4.0489,-4.0489,-4.0489,-4.0489,-4.0489,-4.0489,-4.0489,-4.0489,-4.0489,-4.0489,-4.0489,-4.0489,-4.0489,-4.0489,-4.0489,-4.0085,-3.9277,-3.8411,-3.7526,-3.7918,-3.8358,-3.8707,-3.8707,-3.8707,-3.8615,-3.8248,-3.8175,-3.7936,-3.7129,-3.6303,0.0,0.0,0.0,0.0,0.0,0.0,0.0,-3.8338,-3.8348,-3.86,0.0,-3.9314,0.0,-3.9576,-3.9599,-3.9552,0.0,-3.969,-3.9712,-3.9389,-3.9364,-3.9605,-4.0108,-4.094,-4.1852,-4.2818,-4.3259,-4.3497,-4.3479,-4.3039,-4.2818,-4.28,-4.1992,-4.1203,-4.0414,-4.0047,-3.9441,-3.8707,-3.8707,-3.8707,-3.8707,-3.8707,-3.8707,-3.8707,-3.8707,-3.8707,-3.8707,-3.8707,-3.8707,-3.8707,-3.8707,-3.8707,-3.8707,-3.8707,-3.8707,-3.8707,-3.8707,-3.8803,-3.8961,-3.9072,-3.9238,-3.9414,-3.9576,-3.9735,-3.9797,-3.9438,-3.9529,-3.9505,-3.9017,-3.8905,-3.899,-3.9163,-3.9208,-3.9223,-3.9339,-3.9364,-3.9557,-4.0043,-4.023,-4.0321,-4.0321,-4.0441,-4.0489,-4.0489,-4.0489,-4.0489,-4.0489,-4.0489,-4.0489,-4.0489,-4.0489,-4.0489,-4.0489,-4.0489,-4.0489,-4.0489,-4.0489,-4.0258,-3.9796,-3.895,-3.8104,-3.8505,-3.8707,-3.8707,-3.8707,-3.8707,-3.8487,-3.7661,-3.7507,-3.7221,-3.6321,0.0,-3.4954,-3.4844,-3.555,-3.5917,-3.5265,0.0,-3.7624,-3.7949,-3.8021,-3.8369,-3.9357,-3.9481,-3.9481,-3.9481,-3.9481,-3.9358,-3.9063,-3.9308,-3.9358,-3.9063,-3.9063,-3.9303,-3.9895,-4.0781,-4.1937,-4.3314,-4.3442,-4.3497,-4.3497,-4.3497,-4.3497,-4.3461,-4.2782,-4.1974,-4.1075,-4.0359,-3.9533,-3.8707,-3.8707,-3.8707,-3.8707,-3.8707,-3.8707,-3.8707,-3.8707,-3.8707,-3.8707,-3.8707,-3.8707,-3.8707,-3.8707,-3.8707,-3.8707,-3.8707,-3.8707,-3.8707,-3.8707,-3.8707,-3.8762,-3.8971,-3.9063,-3.9099,-3.9408,-3.9505,-3.9438,-3.9099,-3.9063,-3.8971,-3.875,-3.8707,-3.8707,-3.8707,-3.8707,-3.8773,-3.9008,-3.9063,-3.9152,-3.9432,-3.9797,-4.0042,-4.0101,-4.0321,-4.0457,-4.0489,-4.0489,-4.0489,-4.0489,-4.0489,-4.0489,-4.0489,-4.0489,-4.0489,-4.0489,-4.0489,-4.0489,-4.0489,-4.0489,-4.0489,-4.0469,-3.9662,-3.8892,-3.867,-3.8707,-3.8707,-3.8707,-3.8707,-3.8487,-3.7661,-3.7507,0.0,0.0,0.0,-3.4789,-3.4137,-3.4688,0.0,-3.5973,0.0,0.0,0.0,0.0,-3.8626,0.0,0.0,0.0,0.0,0.0,0.0,0.0,-3.8833,-3.8833,-3.8762,-3.8762,-3.9118,-3.9863,-4.1332,-4.2231,-4.2506,-4.3167,-4.3497,-4.3497,-4.3497,-4.3497,-4.3497,-4.3351,-4.2488,-4.1111,-4.0965,-4.0065,-3.8707,-3.8707,-3.8707,-3.8707,-3.8707,-3.8707,-3.8707,-3.8707,-3.8707,-3.8707,-3.8707,-3.8707,-3.8707,-3.8707,-3.8707,-3.8707,-3.8707,-3.8707,-3.8707,-3.8707,-3.8707,-3.8689,-3.8762,-3.8762,-3.8773,-3.8833,-3.9017,-3.9117,-3.8815,-3.8762,-3.8762,-3.8707,-3.8707,-3.8707,-3.8707,-3.8707,-3.8738,-3.8762,-3.8762,-3.8792,-3.8833,-3.9327,-3.9797,-4.0081,-4.0139,-4.025,-4.0473,-4.0489,-4.0489,-4.0489,-4.0489,-4.0489,-4.0489,-4.0489,-4.0489,-4.0489,-4.0489,-4.0489,-4.0489,-4.0489,-4.0489,-4.0469,-3.9662,-3.9219,-3.8707,-3.8707,-3.8707,-3.8707,-3.8707,-3.8377,-3.7147,0.0,0.0,0.0,-3.4394,-3.4266,-3.3862,0.0,0.0,0.0,0.0,0.0,0.0,0.0,0.0,0.0,0.0,0.0,0.0,0.0,0.0,0.0,-3.8707,-3.8707,-3.8707,-3.8707,-3.9074,-3.9863,-4.1056,-4.1882,-4.2304,-4.3094,-4.3497,-4.3497,-4.3497,-4.3497,-4.3479,-4.3057,-4.2231,-4.1093,-4.0671,-3.9808,-3.8707,-3.8707,-3.8707,-3.8707,-3.8707,-3.8707,-3.8707,-3.8707,-3.8707,-3.8707,-3.8707,-3.8707,-3.8707,-3.8707,-3.8707,-3.8707,-3.8707,-3.8707,-3.8707,-3.8707,-3.8707,-3.8707,-3.8707,-3.8707,-3.8707,-3.8707,-3.8803,-3.8873,-3.8719,-3.8707,-3.8707,-3.8707,-3.8707,-3.8707,-3.8707,-3.8707,-3.8707,-3.8707,-3.8707,-3.8707,-3.8707,-3.8942,-3.9242,-3.9552,-3.9901,-4.0158,-4.0267,-4.0406,-4.0489,-4.0489,-4.0489,-4.0441,-4.0304,-4.0285,-4.0212,-4.0043,-4.0024,-4.0024,-4.0043,-4.0194,-4.0285,-4.0285,-4.0038,-3.97,-3.8652,-3.8707,-3.8707,-3.8707,-3.8707,-3.8285,-3.667,-3.6303,0.0,0.0,-3.3807,-3.3807,-3.3807,0.0,0.0,0.0,0.0,0.0,0.0,0.0,0.0,0.0,0.0,0.0,0.0,0.0,0.0,0.0,-3.8707,-3.8707,-3.8707,-3.8707,-3.9001,-3.9625,-4.0598,-4.1405,-4.2047,-4.3002,-4.3497,-4.3497,-4.3497,-4.3497,-4.3461,-4.2671,-4.1864,-4.1075,-4.0249,-3.9441,-3.8707,-3.8707,-3.8707,-3.8707,-3.8707,-3.8707,-3.8707,-3.8707,-3.8707,-3.8707,-3.8707,-3.8707,-3.8707,-3.8707,-3.8707,-3.8707,-3.8707,-3.8707,-3.8707,-3.8707,-3.8707,-3.8707,-3.8707,-3.8707,-3.8707,-3.8707,-3.8707,-3.8707,-3.8707,-3.8707,-3.8707,-3.8707,-3.8707,-3.8707,-3.8707,-3.8707,-3.8707,-3.8707,-3.8707,-3.8707,-3.8707,-3.8707,-3.8773,-3.8999,-3.9529,-3.9922,-3.9982,-4.0194,-4.0319,-4.0319,-4.0319,-4.0212,-4.0002,-4.0002,-3.988,-3.9599,-3.9599,-3.9599,-3.9599,-3.9861,-4.0002,-4.0002,-4.0212,-3.9974,-3.8505,-3.8707,-3.8707,-3.8707,-3.8707,-3.8285,-3.667,0.0,0.0,-3.4156,-3.3807,-3.3807,-3.3807,-3.3862,0.0,0.0,0.0,0.0,0.0,0.0,0.0,0.0,0.0,0.0,0.0,0.0,0.0,0.0,-3.8707,-3.8707,-3.8707,-3.8707,-3.8726,-3.8817,-4.0304,-4.1148,-4.1222,-4.2727,-4.3497,-4.3497,-4.3497,-4.3497,-4.3461,-4.2671,-4.1864,-4.1075,-4.0249,-3.9441,-3.8707,-3.8707,-3.8707,-3.8707,-3.8707,-3.8707,-3.8707,-3.8707,-3.8707,-3.8707,-3.8707,-3.8707,-3.8707,-3.8707,-3.8707,-3.8707,-3.8707,-3.8707,-3.8707,-3.8707,-3.8707,-3.8707,-3.8707,-3.8707,-3.8707,-3.8707,-3.8707,-3.8707,-3.8707,-3.8707,-3.8707,-3.8707,-3.8707,-3.8707,-3.8707,-3.8707,-3.8707,-3.8707,-3.8707,-3.8707,-3.8707,-3.8707,-3.8707,-3.875,-3.9017,-3.9333,-3.9622,-3.9668,-3.969,-3.969,-3.969,-3.9668,-3.9645,-3.9645,-3.9622,-3.9599,-3.9599,-3.9599,-3.9599,-3.9622,-3.9645,-3.9645,-3.9668,-3.9652,-3.8487,-3.8707,-3.8707,-3.8707,-3.834,-3.7679,-3.656,0.0,0.0,-3.4045,-3.3807,-3.3807,-3.3807,-3.3807,-3.3899,0.0,0.0,0.0,0.0,0.0,0.0,0.0,0.0,0.0,0.0,0.0,0.0,-3.8707,-3.8707,-3.8707,-3.8707,-3.8707,-3.8707,-3.8707,-3.979,-4.0616,-4.1111,-4.2213,-4.302,-4.3497,-4.3497,-4.324,-4.2745,-4.1937,-4.1148,-4.0322,-3.9533,-3.9001,-3.8707,-3.8707,-3.8707,-3.8707,-3.8707,-3.8707,-3.8707,-3.8707,-3.8707,-3.8707,-3.8707,-3.8707,-3.8707,-3.8707,-3.8707,-3.8707,-3.8707,-3.8707,-3.8707,-3.8707,-3.8707,-3.8707,-3.8707,-3.8707,-3.8707,-3.8707,-3.8707,-3.8707,-3.8707,-3.8707,-3.8707,-3.8707,-3.8707,-3.8707,-3.8707,-3.8707,-3.8707,-3.8707,-3.8707,-3.8707,-3.8707,-3.8707,-3.8707,-3.8707,-3.8933,-3.9133,-3.9289,-3.9486,-3.9599,-3.9599,-3.9599,-3.9529,-3.9314,-3.9289,-3.9205,-3.9064,-3.9064,-3.9064,-3.9064,-3.9223,-3.9289,-3.9289,-3.9505,-3.9599,-3.812,-3.8524,-3.8707,-3.8707,-3.8102,-3.7276,0.0,0.0,0.0,-3.3972,-3.3807,-3.3807,-3.3807,-3.3807,-3.3807,0.0,0.0,-3.4715,0.0,0.0,0.0,0.0,0.0,0.0,0.0,0.0,0.0,-3.8707,-3.8707,-3.8707,-3.8707,-3.8707,-3.8707,-3.8707,-3.9478,-4.0175,-4.0744,-4.1791,-4.258,-4.3149,-4.3149,-4.2837,-4.2268,-4.1222,-4.0432,-3.9845,-3.9056,-3.8707,-3.8707,-3.8707,-3.8707,-3.8707,-3.8707,-3.8707,-3.8707,-3.8707,-3.8707,-3.8707,-3.8707,-3.8707,-3.8707,-3.8707,-3.8707,-3.8707,-3.8707,-3.8707,-3.8707,-3.8707,-3.8707,-3.8707,-3.8707,-3.8707,-3.8707,-3.8707,-3.8707,-3.8707,-3.8707,-3.8707,-3.8707,-3.8707,-3.8707,-3.8707,-3.8707,-3.8707,-3.8707,-3.8707,-3.8707,-3.8707,-3.8707,-3.8707,-3.8707,-3.8707,-3.8855,-3.8971,-3.8971,-3.9197,-3.9327,-3.9327,-3.9327,-3.9223,-3.8999,-3.8971,-3.8894,-3.8707,-3.8707,-3.8707,-3.8707,-3.8884,-3.8971,-3.8971,-3.9223,-3.9327,-3.7276,-3.8083,-3.8707,-3.8707,-3.8102,-3.7276,0.0,0.0,-3.4752,-3.3972,-3.3807,-3.3807,-3.3807,-3.3807,-3.3807,-3.3807,-3.3807,-3.41,-3.488,0.0,0.0,0.0,0.0,0.0,0.0,0.0,0.0,-3.8707,-3.8707,0.0,-3.8707,-3.8707,-3.8707,-3.8707,-3.9478,-3.99,-3.99,-4.1497,-4.2304,-4.2304,-4.2304,-4.2304,-4.2249,-4.0634,-3.99,-3.9845,-3.9056,-3.8707,-3.8707,-3.8707,-3.8707,-3.8707,-3.8707,-3.8707,-3.8707,-3.8707,-3.8707,-3.8707,-3.8707,-3.8707,-3.8707,-3.8707,-3.8707,-3.8707,-3.8707,-3.8707,-3.8707,-3.8707,-3.8707,-3.8707,-3.8707,-3.8707,-3.8707,-3.8707,-3.8707,-3.8707,-3.8707,-3.8707,-3.8707,-3.8707,-3.8707,-3.8707,-3.8707,-3.8707,-3.8707,-3.8707,-3.8707,-3.8707,-3.8707,-3.8707,-3.8707,-3.8707,-3.8707,-3.8707,-3.8707,-3.8707,-3.8707,-3.8707,-3.8707,-3.8707,-3.8707,-3.8707,-3.8707,-3.8707,-3.8707,-3.8707,-3.8707,-3.8707,-3.8707,-3.8707,-3.8707,-3.8707,-3.645,-3.6872,-3.7055,-3.7055,-3.6431,-3.5734,-3.5477,0.0,-3.4119,-3.3844,-3.3807,-3.3807,-3.3807,-3.3807,-3.3807,-3.3807,-3.3807,-3.3899,-3.4137,0.0,0.0,0.0,0.0,0.0,0.0,0.0,-3.8707,-3.8707,-3.8707,-3.8707,-3.8707,-3.8707,-3.8707,-3.8707,-3.8946,-3.9331,-3.9882,-4.0396,-4.0946,-4.1497,-4.1497,-4.1203,-4.0634,-4.012,-3.9588,-3.9074,-3.8817,-3.8707,-3.8707,-3.8707,-3.8707,-3.8707,-3.8707,-3.8707,-3.8707,-3.8707,-3.8707,-3.8707,-3.8707,-3.8707,-3.8707,-3.8707,-3.8707,-3.8707,-3.8707,-3.8707,-3.8707,-3.8707,-3.8707,-3.8707,-3.8707,-3.8707,-3.8707,-3.8707,-3.8707,-3.8707,-3.8707,-3.8707,-3.8707,-3.8707,-3.8707,-3.8707,-3.8707,-3.8707,-3.8707,-3.8707,-3.8707,-3.8707,-3.8707,-3.8707,-3.8707,-3.8707,-3.8707,-3.8707,-3.8707,-3.8707,-3.8707,-3.8707,-3.8707,-3.8707,-3.8707,-3.8707,-3.8707,-3.8707,-3.8707,-3.8707,-3.8707,-3.8707,-3.8707,-3.8707,-3.8707,-3.8707,0.0,-3.6046,-3.6303,-3.6303,-3.5642,0.0,0.0,0.0,-3.3807,-3.3807,-3.3807,-3.3807,-3.3807,-3.3807,-3.3807,-3.3807,-3.3807,-3.3917,-3.4211,0.0,0.0,0.0,0.0,0.0,0.0,0.0,-3.8707,-3.8707,-3.8707,-3.8707,-3.8707,-3.8707,-3.8707,-3.8707,-3.8707,-3.8946,-3.9441,-3.9753,-4.0139,-4.0653,-4.0653,-4.0377,-3.9882,-3.9588,-3.9166,-3.8707,-3.8707,-3.8707,0.0,-3.8707,-3.8707,-3.8707,-3.8707,-3.8707,-3.8707,-3.8707,-3.8707,-3.8707,-3.8707,-3.8707,-3.8707,-3.8707,-3.8707,-3.8707,-3.8707,-3.8707,-3.8707,-3.8707,-3.8707,-3.8707,-3.8707,-3.8707,-3.8707,-3.8707,-3.8707,-3.8707,-3.8707,-3.8707,-3.8707,-3.8707,-3.8707,-3.8707,-3.8707,-3.8707,-3.8707,-3.8707,-3.8707,-3.8707,-3.8707,-3.8707,-3.8707,-3.8707,-3.8707,-3.8707,-3.8707,-3.8707,-3.8707,-3.8707,-3.8707,-3.8707,-3.8707,-3.8707,-3.8707,-3.8707,-3.8707,-3.8707,-3.8707,-3.8707,-3.8707,-3.8707,-3.8707,-3.8707,0.0,0.0,0.0,0.0,0.0,0.0,0.0,0.0,0.0,-3.3807,-3.3807,-3.3807,-3.3807,-3.3807,-3.3807,-3.3807,-3.3807,-3.4082,-3.488,0.0,0.0,0.0,0.0,0.0,0.0,-3.823,-3.8707,-3.8707,-3.8707,-3.8707,-3.8707,-3.8707,-3.8707,-3.8707,-3.8707,-3.8707,-3.8707,-3.9441,-3.9808,-3.9808,-3.9808,-3.9808,-3.979,-3.9038,-3.8707,-3.8707,-3.8707,-3.8707,-3.8707,-3.8707,-3.8707,-3.8707,-3.8707,-3.8707,-3.8707,-3.8707,-3.8707,-3.8707,-3.8707,-3.8707,-3.8707,-3.8707,-3.8707,-3.8707,-3.8707,-3.8707,-3.8707,-3.8707,-3.8707,-3.8707,-3.8707,-3.8707,-3.8707,-3.8707,-3.8707,-3.8707,-3.8707,-3.8707,-3.8707,-3.8707,-3.8707,-3.8707,-3.8707,-3.8707,-3.8707,-3.8707,-3.8707,-3.8707,-3.8707,-3.8707,-3.8707,-3.8707,-3.8707,-3.8707,-3.8707,-3.8707,-3.8707,-3.8707,-3.8707,-3.8707,-3.8707,-3.8707,-3.8707,-3.8707,-3.8707,-3.8707,-3.8707,-3.8707,-3.8707,-3.8707,-3.8707,-3.8707,-3.4027,0.0,-3.4394,-3.4394,-3.4229,0.0,0.0,0.0,0.0,0.0,0.0,0.0,0.0,-3.3807,-3.3807,-3.3807,-3.3807,-3.4082,-3.488,0.0,0.0,0.0,0.0,0.0,0.0,-3.823,-3.8707,-3.8707,-3.8707,-3.8707,-3.8707,-3.8707,-3.8707,-3.8707,-3.8707,-3.8707,-3.8707,-3.8891,-3.8982,-3.8982,-3.8982,-3.8982,-3.8982,-3.8799,-3.8707,-3.8707,-3.8707,-3.8707,-3.8707,-3.8707,-3.8707,-3.8707,-3.8707,-3.8707,-3.8707,-3.8707,-3.8707,-3.8707,-3.8707,-3.8707,-3.8707,-3.8707,-3.8707,-3.8707,-3.8707,-3.8707,-3.8707,-3.8707,-3.8707,-3.8707,-3.8707,-3.8707,-3.8707,-3.8707,-3.8707,-3.8707,-3.8707,-3.8707,-3.8707,-3.8707,-3.8707,-3.8707,-3.8707,-3.8707,-3.8707,-3.8707,-3.8707,-3.8707,-3.8707,-3.8707,-3.8707,-3.8707,-3.8707,-3.8707,-3.8707,-3.8707,-3.8707,-3.8707,-3.8707,-3.8707,-3.8707,-3.8707,-3.8707,-3.8707,-3.8707,-3.8707,-3.8707,-3.8707,-3.8707,-3.8707,-3.8707,-3.8707,-3.3807,-3.3807,-3.3807,-3.3807,-3.3807,-3.3807,0.0,0.0,0.0,0.0,0.0,0.0,0.0,0.0,0.0,-3.3862,-3.4449,-3.511,0.0,0.0,0.0,0.0,0.0,0.0,0.0,-3.8432,-3.8707,-3.8707,-3.8707,-3.8707,-3.8707,-3.8707,-3.8707,-3.8707,-3.8707,-3.8707,-3.8707,-3.8707,-3.8707,-3.8707,-3.8707,-3.8707,-3.8707,-3.8707,-3.8707,-3.8707,-3.8707,-3.8707,-3.8707,-3.8707,-3.8707,-3.8707,-3.8707,-3.8707,-3.8707,-3.8707,-3.8707,-3.8707,-3.8707,-3.8707,-3.8707,-3.8707,-3.8707,-3.8707,-3.8707,-3.8707,-3.8707,-3.8707,-3.8707,-3.8707,-3.8707,-3.8707,-3.8707,-3.8707,-3.8707,-3.8707,-3.8707,-3.8707,-3.8707,-3.8707,-3.8707,-3.8707,-3.8707,-3.8707,-3.8707,-3.8707,-3.8707,-3.8707,-3.8707,-3.8707,-3.8707,-3.8707,-3.8707,-3.8707,-3.8707,-3.8707,-3.8707,-3.8707,-3.8707,-3.8707,-3.8707,-3.8707,-3.8707,-3.8707,-3.8707,-3.8707,-3.8707,-3.8707,-3.8707,-3.8707,-3.8707,-3.8707,-3.3807,-3.3899,-3.3954,-3.3825,-3.3807,-3.3807,0.0,0.0,0.0,0.0,0.0,0.0,0.0,0.0,0.0,0.0,0.0,0.0,0.0,0.0,0.0,0.0,0.0,0.0,-3.8469,-3.8634,-3.8707,-3.8707,-3.8707,-3.8707,-3.8707,-3.8707,-3.8707,-3.8707,-3.8707,-3.8707,-3.8707,-3.8707,-3.8707,-3.8707,-3.8707,-3.8707,-3.8707,-3.8707,-3.8707,-3.8707,-3.8707,-3.8707,-3.8707,-3.8707,-3.8707,-3.8707,-3.8707,-3.8707,-3.8707,-3.8707,-3.8707,-3.8707,-3.8707,-3.8707,-3.8707,-3.8707,-3.8707,-3.8707,-3.8707,-3.8707,-3.8707,-3.8707,-3.8707,-3.8707,-3.8707,-3.8707,-3.8707,-3.8707,-3.8707,-3.8707,-3.8707,-3.8707,-3.8707,-3.8707,-3.8707,-3.8707,-3.8707,-3.8707,-3.8707,-3.8707,-3.8707,-3.8707,-3.8707,-3.8707,-3.8707,-3.8707,-3.8707,-3.8707,-3.8707,-3.8707,-3.8707,-3.8707,-3.8707,-3.8707,-3.8707,-3.8707,-3.8707,-3.8707,-3.8707,-3.8707,-3.8707,-3.8707,-3.8707,-3.8707,-3.8707,-3.8707,-3.3807,-3.4302,-3.4642,-3.3972,-3.3807,-3.3807,0.0,0.0,0.0,0.0,0.0,0.0,0.0,0.0,0.0,0.0,0.0,0.0,0.0,0.0,0.0,0.0,0.0,-3.8303,-3.7734,-3.8303,-3.8707,-3.8707,-3.8707,-3.8707,-3.8707,-3.8707,-3.8707,-3.8707,-3.8707,-3.8707,-3.8707,-3.8707,-3.8707,-3.8707,-3.8707,-3.8707,-3.8707,-3.8707,-3.8707,-3.8707,-3.8707,-3.8707,-3.8707,-3.8707,-3.8707,-3.8707,-3.8707,-3.8707,-3.8707,-3.8707,-3.8707,-3.8707,-3.8707,-3.8707,-3.8707,-3.8707,-3.8707,-3.8707,-3.8707,-3.8707,-3.8707,-3.8707,-3.8707,-3.8707,-3.8707,-3.8707,-3.8707,-3.8707,-3.8707,-3.8707,-3.8707,-3.8707,-3.8707,-3.8707,-3.8707,-3.8707,-3.8707,-3.8707,-3.8707,-3.8707,-3.8707,-3.8707,-3.8707,-3.8707,-3.8707,-3.8707,-3.8707,-3.8707,-3.8707,-3.8707,-3.8707,-3.8707,-3.8707,-3.8707,-3.8707,-3.8707,-3.8707,-3.8707,-3.8707,-3.8707,-3.8707,-3.8707,-3.8707,-3.8707,-3.8707,-3.8707,-3.3807,-3.4082,-3.4321,-3.4131,-3.4611,-3.5147,0.0,0.0,0.0,0.0,0.0,0.0,0.0,0.0,0.0,0.0,0.0,0.0,0.0,0.0,0.0,0.0,0.0,-3.8065,-3.8138,-3.8487,-3.8707,-3.8707,-3.8707,-3.8707,-3.8707,-3.8707,-3.8707,-3.8707,-3.8707,-3.8707,-3.8707,-3.8707,-3.8707,-3.8707,-3.8707,-3.8707,-3.8707,-3.8707,-3.8707,-3.8707,-3.8707,-3.8707,-3.8707,-3.8707,-3.8707,-3.8707,-3.8707,-3.8707,-3.8707,-3.8707,-3.8707,-3.8707,-3.8707,-3.8707,-3.8707,-3.8707,-3.8707,-3.8707,-3.8707,-3.8707,-3.8707,-3.8707,-3.8707,-3.8707,-3.8707,-3.8707,-3.8707,-3.8707,-3.8707,-3.8707,-3.8707,-3.8707,-3.8707,-3.8707,-3.8707,-3.8707,-3.8707,-3.8707,-3.8707,-3.8707,-3.8707,-3.8707,-3.8707,-3.8707,-3.8707,-3.8707,-3.8707,-3.8707,-3.8707,-3.8707,-3.8707,-3.8707,-3.8707,-3.8707,-3.8707,-3.8707,-3.8707,-3.8707,-3.8707,-3.8707,-3.8707,-3.8707,-3.8707,-3.8707,-3.8707,-3.8707,-3.3652,-3.3799,-3.4016,0.0,0.0,0.0,0.0,0.0,0.0,0.0,0.0,0.0,0.0,0.0,0.0,0.0,0.0,0.0,0.0,0.0,-3.7092,-3.7698,-3.7771,-3.801,-3.8652,-3.8707,-3.8707,-3.8707,-3.8707,-3.8707,-3.8707,-3.8707,-3.8707,-3.8707,-3.8707,-3.8707,-3.8707,-3.8707,-3.8707,-3.8707,-3.8707,-3.8707,-3.8707,-3.8707,-3.8707,-3.8707,-3.8707,-3.8707,-3.8707,-3.8707,-3.8707,-3.8707,-3.8707,-3.8707,-3.8707,-3.8707,-3.8707,-3.8707,-3.8707,-3.8707,-3.8707,-3.8707,-3.8707,-3.8707,-3.8707,-3.8707,-3.8707,-3.8707,-3.8707,-3.8707,-3.8707,-3.8707,-3.8707,-3.8707,-3.8707,-3.8707,-3.8707,-3.8707,-3.8707,-3.8707,-3.8707,-3.8707,-3.8707,-3.8707,-3.8707,-3.8707,-3.8707,-3.8707,-3.8707,-3.8707,-3.8707,-3.8707,-3.8707,-3.8707,-3.8707,-3.8707,-3.8707,-3.8707,-3.8707,-3.8707,-3.8707,-3.8707,-3.8707,-3.8707,-3.8707,-3.8707,-3.8707,-3.8707,-3.8707,-3.8707,-3.8707,-3.8627,-3.3243,-3.3786,-3.4443,-3.484,0.0,0.0,0.0,0.0,0.0,0.0,0.0,0.0,0.0,0.0,0.0,0.0,0.0,0.0,0.0,0.0,-3.856,-3.8615,-3.8615,-3.8634,-3.8689,-3.8707,-3.8707,-3.8707,-3.8707,-3.8707,-3.8707,-3.8707,-3.8707,-3.8707,-3.8707,-3.8707,-3.8707,-3.8707,-3.8707,-3.8707,-3.8707,-3.8707,-3.8707,-3.8707,-3.8707,-3.8707,-3.8707,-3.8707,-3.8707,-3.8707,-3.8707,-3.8707,-3.8707,-3.8707,-3.8707,-3.8707,-3.8707,-3.8707,-3.8707,-3.8707,-3.8707,-3.8707,-3.8707,-3.8707,-3.8707,-3.8707,-3.8707,-3.8707,-3.8707,-3.8707,-3.8707,-3.8707,-3.8707,-3.8707,-3.8707,-3.8707,-3.8707,-3.8707,-3.8707,-3.8707,-3.8707,-3.8707,-3.8707,-3.8707,-3.8707,-3.8707,-3.8707,-3.8707,-3.8707,-3.8707,-3.8707,-3.8707,-3.8707,-3.8707,-3.8707,-3.8707,-3.8707,-3.8707,-3.8707,-3.8707,-3.8707,-3.8707,-3.8707,-3.8707,-3.8707,-3.8707,-3.8707,-3.8707,-3.8707,-3.8707,-3.8707,-3.8415,-3.2745,-3.3315,0.0,0.0,0.0,0.0,0.0,0.0,0.0,0.0,0.0,0.0,0.0,0.0,0.0,0.0,0.0,0.0,0.0,-3.8707,-3.8707,-3.8707,-3.8707,-3.8707,-3.8707,-3.8707,-3.8707,-3.8707,-3.8707,-3.8707,-3.8707,-3.8707,-3.8707,-3.8707,-3.8707,-3.8707,-3.8707,-3.8707,-3.8707,-3.8707,-3.8707,-3.8707,-3.8707,-3.8707,-3.8707,-3.8707,-3.8707,-3.8707,-3.8707,-3.8707,-3.8707,-3.8707,-3.8707,-3.8707,-3.8707,-3.8707,-3.8707,-3.8707,-3.8707,-3.8707,-3.8707,-3.8707,-3.8707,-3.8707,-3.8707,-3.8707,-3.8707,-3.8707,-3.8707,-3.8707,-3.8707,-3.8707,-3.8707,-3.8707,-3.8707,-3.8707,-3.8707,-3.8707,-3.8707,-3.8707,-3.8707,-3.8707,-3.8707,-3.8707,-3.8707,-3.8707,-3.8707,-3.8707,-3.8707,-3.8707,-3.8707,-3.8707,-3.8382,-3.8083,-3.7791,-3.7756,-3.7756,-3.7756,-3.835,-3.8707,-3.8707,-3.8707,-3.8707,-3.8707,-3.8707,-3.8707,-3.8707,-3.8707,-3.8707,-3.8707,-3.835,-3.8099,-3.2651,-3.3038,0.0,0.0,0.0,0.0,0.0,0.0,0.0,0.0,0.0,0.0,0.0,0.0,0.0,0.0,0.0,0.0,-3.8676,-3.8707,-3.8707,-3.8707,-3.8707,-3.8707,-3.8707,-3.8707,-3.8707,-3.8707,-3.8707,-3.8707,-3.8707,-3.8707,-3.8707,-3.8707,-3.8707,-3.8707,-3.8707,-3.8707,-3.8707,-3.8707,-3.8707,-3.8707,-3.8707,-3.8707,-3.8707,-3.8707,-3.8707,-3.8707,-3.8707,-3.8707,-3.8707,-3.8707,-3.8707,-3.8707,-3.8707,-3.8707,-3.8707,-3.8707,-3.8707,-3.8707,-3.8658,-3.8496,-3.8465,-3.8465,-3.8465,-3.8465,-3.8496,-3.8658,-3.8707,-3.8707,-3.8707,-3.8707,-3.8707,-3.8707,-3.8707,-3.8707,-3.8707,-3.8707,-3.8707,-3.8707,-3.8707,-3.8707,-3.8707,-3.8707,-3.8707,-3.8707,-3.8707,-3.8627,-3.8465,-3.8465,-3.8382,-3.8234,-3.7895,-3.7542,-3.7228,-3.719,-3.719,-3.719,-3.7861,-3.8219,-3.8219,-3.8219,-3.8219,-3.8219,-3.8219,-3.8219,-3.8219,-3.8219,-3.8219,-3.8219,-3.7843,-3.7578,-3.3003,-3.3003,0.0,0.0,0.0,0.0,0.0,0.0,0.0,0.0,0.0,0.0,0.0,0.0,0.0,0.0,-3.774,-3.8099,-3.8627,-3.8707,-3.8707,-3.8707,-3.8707,-3.8707,-3.8707,-3.8707,-3.8707,-3.8707,-3.8707,-3.8707,-3.8707,-3.8707,-3.8707,-3.8707,-3.8707,-3.8707,-3.8707,-3.8707,-3.8707,-3.8676,-3.8676,-3.8707,-3.8707,-3.8707,-3.8707,-3.8707,-3.8707,-3.8707,-3.8707,-3.8707,-3.8707,-3.8707,-3.8676,-3.8676,-3.8676,-3.8676,-3.8676,-3.8676,-3.8676,-3.8676,-3.8596,-3.8065,-3.7893,-3.7893,-3.7893,-3.7893,-3.8013,-3.8546,-3.8707,-3.8707,-3.8707,-3.8707,-3.8707,-3.8707,-3.8707,-3.8707,-3.8707,-3.8707,-3.8707,-3.8707,-3.8707,-3.8707,-3.8707,-3.8707,-3.8707,-3.8707,-3.8707,-3.8496,-3.7946,-3.7893,-3.772,-3.7248,-3.7173,-3.7173,-3.719,-3.7173,-3.7173,-3.7173,-3.7173,-3.7173,-3.719,-3.719,-3.719,-3.719,-3.719,-3.719,-3.719,-3.719,-3.719,-3.719,-3.7173,-3.6921,-3.173,0.0,0.0,0.0,0.0,0.0,0.0,0.0,0.0,0.0,0.0,0.0,0.0,0.0,0.0,-3.6434,-3.7234,-3.7946,-3.8099,-3.8465,-3.8707,-3.8707,-3.8707,-3.8707,-3.8707,-3.8707,-3.8707,-3.8707,-3.835,-3.83,-3.8676,-3.8016,-3.7982,-3.8676,-3.8332,-3.815,-3.815,-3.815,-3.7964,-3.7632,-3.7632,-3.8016,-3.8707,-3.8707,-3.8707,-3.8676,-3.83,-3.835,-3.8658,-3.83,-3.815,-3.8099,-3.7773,-3.7632,-3.7632,-3.7632,-3.7632,-3.7632,-3.7632,-3.7632,-3.7632,-3.747,-3.7396,-3.7396,-3.7396,-3.7396,-3.7433,-3.7596,-3.7895,-3.815,-3.815,-3.8433,-3.8707,-3.8707,-3.8707,-3.8707,-3.8707,-3.8707,-3.8707,-3.8707,-3.8707,-3.8707,-3.8707,-3.8707,-3.8707,-3.8707,-3.8382,-3.7946,-3.747,-3.7396,-3.721,-3.6684,-3.6661,-3.6481,-3.6097,-3.6079,-3.6079,-3.6079,-3.6079,-3.6399,-3.7173,-3.719,-3.719,-3.719,-3.719,-3.719,-3.719,-3.719,-3.719,-3.7173,-3.6803,-3.6539,-3.2341,0.0,0.0,0.0,0.0,0.0,0.0,0.0,0.0,0.0,0.0,0.0,0.0,0.0,0.0,-3.6461,-3.6929,-3.7379,-3.7578,-3.7895,-3.8083,-3.8083,-3.8083,-3.8083,-3.8083,-3.8083,-3.8083,-3.8083,-3.7808,-3.7773,-3.8101,-3.7524,-3.7487,-3.8083,-3.7773,-3.7614,-3.7614,-3.7614,-3.747,-3.719,-3.719,-3.7524,-3.8083,-3.8083,-3.8083,-3.8101,-3.7773,-3.7808,-3.8083,-3.7773,-3.7614,-3.7578,-3.7323,-3.719,-3.719,-3.719,-3.719,-3.719,-3.719,-3.719,-3.7173,-3.696,-3.6882,-3.6882,-3.6882,-3.6882,-3.6921,-3.7152,-3.7396,-3.7614,-3.7614,-3.7861,-3.8201,-3.8596,-3.8546,-3.8382,-3.8382,-3.8234,-3.8083,-3.8083,-3.8083,-3.8083,-3.8083,-3.8083,-3.8083,-3.8083,-3.7667,-3.7193,-3.6921,-3.6684,-3.644,-3.6139,-3.6097,-3.5941,-3.5622,-3.5622,-3.5622,-3.5622,-3.5622,-3.5898,-3.6522,-3.6545,-3.6545,-3.6545,-3.6545,-3.6545,-3.6545,-3.6545,-3.6545,-3.6563,-3.6207,-3.6097,0.0,0.0,0.0,0.0,0.0,0.0,0.0,0.0,0.0,0.0,0.0,0.0,0.0,0.0,-3.6498,-3.6999,-3.6684,-3.658,-3.7076,-3.719,-3.719,-3.719,-3.719,-3.719,-3.719,-3.719,-3.719,-3.719,-3.7135,-3.7152,-3.719,-3.7097,-3.7097,-3.719,-3.7135,-3.7152,-3.7152,-3.7152,-3.7097,-3.7058,-3.7058,-3.7058,-3.7058,-3.7152,-3.7173,-3.7152,-3.719,-3.7173,-3.7152,-3.7152,-3.7152,-3.7097,-3.7058,-3.7058,-3.7058,-3.7058,-3.7058,-3.7058,-3.7058,-3.7058,-3.6981,-3.6498,-3.635,-3.635,-3.635,-3.635,-3.6416,-3.6921,-3.7097,-3.7152,-3.7152,-3.7135,-3.7451,-3.8368,-3.8183,-3.7843,-3.7843,-3.7506,-3.719,-3.719,-3.719,-3.719,-3.719,-3.719,-3.7173,-3.7135,-3.6724,-3.6374,-3.6333,-3.5898,-3.5622,-3.5622,-3.5622,-3.5622,-3.5622,-3.5622,-3.5622,-3.5622,-3.5622,-3.5622,-3.5622,-3.5622,-3.5622,-3.5622,-3.5622,-3.5622,-3.5622,-3.5622,-3.5622,-3.5622,-3.5622,-3.5622,0.0,0.0,0.0,0.0,0.0,0.0,0.0,0.0,0.0,0.0,0.0,0.0,0.0,-3.5854,-3.5827,-3.5941,-3.6224,-3.6457,-3.658,-3.6943,-3.719,-3.719,-3.719,-3.719,-3.719,-3.719,-3.719,-3.719,-3.6803,-3.6764,-3.719,-3.6399,-3.6316,-3.7173,-3.6803,-3.6563,-3.6563,-3.6563,-3.6374,-3.5924,-3.5924,-3.5924,-3.5968,-3.6825,-3.696,-3.662,-3.7038,-3.696,-3.6563,-3.6563,-3.6563,-3.6539,-3.6097,-3.5924,-3.5924,-3.5924,-3.5924,-3.5924,-3.5924,-3.5924,-3.5941,-3.5827,-3.5783,-3.5783,-3.5783,-3.5783,-3.5827,-3.5898,-3.6249,-3.6563,-3.6563,-3.6865,-3.7248,-3.7487,-3.7433,-3.736,-3.736,-3.7248,-3.719,-3.719,-3.719,-3.719,-3.719,-3.719,-3.7076,-3.6661,-3.6457,-3.6266,-3.5827,-3.565,-3.5622,-3.5622,-3.5622,-3.5622,-3.5622,-3.5622,-3.5622,-3.5622,-3.5622,-3.5622,-3.5622,-3.5622,-3.5622,-3.5622,-3.5622,-3.5622,-3.5622,-3.5622,-3.5622,-3.5622,-3.5622,-3.5622,0.0,0.0,0.0,0.0,0.0,0.0,0.0,0.0,0.0,0.0,0.0,0.0,0.0,-3.5622,-3.5622,-3.5622,-3.581,-3.6028,-3.6028,-3.6249,-3.644,-3.644,-3.644,-3.644,-3.644,-3.644,-3.644,-3.644,-3.6165,-3.6139,-3.6399,-3.5881,-3.5854,-3.6399,-3.6165,-3.6028,-3.6028,-3.6028,-3.5854,-3.5622,-3.5622,-3.5622,-3.5622,-3.6165,-3.6291,-3.6011,-3.6333,-3.6291,-3.6028,-3.6028,-3.6028,-3.5985,-3.5694,-3.5622,-3.5622,-3.5622,-3.5622,-3.5622,-3.5622,-3.5622,-3.5622,-3.5622,-3.5622,-3.5622,-3.5622,-3.5622,-3.5622,-3.5622,-3.5827,-3.6028,-3.6028,-3.6207,-3.644,-3.644,-3.6643,-3.6803,-3.6803,-3.6603,-3.644,-3.644,-3.644,-3.644,-3.644,-3.644,-3.6316,-3.6054,-3.6028,-3.5898,-3.5622,-3.5622,-3.5622,-3.5622,-3.5622,-3.5622,-3.5622,-3.5622,-3.5622,-3.5622,-3.5622,-3.5622,-3.5622,-3.5622,-3.5622,-3.5622,-3.5622,-3.5622,-3.5622,-3.5622,-3.5622,-3.5622,-3.5622,-3.5622,0.0,0.0,0.0,0.0,0.0,0.0,0.0,0.0,0.0,0.0,0.0,0.0,-3.5622,-3.5622,-3.5622,-3.5622,-3.5622,-3.5622,-3.5622,-3.5622,-3.5622,-3.5622,-3.5622,-3.5622,-3.5622,-3.5622,-3.5622,-3.5622,-3.5622,-3.5622,-3.5622,-3.5622,-3.5622,-3.5622,-3.5622,-3.5622,-3.5622,-3.5622,-3.5622,-3.5622,-3.5622,-3.5622,-3.5622,-3.5622,-3.5622,-3.5622,-3.5622,-3.5622,-3.5622,-3.5622,-3.5622,-3.5622,-3.5622,-3.5622,-3.5622,-3.5622,-3.5622,-3.5622,-3.5622,-3.5622,-3.5622,-3.5622,-3.5622,-3.5622,-3.5622,-3.5622,-3.5622,-3.5622,-3.5622,-3.5622,-3.5622,-3.5622,-3.5622,-3.5622,-3.5941,-3.6266,-3.6266,-3.5898,-3.5622,-3.5622,-3.5622,-3.5622,-3.5622,-3.5622,-3.5622,-3.5622,-3.5622,-3.5622,-3.5622,-3.5622,-3.5622,-3.5622,-3.5622,-3.5622,-3.5622,-3.5622,-3.5622,-3.5622,-3.5622,-3.5622,-3.5622,-3.5622,-3.5622,-3.5622,-3.5622,-3.5622,-3.5622,-3.5622,-3.5622,-3.5622,-3.5622,-3.5622,0.0,0.0,0.0,0.0,0.0,0.0,0.0,0.0,0.0,0.0,0.0,0.0,-3.5622,-3.5622,-3.5622,-3.5622,-3.5622,-3.5622,-3.5622,-3.5622,-3.5622,-3.5622,-3.5622,-3.5622,-3.5622,-3.5622,-3.5622,-3.5622,-3.5622,-3.5622,-3.5622,-3.5622,-3.5622,-3.5622,-3.5622,-3.5622,-3.5622,-3.5622,-3.5622,-3.5622,-3.5622,-3.5622,-3.5622,-3.5622,-3.5622,-3.5622,-3.5622,-3.5622,-3.5622,-3.5622,-3.5622,-3.5622,-3.5622,-3.5622,-3.5622,-3.5622,-3.5622,-3.5622,-3.5622,-3.5622,-3.5622,-3.5622,-3.5622,-3.5622,-3.5622,-3.5622,-3.5622,-3.5622,-3.5622,-3.5622,-3.5622,-3.5622,-3.5622,-3.5622,-3.565,-3.5694,-3.5694,-3.5667,-3.5622,-3.5622,-3.5622,-3.5622,-3.5622,-3.5622,-3.5622,-3.5622,-3.5622,-3.5622,-3.5622,-3.5622,-3.5622,-3.5622,-3.5622,-3.5622,-3.5622,-3.5622,-3.5622,-3.5622,-3.5622,-3.5622,-3.5622,-3.5622,-3.5622,-3.5622,-3.5622,-3.5622,-3.5622,-3.5622,-3.5622,-3.5622,-3.5622,-3.5622,0.0,0.0,0.0,0.0,0.0,0.0,0.0,0.0,0.0,0.0,0.0,-3.5622,-3.5622,-3.5622,-3.5622,-3.5622,-3.5622,-3.5622,-3.5622,-3.5622,-3.5622,-3.5622,-3.5622,-3.5622,-3.5622,-3.5622,-3.5622,-3.5622,-3.5622,-3.5622,-3.5622,-3.5622,-3.5622,-3.5622,-3.5622,-3.5622,-3.5622,-3.5622,-3.5622,-3.5622,-3.5622,-3.5622,-3.5622,-3.5622,-3.5622,-3.5622,-3.5622,-3.5622,-3.5622,-3.5622,-3.5622,-3.5622,-3.5622,-3.5622,-3.5622,-3.5622,-3.5622,-3.5622,-3.5622,-3.5622,-3.5622,-3.5622,-3.5622,-3.5622,-3.5622,-3.5622,-3.5622,-3.5622,-3.5622,-3.5622,-3.5622,-3.5622,-3.5622,-3.5622,-3.5622,-3.5622,-3.5622,-3.5622,-3.5622,-3.5622,-3.5622,-3.5622,-3.5622,-3.5622,-3.5622,-3.5622,-3.5622,-3.5622,-3.5622,-3.5622,-3.5622,-3.5622,-3.5622,-3.5622,-3.5622,-3.5622,-3.5622,-3.5622,-3.5622,-3.5622,-3.5622,-3.5622,-3.5622,-3.5622,-3.5622,-3.5622,-3.5622,-3.5622,-3.5622,-3.5622,-3.5622,-3.5622,0.0,0.0,0.0,0.0,0.0,0.0,0.0,0.0,0.0,0.0,0.0,-3.5622,-3.5622,-3.5622,-3.5622,-3.5622,-3.5622,-3.5622,-3.5622,-3.5622,-3.5622,-3.5622,-3.5622,-3.5622,-3.5622,-3.5622,-3.5622,-3.5622,-3.5622,-3.5622,-3.5622,-3.5622,-3.5622,-3.5622,-3.5622,-3.5622,-3.5622,-3.5622,-3.5622,-3.5622,-3.5622,-3.5622,-3.5622,-3.5622,-3.5622,-3.5622,-3.5622,-3.5622,-3.5622,-3.5622,-3.5622,-3.5622,-3.5622,-3.5622,-3.5622,-3.5622,-3.5622,-3.5622,-3.5622,-3.5622,-3.5622,-3.5622,-3.5622,-3.5622,-3.5622,-3.5622,-3.5622,-3.5622,-3.5622,-3.5622,-3.5622,-3.5622,-3.5622,-3.5622,-3.5622,-3.5622,-3.5622,-3.5622,-3.5622,-3.5622,-3.5622,-3.5622,-3.5622,-3.5622,-3.5622,-3.5622,-3.5622,-3.5622,-3.5622,-3.5622,-3.5622,-3.5622,-3.5622,-3.5622,-3.5622,-3.5622,-3.5622,-3.5622,-3.5622,-3.5622,-3.5622,-3.5622,-3.5622,-3.5622,-3.5622,-3.5622,-3.5622,-3.5622,-3.5622,-3.5622,-3.5622,-3.5622,0.0,0.0,0.0,0.0,0.0,0.0,0.0,0.0,0.0,0.0,-3.5622,-3.5622,-3.5622,-3.5622,-3.5622,-3.5622,-3.5622,-3.5622,-3.5622,-3.5622,-3.5622,-3.5622,-3.5622,-3.5622,-3.5622,-3.5622,-3.5622,-3.5622,-3.5622,-3.5622,-3.5622,-3.5622,-3.5622,-3.5622,-3.5622,-3.5622,-3.5622,-3.5622,-3.5622,-3.5622,-3.5622,-3.5622,-3.5622,-3.5622,-3.5622,-3.5622,-3.5622,-3.5622,-3.5622,-3.5622,-3.5622,-3.5622,-3.5622,-3.5622,-3.5622,-3.5622,-3.5622,-3.5622,-3.5622,-3.5622,-3.5622,-3.5622,-3.5622,-3.5622,-3.5622,-3.5622,-3.5622,-3.5622,-3.5622,-3.5622,-3.5622,-3.5622,-3.5622,-3.5622,-3.5622,-3.5622,-3.5622,-3.5622,-3.5622,-3.5622,-3.5622,-3.5622,-3.5622,-3.5622,-3.5622,-3.5622,-3.5622,-3.5622,-3.5622,-3.5622,-3.5622,-3.5622,-3.5622,-3.5622,-3.5622,-3.5622,-3.5622,-3.5622,-3.5622,-3.5622,-3.5622,-3.5622,-3.5622,-3.5622,-3.5622,-3.5622,-3.5622,-3.5622,-3.5622,-3.5622,-3.5622,-3.5622,0.0,0.0,0.0,0.0,0.0,0.0,0.0,0.0,0.0,0.0,-3.5622,-3.5622,-3.5622,-3.5622,-3.5622,-3.5622,-3.5622,-3.5622,-3.5622,-3.5622,-3.5622,-3.5622,-3.5622,-3.5622,-3.5622,-3.5622,-3.5622,-3.5622,-3.5622,-3.5622,-3.5622,-3.5622,-3.5622,-3.5622,-3.5622,-3.5622,-3.5622,-3.5622,-3.5622,-3.5622,-3.5622,-3.5622,-3.5622,-3.5622,-3.5622,-3.5622,-3.5622,-3.5622,-3.5622,-3.5622,-3.5622,-3.5622,-3.5622,-3.5622,-3.5622,-3.5622,-3.5622,-3.5622,-3.5622,-3.5622,-3.5622,-3.5622,-3.5622,-3.5622,-3.5622,-3.5622,-3.5622,-3.5622,-3.5622,-3.5622,-3.5622,-3.5622,-3.5622,-3.5622,-3.5622,-3.5622,-3.5622,-3.5622,-3.5622,-3.5622,-3.5622,-3.5622,-3.5622,-3.5622,-3.5622,-3.5622,-3.5622,-3.5622,-3.5622,-3.5622,-3.5622,-3.5622,-3.5622,-3.5622,-3.5622,-3.5622,-3.5622,-3.5622,-3.5622,-3.5622,-3.5622,-3.5622,-3.5622,-3.5622,-3.5622,-3.5622,-3.5622,-3.5622,-3.5622,-3.5622,-3.5622,-3.5622,-3.1782,0.0,0.0,0.0,0.0,0.0,0.0,0.0,0.0,0.0,-3.5622,-3.5622,-3.5622,-3.5622,-3.5622,-3.5622,-3.5622,-3.5622,-3.5622,-3.5622,-3.5622,-3.5622,-3.5622,-3.5622,-3.5622,-3.5622,-3.5622,-3.5622,-3.5622,-3.5622,-3.5622,-3.5622,-3.5622,-3.5622,-3.5622,-3.5622,-3.5622,-3.5622,-3.5622,-3.5622,-3.5622,-3.5622,-3.5622,-3.5622,-3.5622,-3.5622,-3.5622,-3.5622,-3.5622,-3.5622,-3.5622,-3.5622,-3.5622,-3.5622,-3.5622,-3.5622,-3.5622,-3.5622,-3.5622,-3.5622,-3.5622,-3.5622,-3.5622,-3.5622,-3.5622,-3.5622,-3.5622,-3.5622,-3.5622,-3.5622,-3.5622,-3.5622,-3.5622,-3.5622,-3.5622,-3.5622,-3.5622,-3.5622,-3.5622,-3.5622,-3.5622,-3.5622,-3.5622,-3.5622,-3.5622,-3.5622,-3.5622,-3.5622,-3.5622,-3.5622,-3.5622,-3.5622,-3.5622,-3.5622,-3.5622,-3.5622,-3.5622,-3.5622,-3.5622,-3.5622,-3.5622,-3.5622,-3.5622,-3.5622,-3.5622,-3.5622,-3.5622,-3.5622,-3.5622,-3.5622,-3.5622,-3.5622,0.0,0.0,0.0,0.0,0.0,0.0,0.0,0.0,0.0,0.0,-3.5605,-3.5622,-3.5622,-3.5622,-3.5622,-3.5622,-3.5622,-3.5622,-3.5622,-3.5622,-3.5622,-3.5622,-3.5622,-3.5622,-3.5622,-3.5622,-3.5622,-3.5622,-3.5622,-3.5622,-3.5622,-3.5622,-3.5622,-3.5622,-3.5622,-3.5622,-3.5622,-3.5622,-3.5622,-3.5622,-3.5622,-3.5622,-3.5622,-3.5622,-3.5622,-3.5622,-3.5622,-3.5622,-3.5622,-3.5622,-3.5622,-3.5622,-3.5622,-3.5622,-3.5622,-3.5622,-3.5622,-3.5622,-3.5622,-3.5622,-3.5622,-3.5622,-3.5622,-3.5622,-3.5622,-3.5622,-3.5622,-3.5622,-3.5622,-3.5622,-3.5622,-3.5622,-3.5622,-3.5622,-3.5622,-3.5622,-3.5622,-3.5622,-3.5622,-3.5622,-3.5622,-3.5622,-3.5622,-3.5622,-3.5622,-3.5622,-3.5622,-3.5622,-3.5622,-3.5622,-3.5622,-3.5622,-3.5622,-3.5622,-3.5622,-3.5622,-3.5622,-3.5622,-3.5622,-3.5622,-3.5622,-3.5622,-3.5622,-3.5622,-3.5622,-3.5622,-3.5622,-3.5622,-3.5622,-3.5622,-3.5622,-3.5622,-3.119,0.0,0.0,0.0,0.0,0.0,0.0,0.0,0.0,-3.4759,-3.5233,-3.5622,-3.5622,-3.5622,-3.5622,-3.5622,-3.5622,-3.5622,-3.5622,-3.5622,-3.5622,-3.5622,-3.5622,-3.5622,-3.5622,-3.5622,-3.5622,0.0,-3.5622,-3.5622,-3.5622,-3.5622,-3.5622,-3.5622,-3.5622,-3.5622,-3.5622,-3.5622,-3.5622,-3.5622,-3.5622,-3.5622,-3.5622,-3.5622,-3.5622,-3.5622,-3.5622,-3.5622,-3.5622,-3.5622,-3.5622,-3.5622,-3.5622,-3.5622,-3.5622,-3.5622,-3.5622,-3.5622,-3.5622,-3.5622,-3.5622,-3.5622,-3.5622,-3.5622,-3.5622,-3.5622,-3.5622,-3.5622,-3.5622,-3.5622,-3.5622,-3.5622,-3.5622,-3.5622,-3.5622,-3.5622,-3.5622,-3.5622,-3.5622,-3.5622,-3.5622,-3.5622,-3.5622,-3.5622,-3.5622,-3.5622,-3.5622,-3.5622,-3.5622,-3.5622,-3.5622,-3.5622,-3.5622,-3.5622,-3.5622,-3.5622,-3.5622,-3.5622,-3.5622,-3.5622,-3.5622,-3.5622,-3.5622,-3.5622,-3.5622,-3.5622,-3.5622,-3.5622,-3.5622,-3.5622,-3.5622,-3.5622,0.0,0.0,0.0,0.0,0.0,0.0,-3.2611,-3.3423,-3.4218,0.0,-3.5318,-3.5622,-3.5622,-3.5622,-3.5622,-3.5622,-3.5622,-3.5622,-3.5622,-3.5622,-3.5622,-3.5622,-3.5622,-3.5622,-3.5622,-3.5622,-3.5622,-3.5622,-3.5622,-3.5622,-3.5622,-3.5622,-3.5622,-3.5622,-3.5622,-3.5622,-3.5622,-3.5622,-3.5622,-3.5622,-3.5622,-3.5622,-3.5622,-3.5622,-3.5622,-3.5622,-3.5622,-3.5622,-3.5622,-3.5622,-3.5622,-3.5622,-3.5622,-3.5622,-3.5622,-3.5622,-3.5622,-3.5622,-3.5622,-3.5622,-3.5622,-3.5622,-3.5622,-3.5622,-3.5622,-3.5622,-3.5622,-3.5622,-3.5622,-3.5622,-3.5622,-3.5622,-3.5622,-3.5622,-3.5622,-3.5622,-3.5622,-3.5622,-3.5622,-3.5622,-3.5622,-3.5622,-3.5622,-3.5622,-3.5622,-3.5622,-3.5622,-3.5622,-3.5622,-3.5622,-3.5622,-3.5622,-3.5622,-3.5622,-3.5622,-3.5622,-3.5622,-3.5622,-3.5622,-3.5622,-3.5622,-3.5622,-3.5622,-3.5622,-3.5622,-3.5622,-3.5622,-3.5622,-3.5622,-3.5622,-3.5622,-3.5622,0.0,0.0,0.0,0.0,-3.119,0.0,-3.2865,-3.322,-3.366,-3.4979,-3.5318,-3.5385,-3.5385,-3.5385,-3.5385,-3.5385,-3.5436,-3.552,-3.5605,-3.5622,-3.5622,-3.5622,-3.5622,-3.5622,-3.5622,-3.5622,-3.5622,-3.5622,-3.5622,-3.5622,-3.5622,-3.5622,-3.5622,-3.5622,-3.5622,-3.5622,-3.5622,-3.5622,-3.5622,-3.5622,-3.5622,-3.5622,-3.5622,-3.5622,-3.5622,-3.5622,-3.5622,-3.5622,-3.5622,-3.5622,-3.5622,-3.5622,-3.5622,-3.5622,-3.5622,-3.5622,-3.5622,-3.5622,-3.5622,-3.5622,-3.5622,-3.5622,-3.5622,-3.5622,-3.5622,-3.5622,-3.5622,-3.5622,-3.5622,-3.5622,-3.5622,-3.5622,-3.5622,-3.5622,-3.5622,-3.5622,-3.5622,-3.5622,-3.5622,-3.5622,-3.5622,-3.5622,-3.5622,-3.5622,-3.5622,-3.5622,-3.5622,-3.5622,-3.5622,-3.5622,-3.5622,-3.5622,-3.5622,-3.5577,-3.5515,-3.547,-3.547,-3.547,-3.5424,-3.5407,-3.547,-3.547,-3.547,-3.547,-3.556,-3.5622,-3.5622,-3.5622,-3.5622,-3.5622,-3.5622,-3.5622,0.0,0.0,0.0,-3.119,-3.119,0.0,-3.1562,-3.207,-3.2577,0.0,-3.3423,-3.3846,-3.3846,-3.3846,-3.3846,-3.3846,-3.4336,-3.4928,-3.5537,-3.5622,-3.5622,-3.5622,-3.5622,-3.5622,-3.5622,-3.5622,-3.5622,-3.5622,-3.5622,-3.5622,-3.5622,-3.5622,-3.5622,-3.5622,-3.5622,-3.5622,-3.5622,-3.5622,-3.5622,-3.5622,-3.5622,-3.5622,-3.5622,-3.5622,-3.5622,-3.5622,-3.5622,-3.5622,-3.5622,-3.5622,-3.5622,-3.5622,-3.5622,-3.5622,-3.5622,-3.5622,-3.5622,-3.5622,-3.5622,-3.5622,-3.5622,-3.5622,-3.5622,-3.5622,-3.5622,-3.5622,-3.5622,-3.5622,-3.5622,-3.5622,-3.5622,-3.5622,-3.5622,-3.5622,-3.5622,-3.5622,-3.5622,-3.5622,-3.5622,-3.5622,-3.5622,-3.5622,-3.5622,-3.5622,-3.5622,-3.5622,-3.5622,-3.5622,-3.5622,-3.5622,-3.5622,-3.5622,-3.5622,-3.5362,-3.483,-3.48,-3.48,-3.48,-3.4301,-3.4235,-3.4783,-3.48,-3.48,-3.48,-3.5316,-3.5622,-3.5622,-3.5622,-3.5622,-3.5622,-3.5622,-3.5622,-3.1393,-3.119,-3.119,-3.119,-3.119,0.0,0.0,-3.2019,-3.2391,-3.2763,-3.3136,-3.3406,-3.3406,-3.3406,-3.3406,-3.3406,-3.4015,-3.4489,-3.4506,-3.5165,-3.5622,-3.5622,-3.5622,-3.5622,-3.5622,-3.5622,-3.5622,-3.5622,-3.5622,-3.5622,-3.5622,-3.5622,-3.5622,-3.5622,-3.5622,-3.5622,-3.5622,-3.5622,-3.5407,-3.5098,-3.5453,-3.527,-3.4609,-3.5316,-3.5424,-3.5098,-3.5453,-3.5622,-3.5622,-3.5622,-3.5622,-3.5622,-3.5622,-3.5622,-3.5622,-3.5622,-3.5622,-3.5622,-3.5622,-3.5622,-3.5622,-3.5622,-3.5622,-3.5622,-3.5622,-3.5622,-3.5622,-3.5622,-3.5622,-3.5622,-3.5622,-3.5622,-3.5622,-3.5622,-3.5622,-3.5622,-3.5622,-3.5622,-3.5622,-3.5622,-3.5622,-3.5622,-3.5622,-3.5622,-3.5622,-3.5622,-3.5622,-3.5622,-3.5622,-3.5622,-3.5622,-3.5622,-3.5622,-3.547,-3.5144,-3.4783,-3.4736,-3.5098,-3.4137,-3.3887,-3.4576,-3.4284,-3.4284,-3.4576,-3.5253,-3.5622,-3.5622,-3.5622,-3.5622,-3.5622,-3.5622,-3.5622,-3.1427,-3.119,-3.119,-3.119,-3.119,-3.136,0.0,0.0,0.0,-3.2848,0.0,0.0,0.0,0.0,0.0,0.0,0.0,0.0,0.0,-3.4353,0.0,-3.5199,-3.5453,-3.5509,-3.5222,-3.5206,-3.5256,-3.5407,-3.529,-3.5273,-3.5407,-3.5407,-3.5362,-3.5207,-3.547,-3.547,-3.5207,-3.5362,-3.5052,-3.4431,-3.4958,-3.4657,-3.3633,-3.4847,-3.5098,-3.464,-3.5316,-3.5622,-3.5622,-3.5622,-3.5622,-3.5622,-3.5622,-3.5622,-3.5622,-3.5622,-3.5622,-3.5622,-3.5622,-3.5622,-3.5622,-3.5622,-3.5622,-3.5622,-3.5622,-3.5622,-3.5622,-3.5622,-3.5622,-3.5622,-3.5622,-3.5622,-3.5622,-3.5622,-3.5622,-3.5622,-3.5622,-3.5622,-3.5622,-3.5622,-3.5622,-3.5622,-3.5622,-3.5622,-3.5622,-3.5622,-3.5622,-3.5622,-3.5622,-3.5622,-3.5622,-3.5622,-3.5622,-3.5515,-3.5224,-3.4736,-3.4592,-3.5021,-3.3887,-3.3479,-3.4186,-3.3684,-3.3786,-3.4576,-3.5144,-3.547,-3.5622,-3.5622,-3.5622,-3.5622,-3.5622,-3.5622,-3.1579,-3.119,-3.119,-3.119,-3.119,-3.1207,-3.1309,0.0,-3.1343,-3.1427,0.0,-3.1444,0.0,0.0,0.0,0.0,0.0,0.0,-3.2425,-3.3119,-3.366,-3.366,-3.481,-3.511,-3.3859,-3.3746,-3.4011,-3.4686,-3.411,-3.4011,-3.4703,-3.4736,-3.4431,-3.3836,-3.4958,-3.5021,-3.3836,-3.4447,-3.4382,-3.3735,-3.3786,-3.3751,-3.3633,-3.4382,-3.4688,-3.464,-3.5316,-3.5622,-3.5622,-3.5622,-3.5622,-3.5622,-3.5622,-3.5622,-3.5622,-3.5622,-3.5622,-3.5622,-3.5622,-3.5622,-3.5622,-3.5622,-3.5622,-3.5622,-3.5622,-3.5622,-3.5622,-3.5622,-3.5622,-3.5622,-3.5622,-3.5622,-3.5622,-3.5622,-3.5622,-3.5622,-3.5622,-3.5622,-3.5622,-3.5622,-3.5622,-3.5622,-3.5622,-3.5622,-3.5622,-3.5622,-3.5622,-3.5622,-3.5622,-3.5622,-3.5622,-3.5622,-3.5622,-3.5115,-3.3937,-3.3735,-3.3479,-3.3002,-3.2145,-3.2048,-3.2788,-3.2734,-3.3287,-3.4592,-3.4688,-3.5005,-3.5622,-3.5622,-3.5622,-3.5622,-3.5622,-3.5622,-3.1478,-3.1495,-3.1732,-3.1309,-3.1512,-3.1715,-3.1292,-3.119,-3.119,-3.119,0.0,0.0,0.0,0.0,0.0,0.0,-3.1799,-3.2138,0.0,0.0,-3.3406,-3.3406,0.0,0.0,-3.4102,-3.4459,-3.4672,-3.4607,-3.4296,-3.4119,-3.4021,-3.4037,-3.3887,-3.3582,-3.4153,-3.4202,-3.3582,-3.3887,-3.3684,-3.3039,-3.3391,-3.3182,-3.2407,-3.3531,-3.3786,-3.3495,-3.4544,-3.5005,-3.5052,-3.5453,-3.5362,-3.5005,-3.5005,-3.5253,-3.5622,-3.5622,-3.5622,-3.5622,-3.5622,-3.5622,-3.5532,-3.5161,-3.4752,-3.4496,-3.4894,-3.4752,-3.4609,-3.5362,-3.5052,-3.4544,-3.4894,-3.5005,-3.5005,-3.5005,-3.5316,-3.5622,-3.5622,-3.5622,-3.5622,-3.5622,-3.5622,-3.5622,-3.5622,-3.5622,-3.5622,-3.5622,-3.5622,-3.5622,-3.5622,-3.5622,-3.5622,-3.5622,-3.5622,-3.5362,-3.4816,-3.4053,-3.3633,-3.3735,-3.2718,-3.2064,-3.1951,-3.2382,-3.3039,-3.3987,-3.4382,-3.4941,-3.5622,-3.5622,-3.5622,-3.5622,-3.5622,-3.5622,-3.1749,-3.1884,-3.2104,-3.1376,-3.1596,-3.185,-3.1309,-3.119,-3.119,-3.119,-3.119,0.0,0.0,0.0,-3.119,0.0,0.0,-3.1799,0.0,-3.2121,0.0,0.0,0.0,0.0,0.0,-3.4393,-3.4551,-3.4087,-3.4039,-3.3826,-3.3323,-3.3339,-3.3235,-3.3024,-3.3391,-3.3427,-3.3024,-3.3235,-3.2986,-3.2327,-3.2772,-3.2516,-3.1524,-3.2772,-3.3039,-3.2695,-3.4037,-3.4576,-3.464,-3.5316,-3.5207,-3.4576,-3.4576,-3.48,-3.5052,-3.5052,-3.5052,-3.5052,-3.5052,-3.5052,-3.4958,-3.4479,-3.3987,-3.3684,-3.4186,-3.3987,-3.3786,-3.4752,-3.435,-3.3735,-3.4186,-3.4333,-3.4382,-3.4576,-3.4988,-3.5316,-3.5316,-3.547,-3.5577,-3.5362,-3.547,-3.5622,-3.5622,-3.5622,-3.5622,-3.5622,-3.5622,-3.5622,-3.5622,-3.5622,-3.5622,-3.5622,-3.5424,-3.5253,-3.5068,-3.4003,-3.3443,-3.3719,-3.2826,-3.2064,-3.1524,-3.2007,-3.2734,-3.3582,-3.4087,-3.4752,-3.5622,-3.5622,-3.5622,-3.5622,-3.5622,-3.5622,-3.2645,-3.2256,-3.2104,-3.1376,-3.1207,-3.1224,-3.1207,-3.119,-3.119,-3.119,-3.119,-3.119,-3.119,-3.119,-3.119,-3.119,-3.1207,0.0,0.0,0.0,0.0,0.0,0.0,0.0,0.0,-3.2488,-3.2537,-3.2542,-3.2556,-3.2606,-3.261,-3.2641,-3.2327,-3.1582,-3.2864,-3.2971,-3.1582,-3.2272,-3.2272,-3.1539,-3.1582,-3.1524,-3.1524,-3.2272,-3.2641,-3.2695,-3.4037,-3.4576,-3.464,-3.5316,-3.5207,-3.4576,-3.4576,-3.4235,-3.3633,-3.3633,-3.3633,-3.3633,-3.3633,-3.3633,-3.3633,-3.3633,-3.3633,-3.3582,-3.3633,-3.3633,-3.3582,-3.3633,-3.3633,-3.3582,-3.3633,-3.3633,-3.3786,-3.4431,-3.464,-3.4624,-3.4624,-3.5144,-3.5407,-3.4736,-3.5161,-3.5622,-3.5622,-3.5622,-3.5622,-3.5622,-3.5622,-3.5622,-3.5622,-3.5622,-3.5622,-3.5622,-3.5005,-3.4382,-3.3735,-3.3039,-3.2327,-3.164,-3.1582,-3.1524,-3.1482,-3.1524,-3.2201,-3.3582,-3.3633,-3.4301,-3.5622,-3.5622,-3.5622,-3.5622,-3.5622,-3.5622,-3.3152,-3.3372,-3.344,-3.2222,-3.229,-3.2408,-3.141,-3.119,-3.119,-3.119,-3.119,-3.119,-3.119,-3.119,-3.119,-3.119,-3.119,-3.119,0.0,-3.119,-3.119,-3.119,-3.1655,0.0,0.0,-3.3225,-3.3611,-3.3175,-3.3174,-3.3049,-3.2625,-3.212,-3.1739,-3.1539,-3.1936,-3.1992,-3.1524,-3.1739,-3.1739,-3.1482,-3.1482,-3.1482,-3.1539,-3.1739,-3.1853,-3.1894,-3.2879,-3.3287,-3.3339,-3.3987,-3.3887,-3.3287,-3.3287,-3.2826,-3.2296,-3.3287,-3.3582,-3.3582,-3.3582,-3.3287,-3.2949,-3.2949,-3.2625,-3.2312,-3.2788,-3.2571,-3.2407,-3.3323,-3.2917,-3.2296,-3.2788,-3.2949,-3.3002,-3.3235,-3.3649,-3.3937,-3.3937,-3.4137,-3.4202,-3.3987,-3.4137,-3.4399,-3.4847,-3.4941,-3.5098,-3.5515,-3.5622,-3.5622,-3.5622,-3.5622,-3.5622,-3.5622,-3.4988,-3.4528,-3.4284,-3.3235,-3.2272,-3.1539,-3.1482,-3.1482,-3.1482,-3.1482,-3.1951,-3.2949,-3.3391,-3.4037,-3.4941,-3.5362,-3.5622,-3.5622,-3.5622,-3.5622,-3.3863,-3.4134,-3.4201,-3.2983,-3.3051,-3.3085,-3.1867,-3.1579,-3.1579,-3.1579,-3.1376,-3.136,-3.1884,-3.1546,-3.1275,-3.1546,-3.136,-3.119,0.0,-3.119,-3.119,-3.119,-3.1613,-3.1985,0.0,-3.3152,-3.3638,-3.3488,-3.3323,-3.3034,-3.2625,-3.1894,-3.1482,-3.1482,-3.1482,-3.1482,-3.1482,-3.1482,-3.1482,-3.1482,-3.1482,-3.1482,-3.1482,-3.1482,-3.1482,-3.1524,-3.2272,-3.2586,-3.2641,-3.3339,-3.3182,-3.2586,-3.2586,-3.216,-3.164,-3.2501,-3.2864,-3.2864,-3.2864,-3.2571,-3.2216,-3.2216,-3.191,-3.1582,-3.2064,-3.1853,-3.1682,-3.261,-3.2201,-3.1582,-3.2064,-3.2216,-3.2272,-3.2547,-3.2933,-3.3235,-3.3235,-3.3443,-3.3547,-3.3287,-3.3443,-3.3836,-3.4479,-3.4576,-3.4847,-3.5515,-3.5622,-3.5622,-3.5622,-3.5622,-3.5515,-3.5253,-3.464,-3.4021,-3.3515,-3.2718,-3.2007,-3.1524,-3.1482,-3.1482,-3.1482,-3.1482,-3.1853,-3.2602,-3.3235,-3.3937,-3.4576,-3.5035,-3.5362,-3.5577,-3.5115,-3.5005]}]]